<?xml version="1.0" encoding="UTF-8" standalone="no" ?>
<gpx xmlns="http://www.topografix.com/GPX/1/1" xmlns:xsi="http://www.w3.org/2001/XMLSchema-instance" xsi:schemaLocation="http://www.topografix.com/GPX/1/1 http://www.topografix.com/GPX/1/1/gpx.xsd" version="1.1" creator="VisuGPX - https://www.visugpx.com">
  <metadata>
    <name>Lances de malissard </name>
    <desc><![CDATA[

]]></desc>
  </metadata>
  <trk>
    <name><![CDATA[Lances de malissard ]]></name>
    <extensions>
      <line xmlns="http://www.topografix.com/GPX/gpx_style/0/2">
        <color>0000FF</color>
        <width>4</width>
      </line>
    </extensions>
    <trkseg>
      <trkpt lat="45.35606" lon="5.91912">
        <ele>1063.4610595703</ele>
        <time>2017-02-10T07:19:21Z</time>
      </trkpt>
      <trkpt lat="45.35595" lon="5.91893">
        <ele>1067.4599609375</ele>
        <time>2017-02-10T07:19:22Z</time>
      </trkpt>
      <trkpt lat="45.3559" lon="5.91885">
        <ele>1067.4599609375</ele>
        <time>2017-02-10T07:19:25Z</time>
      </trkpt>
      <trkpt lat="45.35591" lon="5.91874">
        <ele>1069.4599609375</ele>
        <time>2017-02-10T07:19:31Z</time>
      </trkpt>
      <trkpt lat="45.35591" lon="5.91863">
        <ele>1072.4599609375</ele>
        <time>2017-02-10T07:19:52Z</time>
      </trkpt>
      <trkpt lat="45.3559" lon="5.91851">
        <ele>1072.4599609375</ele>
        <time>2017-02-10T07:19:57Z</time>
      </trkpt>
      <trkpt lat="45.35586" lon="5.91842">
        <ele>1076.4599609375</ele>
        <time>2017-02-10T07:20:05Z</time>
      </trkpt>
      <trkpt lat="45.35586" lon="5.91832">
        <ele>1077.4599609375</ele>
        <time>2017-02-10T07:20:13Z</time>
      </trkpt>
      <trkpt lat="45.35586" lon="5.9182">
        <ele>1077.4599609375</ele>
        <time>2017-02-10T07:20:19Z</time>
      </trkpt>
      <trkpt lat="45.35585" lon="5.91809">
        <ele>1070.4599609375</ele>
        <time>2017-02-10T07:20:25Z</time>
      </trkpt>
      <trkpt lat="45.35587" lon="5.91799">
        <ele>1073.4599609375</ele>
        <time>2017-02-10T07:20:32Z</time>
      </trkpt>
      <trkpt lat="45.35588" lon="5.91788">
        <ele>1074.4599609375</ele>
        <time>2017-02-10T07:20:40Z</time>
      </trkpt>
      <trkpt lat="45.35587" lon="5.91777">
        <ele>1074.4599609375</ele>
        <time>2017-02-10T07:20:46Z</time>
      </trkpt>
      <trkpt lat="45.35586" lon="5.91766">
        <ele>1077.4599609375</ele>
        <time>2017-02-10T07:20:53Z</time>
      </trkpt>
      <trkpt lat="45.35582" lon="5.91756">
        <ele>1078.4599609375</ele>
        <time>2017-02-10T07:21:00Z</time>
      </trkpt>
      <trkpt lat="45.35582" lon="5.91745">
        <ele>1078.4599609375</ele>
        <time>2017-02-10T07:21:09Z</time>
      </trkpt>
      <trkpt lat="45.35584" lon="5.91735">
        <ele>1078.4599609375</ele>
        <time>2017-02-10T07:21:16Z</time>
      </trkpt>
      <trkpt lat="45.35588" lon="5.91726">
        <ele>1080.4599609375</ele>
        <time>2017-02-10T07:21:25Z</time>
      </trkpt>
      <trkpt lat="45.35593" lon="5.91717">
        <ele>1084.4599609375</ele>
        <time>2017-02-10T07:21:31Z</time>
      </trkpt>
      <trkpt lat="45.35599" lon="5.91708">
        <ele>1084.4599609375</ele>
        <time>2017-02-10T07:21:41Z</time>
      </trkpt>
      <trkpt lat="45.35603" lon="5.91699">
        <ele>1081.4599609375</ele>
        <time>2017-02-10T07:21:48Z</time>
      </trkpt>
      <trkpt lat="45.3561" lon="5.91692">
        <ele>1082.4599609375</ele>
        <time>2017-02-10T07:21:56Z</time>
      </trkpt>
      <trkpt lat="45.35615" lon="5.9168">
        <ele>1084.4599609375</ele>
        <time>2017-02-10T07:22:03Z</time>
      </trkpt>
      <trkpt lat="45.35619" lon="5.91669">
        <ele>1087.4599609375</ele>
        <time>2017-02-10T07:22:10Z</time>
      </trkpt>
      <trkpt lat="45.3562" lon="5.91658">
        <ele>1086.4599609375</ele>
        <time>2017-02-10T07:22:17Z</time>
      </trkpt>
      <trkpt lat="45.35622" lon="5.91647">
        <ele>1093.4599609375</ele>
        <time>2017-02-10T07:22:29Z</time>
      </trkpt>
      <trkpt lat="45.35622" lon="5.91637">
        <ele>1087.4599609375</ele>
        <time>2017-02-10T07:22:39Z</time>
      </trkpt>
      <trkpt lat="45.35628" lon="5.91629">
        <ele>1091.4599609375</ele>
        <time>2017-02-10T07:22:48Z</time>
      </trkpt>
      <trkpt lat="45.35633" lon="5.91621">
        <ele>1100.4599609375</ele>
        <time>2017-02-10T07:22:55Z</time>
      </trkpt>
      <trkpt lat="45.35635" lon="5.91612">
        <ele>1100.4599609375</ele>
        <time>2017-02-10T07:23:01Z</time>
      </trkpt>
      <trkpt lat="45.35637" lon="5.91601">
        <ele>1103.4599609375</ele>
        <time>2017-02-10T07:23:08Z</time>
      </trkpt>
      <trkpt lat="45.3564" lon="5.91591">
        <ele>1104.4599609375</ele>
        <time>2017-02-10T07:23:16Z</time>
      </trkpt>
      <trkpt lat="45.35641" lon="5.91581">
        <ele>1107.4599609375</ele>
        <time>2017-02-10T07:23:24Z</time>
      </trkpt>
      <trkpt lat="45.35645" lon="5.91571">
        <ele>1111.4599609375</ele>
        <time>2017-02-10T07:23:32Z</time>
      </trkpt>
      <trkpt lat="45.35651" lon="5.91564">
        <ele>1116.4599609375</ele>
        <time>2017-02-10T07:23:39Z</time>
      </trkpt>
      <trkpt lat="45.35657" lon="5.91556">
        <ele>1118.4599609375</ele>
        <time>2017-02-10T07:23:44Z</time>
      </trkpt>
      <trkpt lat="45.3566" lon="5.91546">
        <ele>1119.4599609375</ele>
        <time>2017-02-10T07:23:51Z</time>
      </trkpt>
      <trkpt lat="45.35681" lon="5.91503">
        <ele>1129.4599609375</ele>
        <time>2017-02-10T07:24:23Z</time>
      </trkpt>
      <trkpt lat="45.35687" lon="5.91496">
        <ele>1129.4599609375</ele>
        <time>2017-02-10T07:24:34Z</time>
      </trkpt>
      <trkpt lat="45.35691" lon="5.91486">
        <ele>1132.4599609375</ele>
        <time>2017-02-10T07:24:44Z</time>
      </trkpt>
      <trkpt lat="45.35695" lon="5.91478">
        <ele>1131.4599609375</ele>
        <time>2017-02-10T07:24:53Z</time>
      </trkpt>
      <trkpt lat="45.35697" lon="5.91468">
        <ele>1134.4599609375</ele>
        <time>2017-02-10T07:25:02Z</time>
      </trkpt>
      <trkpt lat="45.35699" lon="5.91458">
        <ele>1138.4599609375</ele>
        <time>2017-02-10T07:25:09Z</time>
      </trkpt>
      <trkpt lat="45.35701" lon="5.91447">
        <ele>1144.4599609375</ele>
        <time>2017-02-10T07:25:17Z</time>
      </trkpt>
      <trkpt lat="45.35703" lon="5.91436">
        <ele>1147.4599609375</ele>
        <time>2017-02-10T07:25:26Z</time>
      </trkpt>
      <trkpt lat="45.35707" lon="5.91426">
        <ele>1152.4599609375</ele>
        <time>2017-02-10T07:25:33Z</time>
      </trkpt>
      <trkpt lat="45.35708" lon="5.91415">
        <ele>1154.4599609375</ele>
        <time>2017-02-10T07:25:40Z</time>
      </trkpt>
      <trkpt lat="45.35709" lon="5.91405">
        <ele>1157.4599609375</ele>
        <time>2017-02-10T07:25:48Z</time>
      </trkpt>
      <trkpt lat="45.3571" lon="5.91394">
        <ele>1158.4599609375</ele>
        <time>2017-02-10T07:25:57Z</time>
      </trkpt>
      <trkpt lat="45.3571" lon="5.91383">
        <ele>1156.4599609375</ele>
        <time>2017-02-10T07:26:05Z</time>
      </trkpt>
      <trkpt lat="45.35711" lon="5.91372">
        <ele>1159.4599609375</ele>
        <time>2017-02-10T07:26:12Z</time>
      </trkpt>
      <trkpt lat="45.35713" lon="5.91361">
        <ele>1160.4599609375</ele>
        <time>2017-02-10T07:26:20Z</time>
      </trkpt>
      <trkpt lat="45.35713" lon="5.9135">
        <ele>1161.4599609375</ele>
        <time>2017-02-10T07:26:27Z</time>
      </trkpt>
      <trkpt lat="45.35713" lon="5.91339">
        <ele>1163.4599609375</ele>
        <time>2017-02-10T07:26:34Z</time>
      </trkpt>
      <trkpt lat="45.35714" lon="5.91329">
        <ele>1166.4599609375</ele>
        <time>2017-02-10T07:26:41Z</time>
      </trkpt>
      <trkpt lat="45.35714" lon="5.91318">
        <ele>1169.4599609375</ele>
        <time>2017-02-10T07:26:49Z</time>
      </trkpt>
      <trkpt lat="45.35715" lon="5.91308">
        <ele>1174.4599609375</ele>
        <time>2017-02-10T07:27:00Z</time>
      </trkpt>
      <trkpt lat="45.35714" lon="5.91297">
        <ele>1174.4599609375</ele>
        <time>2017-02-10T07:27:09Z</time>
      </trkpt>
      <trkpt lat="45.35713" lon="5.91286">
        <ele>1173.4599609375</ele>
        <time>2017-02-10T07:27:19Z</time>
      </trkpt>
      <trkpt lat="45.35714" lon="5.91274">
        <ele>1178.4599609375</ele>
        <time>2017-02-10T07:27:36Z</time>
      </trkpt>
      <trkpt lat="45.35712" lon="5.91263">
        <ele>1173.4599609375</ele>
        <time>2017-02-10T07:27:45Z</time>
      </trkpt>
      <trkpt lat="45.35715" lon="5.91253">
        <ele>1180.4599609375</ele>
        <time>2017-02-10T07:27:59Z</time>
      </trkpt>
      <trkpt lat="45.35716" lon="5.91238">
        <ele>582.46002197266</ele>
        <time>2017-02-10T07:28:09Z</time>
      </trkpt>
      <trkpt lat="45.35716" lon="5.91228">
        <ele>1058.4599609375</ele>
        <time>2017-02-10T07:28:17Z</time>
      </trkpt>
      <trkpt lat="45.35717" lon="5.91215">
        <ele>1152.4599609375</ele>
        <time>2017-02-10T07:28:27Z</time>
      </trkpt>
      <trkpt lat="45.35718" lon="5.91204">
        <ele>1171.4599609375</ele>
        <time>2017-02-10T07:28:37Z</time>
      </trkpt>
      <trkpt lat="45.35716" lon="5.91194">
        <ele>1185.4599609375</ele>
        <time>2017-02-10T07:28:47Z</time>
      </trkpt>
      <trkpt lat="45.35712" lon="5.91183">
        <ele>1189.4599609375</ele>
        <time>2017-02-10T07:28:57Z</time>
      </trkpt>
      <trkpt lat="45.35714" lon="5.91173">
        <ele>1198.4599609375</ele>
        <time>2017-02-10T07:30:56Z</time>
      </trkpt>
      <trkpt lat="45.35716" lon="5.91162">
        <ele>1204.4599609375</ele>
        <time>2017-02-10T07:31:04Z</time>
      </trkpt>
      <trkpt lat="45.35716" lon="5.91151">
        <ele>1205.4599609375</ele>
        <time>2017-02-10T07:31:12Z</time>
      </trkpt>
      <trkpt lat="45.35711" lon="5.91141">
        <ele>1204.4599609375</ele>
        <time>2017-02-10T07:31:23Z</time>
      </trkpt>
      <trkpt lat="45.35709" lon="5.91131">
        <ele>1208.4599609375</ele>
        <time>2017-02-10T07:31:33Z</time>
      </trkpt>
      <trkpt lat="45.3571" lon="5.9112">
        <ele>1212.4599609375</ele>
        <time>2017-02-10T07:31:40Z</time>
      </trkpt>
      <trkpt lat="45.35706" lon="5.9111">
        <ele>1216.4599609375</ele>
        <time>2017-02-10T07:31:50Z</time>
      </trkpt>
      <trkpt lat="45.35703" lon="5.911">
        <ele>1219.4599609375</ele>
        <time>2017-02-10T07:31:59Z</time>
      </trkpt>
      <trkpt lat="45.35701" lon="5.9109">
        <ele>1222.4599609375</ele>
        <time>2017-02-10T07:32:10Z</time>
      </trkpt>
      <trkpt lat="45.35698" lon="5.9108">
        <ele>1223.4599609375</ele>
        <time>2017-02-10T07:32:23Z</time>
      </trkpt>
      <trkpt lat="45.35701" lon="5.9107">
        <ele>1221.4599609375</ele>
        <time>2017-02-10T07:32:32Z</time>
      </trkpt>
      <trkpt lat="45.35698" lon="5.9106">
        <ele>1221.4599609375</ele>
        <time>2017-02-10T07:32:41Z</time>
      </trkpt>
      <trkpt lat="45.35695" lon="5.91048">
        <ele>1228.4599609375</ele>
        <time>2017-02-10T07:32:52Z</time>
      </trkpt>
      <trkpt lat="45.35693" lon="5.91037">
        <ele>1232.4599609375</ele>
        <time>2017-02-10T07:32:59Z</time>
      </trkpt>
      <trkpt lat="45.3569" lon="5.91027">
        <ele>1232.4599609375</ele>
        <time>2017-02-10T07:33:06Z</time>
      </trkpt>
      <trkpt lat="45.35689" lon="5.91016">
        <ele>1233.4599609375</ele>
        <time>2017-02-10T07:33:15Z</time>
      </trkpt>
      <trkpt lat="45.35687" lon="5.91005">
        <ele>1232.458984375</ele>
        <time>2017-02-10T07:33:25Z</time>
      </trkpt>
      <trkpt lat="45.35686" lon="5.90995">
        <ele>1238.458984375</ele>
        <time>2017-02-10T07:33:36Z</time>
      </trkpt>
      <trkpt lat="45.35686" lon="5.90984">
        <ele>1243.458984375</ele>
        <time>2017-02-10T07:33:43Z</time>
      </trkpt>
      <trkpt lat="45.35686" lon="5.90973">
        <ele>1242.458984375</ele>
        <time>2017-02-10T07:33:50Z</time>
      </trkpt>
      <trkpt lat="45.35685" lon="5.90961">
        <ele>1239.458984375</ele>
        <time>2017-02-10T07:34:01Z</time>
      </trkpt>
      <trkpt lat="45.35685" lon="5.90951">
        <ele>1241.458984375</ele>
        <time>2017-02-10T07:34:09Z</time>
      </trkpt>
      <trkpt lat="45.35685" lon="5.90939">
        <ele>1246.458984375</ele>
        <time>2017-02-10T07:34:19Z</time>
      </trkpt>
      <trkpt lat="45.35685" lon="5.90928">
        <ele>1249.458984375</ele>
        <time>2017-02-10T07:34:26Z</time>
      </trkpt>
      <trkpt lat="45.35687" lon="5.90916">
        <ele>1253.458984375</ele>
        <time>2017-02-10T07:34:35Z</time>
      </trkpt>
      <trkpt lat="45.3569" lon="5.90906">
        <ele>1258.458984375</ele>
        <time>2017-02-10T07:34:43Z</time>
      </trkpt>
      <trkpt lat="45.35693" lon="5.90897">
        <ele>1258.458984375</ele>
        <time>2017-02-10T07:34:52Z</time>
      </trkpt>
      <trkpt lat="45.35696" lon="5.90887">
        <ele>1264.458984375</ele>
        <time>2017-02-10T07:35:02Z</time>
      </trkpt>
      <trkpt lat="45.357" lon="5.90878">
        <ele>1267.458984375</ele>
        <time>2017-02-10T07:35:10Z</time>
      </trkpt>
      <trkpt lat="45.35706" lon="5.9087">
        <ele>1268.458984375</ele>
        <time>2017-02-10T07:35:20Z</time>
      </trkpt>
      <trkpt lat="45.35711" lon="5.90877">
        <ele>1270.458984375</ele>
        <time>2017-02-10T07:35:33Z</time>
      </trkpt>
      <trkpt lat="45.35718" lon="5.90875">
        <ele>1270.458984375</ele>
        <time>2017-02-10T07:35:45Z</time>
      </trkpt>
      <trkpt lat="45.35726" lon="5.90875">
        <ele>1273.458984375</ele>
        <time>2017-02-10T07:35:52Z</time>
      </trkpt>
      <trkpt lat="45.35734" lon="5.90872">
        <ele>1271.458984375</ele>
        <time>2017-02-10T07:35:58Z</time>
      </trkpt>
      <trkpt lat="45.35741" lon="5.90869">
        <ele>1273.458984375</ele>
        <time>2017-02-10T07:36:04Z</time>
      </trkpt>
      <trkpt lat="45.35749" lon="5.9087">
        <ele>1283.458984375</ele>
        <time>2017-02-10T07:36:16Z</time>
      </trkpt>
      <trkpt lat="45.35757" lon="5.90871">
        <ele>1282.458984375</ele>
        <time>2017-02-10T07:36:25Z</time>
      </trkpt>
      <trkpt lat="45.35763" lon="5.90878">
        <ele>1279.458984375</ele>
        <time>2017-02-10T07:36:33Z</time>
      </trkpt>
      <trkpt lat="45.3577" lon="5.90884">
        <ele>1282.458984375</ele>
        <time>2017-02-10T07:36:41Z</time>
      </trkpt>
      <trkpt lat="45.35778" lon="5.90884">
        <ele>1284.4599609375</ele>
        <time>2017-02-10T07:36:48Z</time>
      </trkpt>
      <trkpt lat="45.35786" lon="5.90883">
        <ele>1284.4599609375</ele>
        <time>2017-02-10T07:36:56Z</time>
      </trkpt>
      <trkpt lat="45.35793" lon="5.90883">
        <ele>1287.4599609375</ele>
        <time>2017-02-10T07:37:03Z</time>
      </trkpt>
      <trkpt lat="45.35801" lon="5.90885">
        <ele>1289.4599609375</ele>
        <time>2017-02-10T07:37:08Z</time>
      </trkpt>
      <trkpt lat="45.35808" lon="5.90893">
        <ele>1292.4599609375</ele>
        <time>2017-02-10T07:37:16Z</time>
      </trkpt>
      <trkpt lat="45.35808" lon="5.90883">
        <ele>1293.4599609375</ele>
        <time>2017-02-10T07:37:30Z</time>
      </trkpt>
      <trkpt lat="45.35807" lon="5.90872">
        <ele>1296.4599609375</ele>
        <time>2017-02-10T07:37:39Z</time>
      </trkpt>
      <trkpt lat="45.35804" lon="5.90862">
        <ele>1297.4599609375</ele>
        <time>2017-02-10T07:37:50Z</time>
      </trkpt>
      <trkpt lat="45.35804" lon="5.90852">
        <ele>1301.4599609375</ele>
        <time>2017-02-10T07:37:59Z</time>
      </trkpt>
      <trkpt lat="45.35803" lon="5.90841">
        <ele>1306.4599609375</ele>
        <time>2017-02-10T07:38:07Z</time>
      </trkpt>
      <trkpt lat="45.35805" lon="5.90831">
        <ele>1313.4599609375</ele>
        <time>2017-02-10T07:38:16Z</time>
      </trkpt>
      <trkpt lat="45.35808" lon="5.90819">
        <ele>1311.458984375</ele>
        <time>2017-02-10T07:38:24Z</time>
      </trkpt>
      <trkpt lat="45.35806" lon="5.90809">
        <ele>1311.458984375</ele>
        <time>2017-02-10T07:38:34Z</time>
      </trkpt>
      <trkpt lat="45.35805" lon="5.90797">
        <ele>1309.458984375</ele>
        <time>2017-02-10T07:38:43Z</time>
      </trkpt>
      <trkpt lat="45.35812" lon="5.90797">
        <ele>1314.458984375</ele>
        <time>2017-02-10T07:38:52Z</time>
      </trkpt>
      <trkpt lat="45.35809" lon="5.90787">
        <ele>1316.458984375</ele>
        <time>2017-02-10T07:38:59Z</time>
      </trkpt>
      <trkpt lat="45.35808" lon="5.90775">
        <ele>1320.458984375</ele>
        <time>2017-02-10T07:39:14Z</time>
      </trkpt>
      <trkpt lat="45.35803" lon="5.90767">
        <ele>1320.458984375</ele>
        <time>2017-02-10T07:39:24Z</time>
      </trkpt>
      <trkpt lat="45.35791" lon="5.90769">
        <ele>1323.458984375</ele>
        <time>2017-02-10T07:39:32Z</time>
      </trkpt>
      <trkpt lat="45.35783" lon="5.90762">
        <ele>1324.458984375</ele>
        <time>2017-02-10T07:39:38Z</time>
      </trkpt>
      <trkpt lat="45.35777" lon="5.90755">
        <ele>1324.458984375</ele>
        <time>2017-02-10T07:39:41Z</time>
      </trkpt>
      <trkpt lat="45.35769" lon="5.90752">
        <ele>1326.458984375</ele>
        <time>2017-02-10T07:39:54Z</time>
      </trkpt>
      <trkpt lat="45.35762" lon="5.90747">
        <ele>1329.458984375</ele>
        <time>2017-02-10T07:39:59Z</time>
      </trkpt>
      <trkpt lat="45.35762" lon="5.90735">
        <ele>1331.458984375</ele>
        <time>2017-02-10T07:40:08Z</time>
      </trkpt>
      <trkpt lat="45.35757" lon="5.90728">
        <ele>1336.458984375</ele>
        <time>2017-02-10T07:40:19Z</time>
      </trkpt>
      <trkpt lat="45.35752" lon="5.9072">
        <ele>1341.458984375</ele>
        <time>2017-02-10T07:40:27Z</time>
      </trkpt>
      <trkpt lat="45.3575" lon="5.90709">
        <ele>1341.458984375</ele>
        <time>2017-02-10T07:40:36Z</time>
      </trkpt>
      <trkpt lat="45.35745" lon="5.90702">
        <ele>1342.458984375</ele>
        <time>2017-02-10T07:40:43Z</time>
      </trkpt>
      <trkpt lat="45.35748" lon="5.90692">
        <ele>1340.458984375</ele>
        <time>2017-02-10T07:40:48Z</time>
      </trkpt>
      <trkpt lat="45.35741" lon="5.90689">
        <ele>1338.458984375</ele>
        <time>2017-02-10T07:40:54Z</time>
      </trkpt>
      <trkpt lat="45.35739" lon="5.90679">
        <ele>1339.458984375</ele>
        <time>2017-02-10T07:41:01Z</time>
      </trkpt>
      <trkpt lat="45.35733" lon="5.90672">
        <ele>1345.458984375</ele>
        <time>2017-02-10T07:41:11Z</time>
      </trkpt>
      <trkpt lat="45.35733" lon="5.9066">
        <ele>1347.458984375</ele>
        <time>2017-02-10T07:41:19Z</time>
      </trkpt>
      <trkpt lat="45.35725" lon="5.90656">
        <ele>1349.458984375</ele>
        <time>2017-02-10T07:41:27Z</time>
      </trkpt>
      <trkpt lat="45.35719" lon="5.90649">
        <ele>1351.458984375</ele>
        <time>2017-02-10T07:41:33Z</time>
      </trkpt>
      <trkpt lat="45.35724" lon="5.90639">
        <ele>1348.458984375</ele>
        <time>2017-02-10T07:41:41Z</time>
      </trkpt>
      <trkpt lat="45.35722" lon="5.90615">
        <ele>1349.458984375</ele>
        <time>2017-02-10T07:41:54Z</time>
      </trkpt>
      <trkpt lat="45.35715" lon="5.90612">
        <ele>1355.458984375</ele>
        <time>2017-02-10T07:41:59Z</time>
      </trkpt>
      <trkpt lat="45.35716" lon="5.90595">
        <ele>1355.458984375</ele>
        <time>2017-02-10T07:42:07Z</time>
      </trkpt>
      <trkpt lat="45.35709" lon="5.90601">
        <ele>1354.458984375</ele>
        <time>2017-02-10T07:42:11Z</time>
      </trkpt>
      <trkpt lat="45.35702" lon="5.90595">
        <ele>1357.458984375</ele>
        <time>2017-02-10T07:42:18Z</time>
      </trkpt>
      <trkpt lat="45.35695" lon="5.90589">
        <ele>1363.458984375</ele>
        <time>2017-02-10T07:42:26Z</time>
      </trkpt>
      <trkpt lat="45.3569" lon="5.90581">
        <ele>1368.458984375</ele>
        <time>2017-02-10T07:42:35Z</time>
      </trkpt>
      <trkpt lat="45.35681" lon="5.90575">
        <ele>1369.458984375</ele>
        <time>2017-02-10T07:42:42Z</time>
      </trkpt>
      <trkpt lat="45.35676" lon="5.90566">
        <ele>1372.458984375</ele>
        <time>2017-02-10T07:42:51Z</time>
      </trkpt>
      <trkpt lat="45.35675" lon="5.90555">
        <ele>1373.458984375</ele>
        <time>2017-02-10T07:42:59Z</time>
      </trkpt>
      <trkpt lat="45.3567" lon="5.90546">
        <ele>1381.458984375</ele>
        <time>2017-02-10T07:43:10Z</time>
      </trkpt>
      <trkpt lat="45.35667" lon="5.90535">
        <ele>1381.458984375</ele>
        <time>2017-02-10T07:43:17Z</time>
      </trkpt>
      <trkpt lat="45.3566" lon="5.90527">
        <ele>1383.458984375</ele>
        <time>2017-02-10T07:43:24Z</time>
      </trkpt>
      <trkpt lat="45.35659" lon="5.90516">
        <ele>1382.458984375</ele>
        <time>2017-02-10T07:43:33Z</time>
      </trkpt>
      <trkpt lat="45.35654" lon="5.90508">
        <ele>1386.458984375</ele>
        <time>2017-02-10T07:43:41Z</time>
      </trkpt>
      <trkpt lat="45.35654" lon="5.90496">
        <ele>1386.458984375</ele>
        <time>2017-02-10T07:43:51Z</time>
      </trkpt>
      <trkpt lat="45.3565" lon="5.90486">
        <ele>1387.458984375</ele>
        <time>2017-02-10T07:43:57Z</time>
      </trkpt>
      <trkpt lat="45.3565" lon="5.90476">
        <ele>1385.458984375</ele>
        <time>2017-02-10T07:44:03Z</time>
      </trkpt>
      <trkpt lat="45.35646" lon="5.90467">
        <ele>1389.458984375</ele>
        <time>2017-02-10T07:44:10Z</time>
      </trkpt>
      <trkpt lat="45.35637" lon="5.90453">
        <ele>1393.458984375</ele>
        <time>2017-02-10T07:44:19Z</time>
      </trkpt>
      <trkpt lat="45.35633" lon="5.90442">
        <ele>1401.458984375</ele>
        <time>2017-02-10T07:44:30Z</time>
      </trkpt>
      <trkpt lat="45.35623" lon="5.90423">
        <ele>1401.458984375</ele>
        <time>2017-02-10T07:44:43Z</time>
      </trkpt>
      <trkpt lat="45.35625" lon="5.90413">
        <ele>1403.458984375</ele>
        <time>2017-02-10T07:44:53Z</time>
      </trkpt>
      <trkpt lat="45.35615" lon="5.90398">
        <ele>1401.458984375</ele>
        <time>2017-02-10T07:44:59Z</time>
      </trkpt>
      <trkpt lat="45.3561" lon="5.9039">
        <ele>1402.458984375</ele>
        <time>2017-02-10T07:45:13Z</time>
      </trkpt>
      <trkpt lat="45.35602" lon="5.90387">
        <ele>1406.4580078125</ele>
        <time>2017-02-10T07:45:41Z</time>
      </trkpt>
      <trkpt lat="45.35594" lon="5.90382">
        <ele>1410.4580078125</ele>
        <time>2017-02-10T07:45:46Z</time>
      </trkpt>
      <trkpt lat="45.35581" lon="5.90367">
        <ele>1409.4580078125</ele>
        <time>2017-02-10T07:45:54Z</time>
      </trkpt>
      <trkpt lat="45.35567" lon="5.90357">
        <ele>1408.4580078125</ele>
        <time>2017-02-10T07:46:06Z</time>
      </trkpt>
      <trkpt lat="45.35559" lon="5.90355">
        <ele>1414.4580078125</ele>
        <time>2017-02-10T07:46:19Z</time>
      </trkpt>
      <trkpt lat="45.35552" lon="5.9035">
        <ele>1415.4580078125</ele>
        <time>2017-02-10T07:46:25Z</time>
      </trkpt>
      <trkpt lat="45.35545" lon="5.90346">
        <ele>1417.4580078125</ele>
        <time>2017-02-10T07:46:36Z</time>
      </trkpt>
      <trkpt lat="45.35537" lon="5.90351">
        <ele>1420.4580078125</ele>
        <time>2017-02-10T07:46:46Z</time>
      </trkpt>
      <trkpt lat="45.3553" lon="5.90345">
        <ele>1422.4580078125</ele>
        <time>2017-02-10T07:46:53Z</time>
      </trkpt>
      <trkpt lat="45.35521" lon="5.90342">
        <ele>1421.4580078125</ele>
        <time>2017-02-10T07:47:00Z</time>
      </trkpt>
      <trkpt lat="45.35514" lon="5.90336">
        <ele>1423.4580078125</ele>
        <time>2017-02-10T07:47:06Z</time>
      </trkpt>
      <trkpt lat="45.3552" lon="5.90319">
        <ele>1426.4580078125</ele>
        <time>2017-02-10T07:47:13Z</time>
      </trkpt>
      <trkpt lat="45.35527" lon="5.90317">
        <ele>1425.4580078125</ele>
        <time>2017-02-10T07:47:18Z</time>
      </trkpt>
      <trkpt lat="45.35533" lon="5.90309">
        <ele>1430.4580078125</ele>
        <time>2017-02-10T07:47:32Z</time>
      </trkpt>
      <trkpt lat="45.3554" lon="5.90303">
        <ele>1432.4580078125</ele>
        <time>2017-02-10T07:47:39Z</time>
      </trkpt>
      <trkpt lat="45.35542" lon="5.90293">
        <ele>1441.4580078125</ele>
        <time>2017-02-10T07:47:51Z</time>
      </trkpt>
      <trkpt lat="45.3554" lon="5.90283">
        <ele>1446.4580078125</ele>
        <time>2017-02-10T07:48:07Z</time>
      </trkpt>
      <trkpt lat="45.35535" lon="5.90275">
        <ele>1449.4580078125</ele>
        <time>2017-02-10T07:48:45Z</time>
      </trkpt>
      <trkpt lat="45.35528" lon="5.90267">
        <ele>1452.4580078125</ele>
        <time>2017-02-10T07:48:51Z</time>
      </trkpt>
      <trkpt lat="45.35524" lon="5.90253">
        <ele>1451.4580078125</ele>
        <time>2017-02-10T07:49:08Z</time>
      </trkpt>
      <trkpt lat="45.35526" lon="5.90243">
        <ele>1458.4580078125</ele>
        <time>2017-02-10T07:49:24Z</time>
      </trkpt>
      <trkpt lat="45.35521" lon="5.90235">
        <ele>1463.4580078125</ele>
        <time>2017-02-10T07:49:30Z</time>
      </trkpt>
      <trkpt lat="45.35516" lon="5.90226">
        <ele>1466.4580078125</ele>
        <time>2017-02-10T07:49:39Z</time>
      </trkpt>
      <trkpt lat="45.35514" lon="5.90216">
        <ele>1467.4580078125</ele>
        <time>2017-02-10T07:49:49Z</time>
      </trkpt>
      <trkpt lat="45.35507" lon="5.90211">
        <ele>1469.4580078125</ele>
        <time>2017-02-10T07:49:56Z</time>
      </trkpt>
      <trkpt lat="45.35507" lon="5.902">
        <ele>1469.4580078125</ele>
        <time>2017-02-10T07:50:14Z</time>
      </trkpt>
      <trkpt lat="45.35502" lon="5.90191">
        <ele>1471.4580078125</ele>
        <time>2017-02-10T07:50:22Z</time>
      </trkpt>
      <trkpt lat="45.35498" lon="5.9018">
        <ele>1473.4580078125</ele>
        <time>2017-02-10T07:50:30Z</time>
      </trkpt>
      <trkpt lat="45.35498" lon="5.9017">
        <ele>1475.4580078125</ele>
        <time>2017-02-10T07:50:36Z</time>
      </trkpt>
      <trkpt lat="45.35503" lon="5.90162">
        <ele>1477.4580078125</ele>
        <time>2017-02-10T07:50:51Z</time>
      </trkpt>
      <trkpt lat="45.35511" lon="5.9016">
        <ele>1476.4580078125</ele>
        <time>2017-02-10T07:51:00Z</time>
      </trkpt>
      <trkpt lat="45.35519" lon="5.90164">
        <ele>1477.4580078125</ele>
        <time>2017-02-10T07:51:07Z</time>
      </trkpt>
      <trkpt lat="45.35528" lon="5.9016">
        <ele>1476.4580078125</ele>
        <time>2017-02-10T07:51:14Z</time>
      </trkpt>
      <trkpt lat="45.35535" lon="5.90161">
        <ele>1477.4580078125</ele>
        <time>2017-02-10T07:51:22Z</time>
      </trkpt>
      <trkpt lat="45.35544" lon="5.90158">
        <ele>1477.4580078125</ele>
        <time>2017-02-10T07:51:29Z</time>
      </trkpt>
      <trkpt lat="45.35553" lon="5.90159">
        <ele>1483.4580078125</ele>
        <time>2017-02-10T07:51:39Z</time>
      </trkpt>
      <trkpt lat="45.35561" lon="5.90157">
        <ele>1483.4580078125</ele>
        <time>2017-02-10T07:51:50Z</time>
      </trkpt>
      <trkpt lat="45.35568" lon="5.90158">
        <ele>1487.4580078125</ele>
        <time>2017-02-10T07:52:00Z</time>
      </trkpt>
      <trkpt lat="45.35576" lon="5.90157">
        <ele>1490.4580078125</ele>
        <time>2017-02-10T07:52:09Z</time>
      </trkpt>
      <trkpt lat="45.35584" lon="5.90157">
        <ele>1492.4580078125</ele>
        <time>2017-02-10T07:52:40Z</time>
      </trkpt>
      <trkpt lat="45.35599" lon="5.90155">
        <ele>1496.4580078125</ele>
        <time>2017-02-10T07:52:52Z</time>
      </trkpt>
      <trkpt lat="45.35608" lon="5.90153">
        <ele>1495.4580078125</ele>
        <time>2017-02-10T07:53:07Z</time>
      </trkpt>
      <trkpt lat="45.35615" lon="5.90152">
        <ele>1493.4580078125</ele>
        <time>2017-02-10T07:53:12Z</time>
      </trkpt>
      <trkpt lat="45.35623" lon="5.90146">
        <ele>1494.4580078125</ele>
        <time>2017-02-10T07:53:17Z</time>
      </trkpt>
      <trkpt lat="45.35632" lon="5.90145">
        <ele>1497.4580078125</ele>
        <time>2017-02-10T07:53:24Z</time>
      </trkpt>
      <trkpt lat="45.3564" lon="5.90145">
        <ele>1501.4580078125</ele>
        <time>2017-02-10T07:53:32Z</time>
      </trkpt>
      <trkpt lat="45.35648" lon="5.90143">
        <ele>1501.4580078125</ele>
        <time>2017-02-10T07:53:39Z</time>
      </trkpt>
      <trkpt lat="45.35656" lon="5.90145">
        <ele>1495.4580078125</ele>
        <time>2017-02-10T07:53:44Z</time>
      </trkpt>
      <trkpt lat="45.35663" lon="5.9015">
        <ele>1506.4580078125</ele>
        <time>2017-02-10T07:54:25Z</time>
      </trkpt>
      <trkpt lat="45.35671" lon="5.90148">
        <ele>1502.4580078125</ele>
        <time>2017-02-10T07:54:26Z</time>
      </trkpt>
      <trkpt lat="45.35694" lon="5.90129">
        <ele>1505.4580078125</ele>
        <time>2017-02-10T07:54:35Z</time>
      </trkpt>
      <trkpt lat="45.35687" lon="5.90126">
        <ele>1510.4580078125</ele>
        <time>2017-02-10T07:54:45Z</time>
      </trkpt>
      <trkpt lat="45.35681" lon="5.9012">
        <ele>1516.4580078125</ele>
        <time>2017-02-10T07:54:56Z</time>
      </trkpt>
      <trkpt lat="45.35676" lon="5.90112">
        <ele>1518.4580078125</ele>
        <time>2017-02-10T07:55:08Z</time>
      </trkpt>
      <trkpt lat="45.35672" lon="5.90103">
        <ele>1525.4580078125</ele>
        <time>2017-02-10T07:55:20Z</time>
      </trkpt>
      <trkpt lat="45.35667" lon="5.90094">
        <ele>1528.4580078125</ele>
        <time>2017-02-10T07:55:31Z</time>
      </trkpt>
      <trkpt lat="45.35661" lon="5.90087">
        <ele>1533.4580078125</ele>
        <time>2017-02-10T07:55:42Z</time>
      </trkpt>
      <trkpt lat="45.3566" lon="5.90076">
        <ele>1531.4580078125</ele>
        <time>2017-02-10T07:55:50Z</time>
      </trkpt>
      <trkpt lat="45.35651" lon="5.90073">
        <ele>1536.4580078125</ele>
        <time>2017-02-10T07:55:56Z</time>
      </trkpt>
      <trkpt lat="45.35645" lon="5.90069">
        <ele>1543.4580078125</ele>
        <time>2017-02-10T07:56:04Z</time>
      </trkpt>
      <trkpt lat="45.35637" lon="5.90063">
        <ele>1549.4580078125</ele>
        <time>2017-02-10T07:56:14Z</time>
      </trkpt>
      <trkpt lat="45.35633" lon="5.90051">
        <ele>1553.4580078125</ele>
        <time>2017-02-10T07:56:27Z</time>
      </trkpt>
      <trkpt lat="45.35619" lon="5.90038">
        <ele>1560.4580078125</ele>
        <time>2017-02-10T07:56:40Z</time>
      </trkpt>
      <trkpt lat="45.35619" lon="5.90027">
        <ele>1566.4580078125</ele>
        <time>2017-02-10T07:57:03Z</time>
      </trkpt>
      <trkpt lat="45.3562" lon="5.90015">
        <ele>1567.4580078125</ele>
        <time>2017-02-10T07:57:08Z</time>
      </trkpt>
      <trkpt lat="45.35614" lon="5.90005">
        <ele>1573.4580078125</ele>
        <time>2017-02-10T07:57:24Z</time>
      </trkpt>
      <trkpt lat="45.35613" lon="5.89993">
        <ele>1575.4580078125</ele>
        <time>2017-02-10T07:57:29Z</time>
      </trkpt>
      <trkpt lat="45.35613" lon="5.89983">
        <ele>1575.4580078125</ele>
        <time>2017-02-10T07:57:35Z</time>
      </trkpt>
      <trkpt lat="45.35615" lon="5.89973">
        <ele>1573.4580078125</ele>
        <time>2017-02-10T07:57:40Z</time>
      </trkpt>
      <trkpt lat="45.35622" lon="5.89965">
        <ele>1572.4580078125</ele>
        <time>2017-02-10T07:57:49Z</time>
      </trkpt>
      <trkpt lat="45.35627" lon="5.89957">
        <ele>1573.4580078125</ele>
        <time>2017-02-10T07:58:21Z</time>
      </trkpt>
      <trkpt lat="45.35634" lon="5.8994">
        <ele>1580.4580078125</ele>
        <time>2017-02-10T07:58:53Z</time>
      </trkpt>
      <trkpt lat="45.35635" lon="5.89917">
        <ele>1589.4580078125</ele>
        <time>2017-02-10T07:59:01Z</time>
      </trkpt>
      <trkpt lat="45.35637" lon="5.89905">
        <ele>1590.4580078125</ele>
        <time>2017-02-10T07:59:11Z</time>
      </trkpt>
      <trkpt lat="45.35637" lon="5.89894">
        <ele>1593.4580078125</ele>
        <time>2017-02-10T07:59:19Z</time>
      </trkpt>
      <trkpt lat="45.35636" lon="5.89884">
        <ele>1597.4580078125</ele>
        <time>2017-02-10T07:59:27Z</time>
      </trkpt>
      <trkpt lat="45.35635" lon="5.89872">
        <ele>1599.4580078125</ele>
        <time>2017-02-10T07:59:36Z</time>
      </trkpt>
      <trkpt lat="45.35631" lon="5.89863">
        <ele>1602.4580078125</ele>
        <time>2017-02-10T07:59:42Z</time>
      </trkpt>
      <trkpt lat="45.35628" lon="5.89853">
        <ele>1606.4580078125</ele>
        <time>2017-02-10T07:59:51Z</time>
      </trkpt>
      <trkpt lat="45.35624" lon="5.89845">
        <ele>1608.4580078125</ele>
        <time>2017-02-10T07:59:58Z</time>
      </trkpt>
      <trkpt lat="45.3562" lon="5.89835">
        <ele>1610.4580078125</ele>
        <time>2017-02-10T08:00:05Z</time>
      </trkpt>
      <trkpt lat="45.35627" lon="5.89838">
        <ele>1609.4580078125</ele>
        <time>2017-02-10T08:00:18Z</time>
      </trkpt>
      <trkpt lat="45.35637" lon="5.89842">
        <ele>1607.4580078125</ele>
        <time>2017-02-10T08:00:25Z</time>
      </trkpt>
      <trkpt lat="45.3564" lon="5.89831">
        <ele>1609.4580078125</ele>
        <time>2017-02-10T08:00:31Z</time>
      </trkpt>
      <trkpt lat="45.35634" lon="5.89825">
        <ele>1617.4580078125</ele>
        <time>2017-02-10T08:00:41Z</time>
      </trkpt>
      <trkpt lat="45.35631" lon="5.89815">
        <ele>1620.4580078125</ele>
        <time>2017-02-10T08:00:49Z</time>
      </trkpt>
      <trkpt lat="45.35627" lon="5.89807">
        <ele>1625.4580078125</ele>
        <time>2017-02-10T08:00:59Z</time>
      </trkpt>
      <trkpt lat="45.35622" lon="5.89797">
        <ele>1626.4580078125</ele>
        <time>2017-02-10T08:01:09Z</time>
      </trkpt>
      <trkpt lat="45.3562" lon="5.89787">
        <ele>1628.4580078125</ele>
        <time>2017-02-10T08:01:18Z</time>
      </trkpt>
      <trkpt lat="45.35619" lon="5.89776">
        <ele>1629.4580078125</ele>
        <time>2017-02-10T08:01:27Z</time>
      </trkpt>
      <trkpt lat="45.3562" lon="5.89766">
        <ele>1630.4580078125</ele>
        <time>2017-02-10T08:01:33Z</time>
      </trkpt>
      <trkpt lat="45.3562" lon="5.89756">
        <ele>1634.4580078125</ele>
        <time>2017-02-10T08:01:43Z</time>
      </trkpt>
      <trkpt lat="45.35619" lon="5.89745">
        <ele>1632.4580078125</ele>
        <time>2017-02-10T08:01:53Z</time>
      </trkpt>
      <trkpt lat="45.35617" lon="5.89734">
        <ele>1633.4580078125</ele>
        <time>2017-02-10T08:02:01Z</time>
      </trkpt>
      <trkpt lat="45.35614" lon="5.89724">
        <ele>1638.4580078125</ele>
        <time>2017-02-10T08:02:14Z</time>
      </trkpt>
      <trkpt lat="45.35612" lon="5.89714">
        <ele>1642.4580078125</ele>
        <time>2017-02-10T08:02:27Z</time>
      </trkpt>
      <trkpt lat="45.35614" lon="5.89704">
        <ele>1643.4580078125</ele>
        <time>2017-02-10T08:02:36Z</time>
      </trkpt>
      <trkpt lat="45.35614" lon="5.89693">
        <ele>1645.4580078125</ele>
        <time>2017-02-10T08:02:50Z</time>
      </trkpt>
      <trkpt lat="45.35614" lon="5.89682">
        <ele>1648.4580078125</ele>
        <time>2017-02-10T08:03:03Z</time>
      </trkpt>
      <trkpt lat="45.35619" lon="5.89675">
        <ele>1648.4580078125</ele>
        <time>2017-02-10T08:03:18Z</time>
      </trkpt>
      <trkpt lat="45.35616" lon="5.89664">
        <ele>1653.4580078125</ele>
        <time>2017-02-10T08:03:35Z</time>
      </trkpt>
      <trkpt lat="45.35616" lon="5.89653">
        <ele>1658.4580078125</ele>
        <time>2017-02-10T08:03:46Z</time>
      </trkpt>
      <trkpt lat="45.35612" lon="5.89644">
        <ele>1663.4580078125</ele>
        <time>2017-02-10T08:04:50Z</time>
      </trkpt>
      <trkpt lat="45.3562" lon="5.89644">
        <ele>1671.4580078125</ele>
        <time>2017-02-10T08:05:04Z</time>
      </trkpt>
      <trkpt lat="45.35627" lon="5.89645">
        <ele>1671.4580078125</ele>
        <time>2017-02-10T08:05:15Z</time>
      </trkpt>
      <trkpt lat="45.35635" lon="5.89644">
        <ele>1672.4580078125</ele>
        <time>2017-02-10T08:05:37Z</time>
      </trkpt>
      <trkpt lat="45.35641" lon="5.89649">
        <ele>1676.4580078125</ele>
        <time>2017-02-10T08:05:45Z</time>
      </trkpt>
      <trkpt lat="45.35647" lon="5.89643">
        <ele>1684.4580078125</ele>
        <time>2017-02-10T08:06:08Z</time>
      </trkpt>
      <trkpt lat="45.35644" lon="5.89634">
        <ele>1684.4580078125</ele>
        <time>2017-02-10T08:06:24Z</time>
      </trkpt>
      <trkpt lat="45.35648" lon="5.89625">
        <ele>1686.4580078125</ele>
        <time>2017-02-10T08:06:38Z</time>
      </trkpt>
      <trkpt lat="45.35654" lon="5.8963">
        <ele>1686.4580078125</ele>
        <time>2017-02-10T08:06:43Z</time>
      </trkpt>
      <trkpt lat="45.35651" lon="5.8962">
        <ele>1695.4580078125</ele>
        <time>2017-02-10T08:07:02Z</time>
      </trkpt>
      <trkpt lat="45.35646" lon="5.89612">
        <ele>1702.4580078125</ele>
        <time>2017-02-10T08:07:12Z</time>
      </trkpt>
      <trkpt lat="45.35646" lon="5.89601">
        <ele>1701.4580078125</ele>
        <time>2017-02-10T08:07:20Z</time>
      </trkpt>
      <trkpt lat="45.35642" lon="5.89592">
        <ele>1703.4580078125</ele>
        <time>2017-02-10T08:07:30Z</time>
      </trkpt>
      <trkpt lat="45.35636" lon="5.89587">
        <ele>1706.4580078125</ele>
        <time>2017-02-10T08:07:38Z</time>
      </trkpt>
      <trkpt lat="45.35629" lon="5.89582">
        <ele>1710.45703125</ele>
        <time>2017-02-10T08:07:47Z</time>
      </trkpt>
      <trkpt lat="45.35629" lon="5.89571">
        <ele>1710.45703125</ele>
        <time>2017-02-10T08:07:54Z</time>
      </trkpt>
      <trkpt lat="45.35643" lon="5.89567">
        <ele>1707.45703125</ele>
        <time>2017-02-10T08:08:02Z</time>
      </trkpt>
      <trkpt lat="45.35652" lon="5.89564">
        <ele>1703.4580078125</ele>
        <time>2017-02-10T08:08:08Z</time>
      </trkpt>
      <trkpt lat="45.35656" lon="5.89556">
        <ele>1704.4580078125</ele>
        <time>2017-02-10T08:08:58Z</time>
      </trkpt>
      <trkpt lat="45.35651" lon="5.89546">
        <ele>1715.45703125</ele>
        <time>2017-02-10T08:09:14Z</time>
      </trkpt>
      <trkpt lat="45.35659" lon="5.89547">
        <ele>1721.4580078125</ele>
        <time>2017-02-10T08:09:25Z</time>
      </trkpt>
      <trkpt lat="45.35667" lon="5.89545">
        <ele>1718.4580078125</ele>
        <time>2017-02-10T08:09:30Z</time>
      </trkpt>
      <trkpt lat="45.35674" lon="5.89544">
        <ele>1719.4580078125</ele>
        <time>2017-02-10T08:09:38Z</time>
      </trkpt>
      <trkpt lat="45.3568" lon="5.8955">
        <ele>1722.4580078125</ele>
        <time>2017-02-10T08:10:23Z</time>
      </trkpt>
      <trkpt lat="45.35687" lon="5.89557">
        <ele>1728.4580078125</ele>
        <time>2017-02-10T08:10:37Z</time>
      </trkpt>
      <trkpt lat="45.35694" lon="5.89559">
        <ele>1732.4580078125</ele>
        <time>2017-02-10T08:11:04Z</time>
      </trkpt>
      <trkpt lat="45.35694" lon="5.89547">
        <ele>1738.4580078125</ele>
        <time>2017-02-10T08:11:21Z</time>
      </trkpt>
      <trkpt lat="45.35691" lon="5.89536">
        <ele>1740.4580078125</ele>
        <time>2017-02-10T08:11:29Z</time>
      </trkpt>
      <trkpt lat="45.35687" lon="5.89526">
        <ele>1745.4580078125</ele>
        <time>2017-02-10T08:11:44Z</time>
      </trkpt>
      <trkpt lat="45.35692" lon="5.89534">
        <ele>1753.4580078125</ele>
        <time>2017-02-10T08:12:09Z</time>
      </trkpt>
      <trkpt lat="45.35698" lon="5.89542">
        <ele>1759.4580078125</ele>
        <time>2017-02-10T08:12:18Z</time>
      </trkpt>
      <trkpt lat="45.35702" lon="5.89551">
        <ele>1764.4580078125</ele>
        <time>2017-02-10T08:12:31Z</time>
      </trkpt>
      <trkpt lat="45.35703" lon="5.89539">
        <ele>1773.4580078125</ele>
        <time>2017-02-10T08:12:58Z</time>
      </trkpt>
      <trkpt lat="45.35706" lon="5.89549">
        <ele>1791.4580078125</ele>
        <time>2017-02-10T08:13:26Z</time>
      </trkpt>
      <trkpt lat="45.35708" lon="5.89559">
        <ele>1794.4580078125</ele>
        <time>2017-02-10T08:13:31Z</time>
      </trkpt>
      <trkpt lat="45.35713" lon="5.89566">
        <ele>1798.4580078125</ele>
        <time>2017-02-10T08:13:39Z</time>
      </trkpt>
      <trkpt lat="45.35718" lon="5.89576">
        <ele>1798.4580078125</ele>
        <time>2017-02-10T08:13:46Z</time>
      </trkpt>
      <trkpt lat="45.35724" lon="5.89581">
        <ele>1795.4580078125</ele>
        <time>2017-02-10T08:13:54Z</time>
      </trkpt>
      <trkpt lat="45.35731" lon="5.89587">
        <ele>1792.4580078125</ele>
        <time>2017-02-10T08:14:02Z</time>
      </trkpt>
      <trkpt lat="45.35734" lon="5.89596">
        <ele>1792.4580078125</ele>
        <time>2017-02-10T08:14:08Z</time>
      </trkpt>
      <trkpt lat="45.3574" lon="5.89604">
        <ele>1794.4580078125</ele>
        <time>2017-02-10T08:14:14Z</time>
      </trkpt>
      <trkpt lat="45.35738" lon="5.89618">
        <ele>1804.4580078125</ele>
        <time>2017-02-10T08:14:21Z</time>
      </trkpt>
      <trkpt lat="45.3574" lon="5.89628">
        <ele>1804.4580078125</ele>
        <time>2017-02-10T08:14:29Z</time>
      </trkpt>
      <trkpt lat="45.35743" lon="5.89638">
        <ele>1805.4580078125</ele>
        <time>2017-02-10T08:14:48Z</time>
      </trkpt>
      <trkpt lat="45.35743" lon="5.89649">
        <ele>1806.4580078125</ele>
        <time>2017-02-10T08:14:55Z</time>
      </trkpt>
      <trkpt lat="45.35744" lon="5.89659">
        <ele>1808.4580078125</ele>
        <time>2017-02-10T08:15:00Z</time>
      </trkpt>
      <trkpt lat="45.35742" lon="5.89673">
        <ele>1812.4580078125</ele>
        <time>2017-02-10T08:15:19Z</time>
      </trkpt>
      <trkpt lat="45.35742" lon="5.89685">
        <ele>1813.4580078125</ele>
        <time>2017-02-10T08:15:46Z</time>
      </trkpt>
      <trkpt lat="45.35745" lon="5.89696">
        <ele>1813.4580078125</ele>
        <time>2017-02-10T08:15:51Z</time>
      </trkpt>
      <trkpt lat="45.35742" lon="5.89709">
        <ele>1813.4580078125</ele>
        <time>2017-02-10T08:16:00Z</time>
      </trkpt>
      <trkpt lat="45.35743" lon="5.8972">
        <ele>1811.4580078125</ele>
        <time>2017-02-10T08:16:06Z</time>
      </trkpt>
      <trkpt lat="45.3574" lon="5.8973">
        <ele>1812.4580078125</ele>
        <time>2017-02-10T08:16:11Z</time>
      </trkpt>
      <trkpt lat="45.35739" lon="5.89741">
        <ele>1813.4580078125</ele>
        <time>2017-02-10T08:16:16Z</time>
      </trkpt>
      <trkpt lat="45.35742" lon="5.8975">
        <ele>1813.4580078125</ele>
        <time>2017-02-10T08:16:25Z</time>
      </trkpt>
      <trkpt lat="45.35743" lon="5.89762">
        <ele>1815.4580078125</ele>
        <time>2017-02-10T08:16:34Z</time>
      </trkpt>
      <trkpt lat="45.35749" lon="5.89769">
        <ele>1814.4580078125</ele>
        <time>2017-02-10T08:16:40Z</time>
      </trkpt>
      <trkpt lat="45.35754" lon="5.89778">
        <ele>1812.4580078125</ele>
        <time>2017-02-10T08:16:46Z</time>
      </trkpt>
      <trkpt lat="45.3576" lon="5.89785">
        <ele>1812.4580078125</ele>
        <time>2017-02-10T08:16:53Z</time>
      </trkpt>
      <trkpt lat="45.35763" lon="5.89794">
        <ele>1817.4580078125</ele>
        <time>2017-02-10T08:17:01Z</time>
      </trkpt>
      <trkpt lat="45.3577" lon="5.89798">
        <ele>1815.4580078125</ele>
        <time>2017-02-10T08:17:08Z</time>
      </trkpt>
      <trkpt lat="45.35778" lon="5.89797">
        <ele>1814.4580078125</ele>
        <time>2017-02-10T08:17:14Z</time>
      </trkpt>
      <trkpt lat="45.35785" lon="5.89792">
        <ele>1814.4580078125</ele>
        <time>2017-02-10T08:17:21Z</time>
      </trkpt>
      <trkpt lat="45.35793" lon="5.89775">
        <ele>1810.4580078125</ele>
        <time>2017-02-10T08:17:31Z</time>
      </trkpt>
      <trkpt lat="45.35804" lon="5.89761">
        <ele>1809.4580078125</ele>
        <time>2017-02-10T08:17:38Z</time>
      </trkpt>
      <trkpt lat="45.3581" lon="5.89755">
        <ele>1809.4580078125</ele>
        <time>2017-02-10T08:17:44Z</time>
      </trkpt>
      <trkpt lat="45.35816" lon="5.8975">
        <ele>1812.4580078125</ele>
        <time>2017-02-10T08:17:52Z</time>
      </trkpt>
      <trkpt lat="45.35824" lon="5.8975">
        <ele>1812.4580078125</ele>
        <time>2017-02-10T08:18:00Z</time>
      </trkpt>
      <trkpt lat="45.35823" lon="5.89739">
        <ele>1812.4580078125</ele>
        <time>2017-02-10T08:18:09Z</time>
      </trkpt>
      <trkpt lat="45.35814" lon="5.89733">
        <ele>1813.4580078125</ele>
        <time>2017-02-10T08:18:16Z</time>
      </trkpt>
      <trkpt lat="45.35808" lon="5.89738">
        <ele>1819.4580078125</ele>
        <time>2017-02-10T08:18:42Z</time>
      </trkpt>
      <trkpt lat="45.35807" lon="5.89726">
        <ele>1815.4580078125</ele>
        <time>2017-02-10T08:19:03Z</time>
      </trkpt>
      <trkpt lat="45.35809" lon="5.89716">
        <ele>1818.4580078125</ele>
        <time>2017-02-10T08:19:10Z</time>
      </trkpt>
      <trkpt lat="45.35807" lon="5.89706">
        <ele>1820.4580078125</ele>
        <time>2017-02-10T08:19:28Z</time>
      </trkpt>
      <trkpt lat="45.35808" lon="5.89696">
        <ele>1823.4580078125</ele>
        <time>2017-02-10T08:19:43Z</time>
      </trkpt>
      <trkpt lat="45.35815" lon="5.89693">
        <ele>1831.4580078125</ele>
        <time>2017-02-10T08:19:55Z</time>
      </trkpt>
      <trkpt lat="45.3582" lon="5.89704">
        <ele>1832.4580078125</ele>
        <time>2017-02-10T08:20:10Z</time>
      </trkpt>
      <trkpt lat="45.35825" lon="5.89711">
        <ele>1837.4580078125</ele>
        <time>2017-02-10T08:20:18Z</time>
      </trkpt>
      <trkpt lat="45.35832" lon="5.89717">
        <ele>1837.4580078125</ele>
        <time>2017-02-10T08:20:25Z</time>
      </trkpt>
      <trkpt lat="45.35838" lon="5.89723">
        <ele>1838.4580078125</ele>
        <time>2017-02-10T08:20:33Z</time>
      </trkpt>
      <trkpt lat="45.35834" lon="5.89712">
        <ele>1838.4580078125</ele>
        <time>2017-02-10T08:23:22Z</time>
      </trkpt>
      <trkpt lat="45.35821" lon="5.897">
        <ele>1839.4580078125</ele>
        <time>2017-02-10T08:23:30Z</time>
      </trkpt>
      <trkpt lat="45.35817" lon="5.89692">
        <ele>1837.4580078125</ele>
        <time>2017-02-10T08:23:35Z</time>
      </trkpt>
      <trkpt lat="45.35815" lon="5.89704">
        <ele>1832.4580078125</ele>
        <time>2017-02-10T08:23:47Z</time>
      </trkpt>
      <trkpt lat="45.35811" lon="5.89715">
        <ele>1829.4580078125</ele>
        <time>2017-02-10T08:23:57Z</time>
      </trkpt>
      <trkpt lat="45.35813" lon="5.89727">
        <ele>1821.4580078125</ele>
        <time>2017-02-10T08:24:04Z</time>
      </trkpt>
      <trkpt lat="45.3582" lon="5.89741">
        <ele>1819.4580078125</ele>
        <time>2017-02-10T08:24:24Z</time>
      </trkpt>
      <trkpt lat="45.35817" lon="5.89757">
        <ele>1808.4580078125</ele>
        <time>2017-02-10T08:25:17Z</time>
      </trkpt>
      <trkpt lat="45.35825" lon="5.89768">
        <ele>1806.4580078125</ele>
        <time>2017-02-10T08:25:32Z</time>
      </trkpt>
      <trkpt lat="45.35829" lon="5.8979">
        <ele>1800.4580078125</ele>
        <time>2017-02-10T08:25:43Z</time>
      </trkpt>
      <trkpt lat="45.35826" lon="5.898">
        <ele>1787.4580078125</ele>
        <time>2017-02-10T08:26:20Z</time>
      </trkpt>
      <trkpt lat="45.35832" lon="5.89807">
        <ele>1783.4580078125</ele>
        <time>2017-02-10T08:26:27Z</time>
      </trkpt>
      <trkpt lat="45.35824" lon="5.89833">
        <ele>1781.4580078125</ele>
        <time>2017-02-10T08:26:32Z</time>
      </trkpt>
      <trkpt lat="45.35824" lon="5.89869">
        <ele>1778.4580078125</ele>
        <time>2017-02-10T08:26:38Z</time>
      </trkpt>
      <trkpt lat="45.35828" lon="5.89879">
        <ele>1777.4580078125</ele>
        <time>2017-02-10T08:26:40Z</time>
      </trkpt>
      <trkpt lat="45.35839" lon="5.89904">
        <ele>1765.4580078125</ele>
        <time>2017-02-10T08:27:07Z</time>
      </trkpt>
      <trkpt lat="45.35826" lon="5.89921">
        <ele>1753.4580078125</ele>
        <time>2017-02-10T08:27:16Z</time>
      </trkpt>
      <trkpt lat="45.35825" lon="5.89943">
        <ele>1743.4580078125</ele>
        <time>2017-02-10T08:27:23Z</time>
      </trkpt>
      <trkpt lat="45.3582" lon="5.89953">
        <ele>1739.4580078125</ele>
        <time>2017-02-10T08:27:26Z</time>
      </trkpt>
      <trkpt lat="45.35828" lon="5.89956">
        <ele>1701.4580078125</ele>
        <time>2017-02-10T08:27:53Z</time>
      </trkpt>
      <trkpt lat="45.3582" lon="5.89963">
        <ele>1688.4580078125</ele>
        <time>2017-02-10T08:28:31Z</time>
      </trkpt>
      <trkpt lat="45.35815" lon="5.89975">
        <ele>1678.4580078125</ele>
        <time>2017-02-10T08:29:16Z</time>
      </trkpt>
      <trkpt lat="45.35816" lon="5.89988">
        <ele>1678.4580078125</ele>
        <time>2017-02-10T08:29:25Z</time>
      </trkpt>
      <trkpt lat="45.35812" lon="5.90013">
        <ele>1672.4580078125</ele>
        <time>2017-02-10T08:29:30Z</time>
      </trkpt>
      <trkpt lat="45.35787" lon="5.9004">
        <ele>1663.4580078125</ele>
        <time>2017-02-10T08:29:36Z</time>
      </trkpt>
      <trkpt lat="45.35781" lon="5.90046">
        <ele>1652.4580078125</ele>
        <time>2017-02-10T08:29:48Z</time>
      </trkpt>
      <trkpt lat="45.35772" lon="5.90044">
        <ele>1649.4580078125</ele>
        <time>2017-02-10T08:30:04Z</time>
      </trkpt>
      <trkpt lat="45.35753" lon="5.90037">
        <ele>1642.4580078125</ele>
        <time>2017-02-10T08:30:10Z</time>
      </trkpt>
      <trkpt lat="45.3573" lon="5.90044">
        <ele>1638.4580078125</ele>
        <time>2017-02-10T08:30:16Z</time>
      </trkpt>
      <trkpt lat="45.35722" lon="5.9005">
        <ele>1622.4580078125</ele>
        <time>2017-02-10T08:30:28Z</time>
      </trkpt>
      <trkpt lat="45.35714" lon="5.90052">
        <ele>1613.4580078125</ele>
        <time>2017-02-10T08:30:38Z</time>
      </trkpt>
      <trkpt lat="45.35705" lon="5.90053">
        <ele>1607.4580078125</ele>
        <time>2017-02-10T08:30:46Z</time>
      </trkpt>
      <trkpt lat="45.35697" lon="5.90058">
        <ele>1606.4580078125</ele>
        <time>2017-02-10T08:30:59Z</time>
      </trkpt>
      <trkpt lat="45.35688" lon="5.9006">
        <ele>1599.4580078125</ele>
        <time>2017-02-10T08:31:04Z</time>
      </trkpt>
      <trkpt lat="45.3567" lon="5.90059">
        <ele>1594.4580078125</ele>
        <time>2017-02-10T08:31:11Z</time>
      </trkpt>
      <trkpt lat="45.35662" lon="5.90058">
        <ele>1587.4580078125</ele>
        <time>2017-02-10T08:31:17Z</time>
      </trkpt>
      <trkpt lat="45.35653" lon="5.90057">
        <ele>1581.4580078125</ele>
        <time>2017-02-10T08:31:37Z</time>
      </trkpt>
      <trkpt lat="45.35646" lon="5.90059">
        <ele>1580.4580078125</ele>
        <time>2017-02-10T08:31:43Z</time>
      </trkpt>
      <trkpt lat="45.3564" lon="5.90066">
        <ele>1579.4580078125</ele>
        <time>2017-02-10T08:32:03Z</time>
      </trkpt>
      <trkpt lat="45.35636" lon="5.90078">
        <ele>1568.4580078125</ele>
        <time>2017-02-10T08:32:09Z</time>
      </trkpt>
      <trkpt lat="45.35629" lon="5.90102">
        <ele>1562.4580078125</ele>
        <time>2017-02-10T08:32:14Z</time>
      </trkpt>
      <trkpt lat="45.35621" lon="5.90123">
        <ele>1554.4580078125</ele>
        <time>2017-02-10T08:32:22Z</time>
      </trkpt>
      <trkpt lat="45.35619" lon="5.90135">
        <ele>1546.4580078125</ele>
        <time>2017-02-10T08:32:27Z</time>
      </trkpt>
      <trkpt lat="45.35616" lon="5.90148">
        <ele>1542.4580078125</ele>
        <time>2017-02-10T08:32:30Z</time>
      </trkpt>
      <trkpt lat="45.35611" lon="5.90173">
        <ele>1538.4580078125</ele>
        <time>2017-02-10T08:32:34Z</time>
      </trkpt>
      <trkpt lat="45.35603" lon="5.90186">
        <ele>1525.4580078125</ele>
        <time>2017-02-10T08:32:41Z</time>
      </trkpt>
      <trkpt lat="45.35587" lon="5.9019">
        <ele>1513.4580078125</ele>
        <time>2017-02-10T08:32:49Z</time>
      </trkpt>
      <trkpt lat="45.35569" lon="5.902">
        <ele>1508.4580078125</ele>
        <time>2017-02-10T08:32:57Z</time>
      </trkpt>
      <trkpt lat="45.35559" lon="5.90216">
        <ele>1502.4580078125</ele>
        <time>2017-02-10T08:33:05Z</time>
      </trkpt>
      <trkpt lat="45.35553" lon="5.90224">
        <ele>1501.4580078125</ele>
        <time>2017-02-10T08:33:15Z</time>
      </trkpt>
      <trkpt lat="45.35547" lon="5.90236">
        <ele>1499.4580078125</ele>
        <time>2017-02-10T08:34:03Z</time>
      </trkpt>
      <trkpt lat="45.35534" lon="5.90248">
        <ele>1487.4580078125</ele>
        <time>2017-02-10T08:35:22Z</time>
      </trkpt>
      <trkpt lat="45.35524" lon="5.90242">
        <ele>1484.4580078125</ele>
        <time>2017-02-10T08:38:06Z</time>
      </trkpt>
      <trkpt lat="45.35516" lon="5.90223">
        <ele>1471.4580078125</ele>
        <time>2017-02-10T08:38:15Z</time>
      </trkpt>
      <trkpt lat="45.35513" lon="5.90214">
        <ele>1471.4580078125</ele>
        <time>2017-02-10T08:38:21Z</time>
      </trkpt>
      <trkpt lat="45.35507" lon="5.90205">
        <ele>1472.4580078125</ele>
        <time>2017-02-10T08:38:30Z</time>
      </trkpt>
      <trkpt lat="45.35504" lon="5.90195">
        <ele>1468.4580078125</ele>
        <time>2017-02-10T08:38:36Z</time>
      </trkpt>
      <trkpt lat="45.35501" lon="5.90185">
        <ele>1469.4580078125</ele>
        <time>2017-02-10T08:38:43Z</time>
      </trkpt>
      <trkpt lat="45.35499" lon="5.90175">
        <ele>1468.4580078125</ele>
        <time>2017-02-10T08:38:52Z</time>
      </trkpt>
      <trkpt lat="45.35502" lon="5.90165">
        <ele>1471.4580078125</ele>
        <time>2017-02-10T08:39:01Z</time>
      </trkpt>
      <trkpt lat="45.35507" lon="5.90158">
        <ele>1471.4580078125</ele>
        <time>2017-02-10T08:39:10Z</time>
      </trkpt>
      <trkpt lat="45.35514" lon="5.90155">
        <ele>1471.4580078125</ele>
        <time>2017-02-10T08:39:20Z</time>
      </trkpt>
      <trkpt lat="45.35522" lon="5.90158">
        <ele>1473.4580078125</ele>
        <time>2017-02-10T08:39:29Z</time>
      </trkpt>
      <trkpt lat="45.3553" lon="5.90161">
        <ele>1477.4580078125</ele>
        <time>2017-02-10T08:39:52Z</time>
      </trkpt>
      <trkpt lat="45.35537" lon="5.90158">
        <ele>1475.4580078125</ele>
        <time>2017-02-10T08:39:57Z</time>
      </trkpt>
      <trkpt lat="45.35546" lon="5.90161">
        <ele>1477.4580078125</ele>
        <time>2017-02-10T08:40:03Z</time>
      </trkpt>
      <trkpt lat="45.35554" lon="5.90163">
        <ele>1474.4580078125</ele>
        <time>2017-02-10T08:40:08Z</time>
      </trkpt>
      <trkpt lat="45.35562" lon="5.90161">
        <ele>1473.4580078125</ele>
        <time>2017-02-10T08:40:16Z</time>
      </trkpt>
      <trkpt lat="45.35571" lon="5.90161">
        <ele>1479.4580078125</ele>
        <time>2017-02-10T08:40:23Z</time>
      </trkpt>
      <trkpt lat="45.35584" lon="5.9016">
        <ele>1484.4580078125</ele>
        <time>2017-02-10T08:40:38Z</time>
      </trkpt>
      <trkpt lat="45.35593" lon="5.90165">
        <ele>1487.4580078125</ele>
        <time>2017-02-10T08:40:49Z</time>
      </trkpt>
      <trkpt lat="45.35594" lon="5.9015">
        <ele>1486.4580078125</ele>
        <time>2017-02-10T08:40:51Z</time>
      </trkpt>
      <trkpt lat="45.35602" lon="5.90148">
        <ele>1482.4580078125</ele>
        <time>2017-02-10T08:40:59Z</time>
      </trkpt>
      <trkpt lat="45.3561" lon="5.90152">
        <ele>1482.4580078125</ele>
        <time>2017-02-10T08:41:08Z</time>
      </trkpt>
      <trkpt lat="45.35617" lon="5.90158">
        <ele>1496.4580078125</ele>
        <time>2017-02-10T08:41:24Z</time>
      </trkpt>
      <trkpt lat="45.35626" lon="5.90159">
        <ele>1501.4580078125</ele>
        <time>2017-02-10T08:41:31Z</time>
      </trkpt>
      <trkpt lat="45.35645" lon="5.9015">
        <ele>1505.4580078125</ele>
        <time>2017-02-10T08:41:44Z</time>
      </trkpt>
      <trkpt lat="45.35638" lon="5.9015">
        <ele>1504.4580078125</ele>
        <time>2017-02-10T08:41:47Z</time>
      </trkpt>
      <trkpt lat="45.35646" lon="5.90148">
        <ele>1511.4580078125</ele>
        <time>2017-02-10T08:43:23Z</time>
      </trkpt>
      <trkpt lat="45.3566" lon="5.90148">
        <ele>1521.4580078125</ele>
        <time>2017-02-10T08:43:31Z</time>
      </trkpt>
      <trkpt lat="45.35667" lon="5.90151">
        <ele>1523.4580078125</ele>
        <time>2017-02-10T08:43:37Z</time>
      </trkpt>
      <trkpt lat="45.35674" lon="5.90147">
        <ele>1519.4580078125</ele>
        <time>2017-02-10T08:43:45Z</time>
      </trkpt>
      <trkpt lat="45.35674" lon="5.90135">
        <ele>1526.4580078125</ele>
        <time>2017-02-10T08:44:05Z</time>
      </trkpt>
      <trkpt lat="45.3567" lon="5.90126">
        <ele>1532.4580078125</ele>
        <time>2017-02-10T08:44:21Z</time>
      </trkpt>
      <trkpt lat="45.35668" lon="5.90116">
        <ele>1535.4580078125</ele>
        <time>2017-02-10T08:44:31Z</time>
      </trkpt>
      <trkpt lat="45.35663" lon="5.90108">
        <ele>1541.4580078125</ele>
        <time>2017-02-10T08:44:42Z</time>
      </trkpt>
      <trkpt lat="45.35657" lon="5.90098">
        <ele>1547.4580078125</ele>
        <time>2017-02-10T08:44:55Z</time>
      </trkpt>
      <trkpt lat="45.35652" lon="5.9009">
        <ele>1549.4580078125</ele>
        <time>2017-02-10T08:45:05Z</time>
      </trkpt>
      <trkpt lat="45.35647" lon="5.9008">
        <ele>1551.4580078125</ele>
        <time>2017-02-10T08:45:14Z</time>
      </trkpt>
      <trkpt lat="45.35642" lon="5.90073">
        <ele>1553.4580078125</ele>
        <time>2017-02-10T08:45:26Z</time>
      </trkpt>
      <trkpt lat="45.35638" lon="5.90061">
        <ele>1550.4580078125</ele>
        <time>2017-02-10T08:45:34Z</time>
      </trkpt>
      <trkpt lat="45.35633" lon="5.90052">
        <ele>1551.4580078125</ele>
        <time>2017-02-10T08:45:41Z</time>
      </trkpt>
      <trkpt lat="45.35628" lon="5.90043">
        <ele>1552.4580078125</ele>
        <time>2017-02-10T08:45:50Z</time>
      </trkpt>
      <trkpt lat="45.35624" lon="5.90028">
        <ele>1551.4580078125</ele>
        <time>2017-02-10T08:46:15Z</time>
      </trkpt>
      <trkpt lat="45.3562" lon="5.90008">
        <ele>1553.4580078125</ele>
        <time>2017-02-10T08:46:24Z</time>
      </trkpt>
      <trkpt lat="45.3562" lon="5.89996">
        <ele>1554.4580078125</ele>
        <time>2017-02-10T08:46:32Z</time>
      </trkpt>
      <trkpt lat="45.35619" lon="5.89984">
        <ele>1558.4580078125</ele>
        <time>2017-02-10T08:46:51Z</time>
      </trkpt>
      <trkpt lat="45.3562" lon="5.89973">
        <ele>1562.4580078125</ele>
        <time>2017-02-10T08:46:59Z</time>
      </trkpt>
      <trkpt lat="45.35622" lon="5.89963">
        <ele>1565.4580078125</ele>
        <time>2017-02-10T08:47:09Z</time>
      </trkpt>
      <trkpt lat="45.35624" lon="5.89951">
        <ele>1570.4580078125</ele>
        <time>2017-02-10T08:47:25Z</time>
      </trkpt>
      <trkpt lat="45.35622" lon="5.8994">
        <ele>1570.4580078125</ele>
        <time>2017-02-10T08:47:34Z</time>
      </trkpt>
      <trkpt lat="45.35629" lon="5.89936">
        <ele>1573.4580078125</ele>
        <time>2017-02-10T08:47:45Z</time>
      </trkpt>
      <trkpt lat="45.35627" lon="5.89925">
        <ele>1582.4580078125</ele>
        <time>2017-02-10T08:48:01Z</time>
      </trkpt>
      <trkpt lat="45.35633" lon="5.89916">
        <ele>1584.4580078125</ele>
        <time>2017-02-10T08:48:18Z</time>
      </trkpt>
      <trkpt lat="45.35636" lon="5.89905">
        <ele>1589.4580078125</ele>
        <time>2017-02-10T08:48:27Z</time>
      </trkpt>
      <trkpt lat="45.35636" lon="5.89893">
        <ele>1590.4580078125</ele>
        <time>2017-02-10T08:48:37Z</time>
      </trkpt>
      <trkpt lat="45.35634" lon="5.89883">
        <ele>1593.4580078125</ele>
        <time>2017-02-10T08:48:46Z</time>
      </trkpt>
      <trkpt lat="45.35634" lon="5.89871">
        <ele>1597.4580078125</ele>
        <time>2017-02-10T08:48:58Z</time>
      </trkpt>
      <trkpt lat="45.3563" lon="5.89863">
        <ele>1601.4580078125</ele>
        <time>2017-02-10T08:49:19Z</time>
      </trkpt>
      <trkpt lat="45.35626" lon="5.89854">
        <ele>1605.4580078125</ele>
        <time>2017-02-10T08:49:24Z</time>
      </trkpt>
      <trkpt lat="45.35622" lon="5.89844">
        <ele>1604.4580078125</ele>
        <time>2017-02-10T08:49:29Z</time>
      </trkpt>
      <trkpt lat="45.35631" lon="5.8984">
        <ele>1611.4580078125</ele>
        <time>2017-02-10T08:49:53Z</time>
      </trkpt>
      <trkpt lat="45.35634" lon="5.89831">
        <ele>1612.4580078125</ele>
        <time>2017-02-10T08:50:03Z</time>
      </trkpt>
      <trkpt lat="45.35631" lon="5.8982">
        <ele>1615.4580078125</ele>
        <time>2017-02-10T08:50:13Z</time>
      </trkpt>
      <trkpt lat="45.35628" lon="5.8981">
        <ele>1620.4580078125</ele>
        <time>2017-02-10T08:50:26Z</time>
      </trkpt>
      <trkpt lat="45.35624" lon="5.89801">
        <ele>1621.4580078125</ele>
        <time>2017-02-10T08:50:45Z</time>
      </trkpt>
      <trkpt lat="45.35622" lon="5.8979">
        <ele>1623.4580078125</ele>
        <time>2017-02-10T08:50:52Z</time>
      </trkpt>
      <trkpt lat="45.35623" lon="5.8978">
        <ele>1623.4580078125</ele>
        <time>2017-02-10T08:51:00Z</time>
      </trkpt>
      <trkpt lat="45.35626" lon="5.89769">
        <ele>1622.4580078125</ele>
        <time>2017-02-10T08:51:11Z</time>
      </trkpt>
      <trkpt lat="45.35626" lon="5.89758">
        <ele>1623.4580078125</ele>
        <time>2017-02-10T08:51:20Z</time>
      </trkpt>
      <trkpt lat="45.35621" lon="5.89751">
        <ele>1629.4580078125</ele>
        <time>2017-02-10T08:51:30Z</time>
      </trkpt>
      <trkpt lat="45.35619" lon="5.8974">
        <ele>1630.4580078125</ele>
        <time>2017-02-10T08:51:43Z</time>
      </trkpt>
      <trkpt lat="45.35616" lon="5.89731">
        <ele>1635.4580078125</ele>
        <time>2017-02-10T08:51:51Z</time>
      </trkpt>
      <trkpt lat="45.35613" lon="5.8972">
        <ele>1639.4580078125</ele>
        <time>2017-02-10T08:52:06Z</time>
      </trkpt>
      <trkpt lat="45.35615" lon="5.8971">
        <ele>1642.4580078125</ele>
        <time>2017-02-10T08:52:26Z</time>
      </trkpt>
      <trkpt lat="45.35615" lon="5.89698">
        <ele>1648.4580078125</ele>
        <time>2017-02-10T08:52:35Z</time>
      </trkpt>
      <trkpt lat="45.35617" lon="5.89687">
        <ele>1651.4580078125</ele>
        <time>2017-02-10T08:53:27Z</time>
      </trkpt>
      <trkpt lat="45.35614" lon="5.89676">
        <ele>1651.4580078125</ele>
        <time>2017-02-10T08:53:33Z</time>
      </trkpt>
      <trkpt lat="45.35618" lon="5.89665">
        <ele>1658.4580078125</ele>
        <time>2017-02-10T08:53:48Z</time>
      </trkpt>
      <trkpt lat="45.35617" lon="5.89655">
        <ele>1661.4580078125</ele>
        <time>2017-02-10T08:53:59Z</time>
      </trkpt>
      <trkpt lat="45.35614" lon="5.89645">
        <ele>1664.4580078125</ele>
        <time>2017-02-10T08:54:08Z</time>
      </trkpt>
      <trkpt lat="45.35621" lon="5.8964">
        <ele>1664.4580078125</ele>
        <time>2017-02-10T08:54:30Z</time>
      </trkpt>
      <trkpt lat="45.35626" lon="5.89648">
        <ele>1672.4580078125</ele>
        <time>2017-02-10T08:54:38Z</time>
      </trkpt>
      <trkpt lat="45.35635" lon="5.8965">
        <ele>1674.4580078125</ele>
        <time>2017-02-10T08:54:54Z</time>
      </trkpt>
      <trkpt lat="45.35644" lon="5.89648">
        <ele>1678.4580078125</ele>
        <time>2017-02-10T08:55:15Z</time>
      </trkpt>
      <trkpt lat="45.35642" lon="5.89639">
        <ele>1689.4580078125</ele>
        <time>2017-02-10T08:55:35Z</time>
      </trkpt>
      <trkpt lat="45.35646" lon="5.8963">
        <ele>1692.4580078125</ele>
        <time>2017-02-10T08:55:50Z</time>
      </trkpt>
      <trkpt lat="45.35648" lon="5.8962">
        <ele>1698.4580078125</ele>
        <time>2017-02-10T08:56:11Z</time>
      </trkpt>
      <trkpt lat="45.35647" lon="5.89608">
        <ele>1701.4580078125</ele>
        <time>2017-02-10T08:56:27Z</time>
      </trkpt>
      <trkpt lat="45.35644" lon="5.89598">
        <ele>1702.4580078125</ele>
        <time>2017-02-10T08:56:37Z</time>
      </trkpt>
      <trkpt lat="45.35639" lon="5.8959">
        <ele>1705.4580078125</ele>
        <time>2017-02-10T08:56:47Z</time>
      </trkpt>
      <trkpt lat="45.35632" lon="5.89586">
        <ele>1710.4580078125</ele>
        <time>2017-02-10T08:57:00Z</time>
      </trkpt>
      <trkpt lat="45.35629" lon="5.89577">
        <ele>1713.45703125</ele>
        <time>2017-02-10T08:57:09Z</time>
      </trkpt>
      <trkpt lat="45.35635" lon="5.89572">
        <ele>1714.45703125</ele>
        <time>2017-02-10T08:57:20Z</time>
      </trkpt>
      <trkpt lat="45.35642" lon="5.89576">
        <ele>1719.4580078125</ele>
        <time>2017-02-10T08:57:29Z</time>
      </trkpt>
      <trkpt lat="45.3565" lon="5.8958">
        <ele>1724.4580078125</ele>
        <time>2017-02-10T08:57:47Z</time>
      </trkpt>
      <trkpt lat="45.35658" lon="5.89578">
        <ele>1724.4580078125</ele>
        <time>2017-02-10T08:57:55Z</time>
      </trkpt>
      <trkpt lat="45.35653" lon="5.89569">
        <ele>1728.4580078125</ele>
        <time>2017-02-10T08:58:15Z</time>
      </trkpt>
      <trkpt lat="45.35648" lon="5.89562">
        <ele>1728.45703125</ele>
        <time>2017-02-10T08:58:22Z</time>
      </trkpt>
      <trkpt lat="45.35645" lon="5.89552">
        <ele>1734.45703125</ele>
        <time>2017-02-10T08:58:36Z</time>
      </trkpt>
      <trkpt lat="45.35652" lon="5.89551">
        <ele>1735.45703125</ele>
        <time>2017-02-10T08:58:51Z</time>
      </trkpt>
      <trkpt lat="45.35659" lon="5.89555">
        <ele>1737.4580078125</ele>
        <time>2017-02-10T08:59:00Z</time>
      </trkpt>
      <trkpt lat="45.35666" lon="5.89558">
        <ele>1738.4580078125</ele>
        <time>2017-02-10T08:59:23Z</time>
      </trkpt>
      <trkpt lat="45.35671" lon="5.89565">
        <ele>1747.4580078125</ele>
        <time>2017-02-10T08:59:36Z</time>
      </trkpt>
      <trkpt lat="45.35677" lon="5.89572">
        <ele>1751.4580078125</ele>
        <time>2017-02-10T08:59:49Z</time>
      </trkpt>
      <trkpt lat="45.35685" lon="5.89574">
        <ele>1753.4580078125</ele>
        <time>2017-02-10T09:00:15Z</time>
      </trkpt>
      <trkpt lat="45.35685" lon="5.89563">
        <ele>1762.4580078125</ele>
        <time>2017-02-10T09:00:32Z</time>
      </trkpt>
      <trkpt lat="45.35682" lon="5.89553">
        <ele>1767.4580078125</ele>
        <time>2017-02-10T09:00:41Z</time>
      </trkpt>
      <trkpt lat="45.35676" lon="5.89549">
        <ele>1775.4580078125</ele>
        <time>2017-02-10T09:00:51Z</time>
      </trkpt>
      <trkpt lat="45.35684" lon="5.89552">
        <ele>1780.4580078125</ele>
        <time>2017-02-10T09:01:19Z</time>
      </trkpt>
      <trkpt lat="45.3569" lon="5.89558">
        <ele>1782.4580078125</ele>
        <time>2017-02-10T09:01:32Z</time>
      </trkpt>
      <trkpt lat="45.35696" lon="5.89564">
        <ele>1783.4580078125</ele>
        <time>2017-02-10T09:01:49Z</time>
      </trkpt>
      <trkpt lat="45.35699" lon="5.89553">
        <ele>1783.4580078125</ele>
        <time>2017-02-10T09:02:04Z</time>
      </trkpt>
      <trkpt lat="45.357" lon="5.89542">
        <ele>1781.4580078125</ele>
        <time>2017-02-10T09:02:11Z</time>
      </trkpt>
      <trkpt lat="45.35708" lon="5.89541">
        <ele>1783.4580078125</ele>
        <time>2017-02-10T09:02:33Z</time>
      </trkpt>
      <trkpt lat="45.35711" lon="5.89552">
        <ele>1787.4580078125</ele>
        <time>2017-02-10T09:02:41Z</time>
      </trkpt>
      <trkpt lat="45.35712" lon="5.89562">
        <ele>1788.4580078125</ele>
        <time>2017-02-10T09:02:46Z</time>
      </trkpt>
      <trkpt lat="45.35717" lon="5.8957">
        <ele>1790.4580078125</ele>
        <time>2017-02-10T09:02:53Z</time>
      </trkpt>
      <trkpt lat="45.35723" lon="5.89576">
        <ele>1791.4580078125</ele>
        <time>2017-02-10T09:03:01Z</time>
      </trkpt>
      <trkpt lat="45.35728" lon="5.89583">
        <ele>1791.4580078125</ele>
        <time>2017-02-10T09:03:14Z</time>
      </trkpt>
      <trkpt lat="45.35731" lon="5.89594">
        <ele>1793.4580078125</ele>
        <time>2017-02-10T09:03:22Z</time>
      </trkpt>
      <trkpt lat="45.35734" lon="5.89604">
        <ele>1798.4580078125</ele>
        <time>2017-02-10T09:03:29Z</time>
      </trkpt>
      <trkpt lat="45.35736" lon="5.89619">
        <ele>1802.4580078125</ele>
        <time>2017-02-10T09:03:38Z</time>
      </trkpt>
      <trkpt lat="45.35744" lon="5.8962">
        <ele>1801.4580078125</ele>
        <time>2017-02-10T09:03:45Z</time>
      </trkpt>
      <trkpt lat="45.35753" lon="5.89622">
        <ele>1802.4580078125</ele>
        <time>2017-02-10T09:03:50Z</time>
      </trkpt>
      <trkpt lat="45.35745" lon="5.89638">
        <ele>1797.4580078125</ele>
        <time>2017-02-10T09:03:57Z</time>
      </trkpt>
      <trkpt lat="45.35734" lon="5.89652">
        <ele>1800.4580078125</ele>
        <time>2017-02-10T09:04:00Z</time>
      </trkpt>
      <trkpt lat="45.35726" lon="5.89661">
        <ele>1802.4580078125</ele>
        <time>2017-02-10T09:04:01Z</time>
      </trkpt>
      <trkpt lat="45.35717" lon="5.89676">
        <ele>1802.4580078125</ele>
        <time>2017-02-10T09:04:05Z</time>
      </trkpt>
      <trkpt lat="45.35726" lon="5.89667">
        <ele>1801.4580078125</ele>
        <time>2017-02-10T09:04:07Z</time>
      </trkpt>
      <trkpt lat="45.35734" lon="5.89668">
        <ele>1801.4580078125</ele>
        <time>2017-02-10T09:04:12Z</time>
      </trkpt>
      <trkpt lat="45.35725" lon="5.89677">
        <ele>1802.4580078125</ele>
        <time>2017-02-10T09:04:13Z</time>
      </trkpt>
      <trkpt lat="45.35741" lon="5.89663">
        <ele>1801.4580078125</ele>
        <time>2017-02-10T09:04:14Z</time>
      </trkpt>
      <trkpt lat="45.35738" lon="5.89672">
        <ele>1801.4580078125</ele>
        <time>2017-02-10T09:04:18Z</time>
      </trkpt>
      <trkpt lat="45.35746" lon="5.8967">
        <ele>1800.4580078125</ele>
        <time>2017-02-10T09:04:21Z</time>
      </trkpt>
      <trkpt lat="45.35751" lon="5.89678">
        <ele>1799.4580078125</ele>
        <time>2017-02-10T09:04:28Z</time>
      </trkpt>
      <trkpt lat="45.35751" lon="5.89689">
        <ele>1798.4580078125</ele>
        <time>2017-02-10T09:04:37Z</time>
      </trkpt>
      <trkpt lat="45.35751" lon="5.89699">
        <ele>1800.4580078125</ele>
        <time>2017-02-10T09:04:44Z</time>
      </trkpt>
      <trkpt lat="45.35747" lon="5.89708">
        <ele>1798.4580078125</ele>
        <time>2017-02-10T09:04:52Z</time>
      </trkpt>
      <trkpt lat="45.35747" lon="5.89718">
        <ele>1801.4580078125</ele>
        <time>2017-02-10T09:05:00Z</time>
      </trkpt>
      <trkpt lat="45.35745" lon="5.8973">
        <ele>1802.4580078125</ele>
        <time>2017-02-10T09:05:10Z</time>
      </trkpt>
      <trkpt lat="45.35744" lon="5.89741">
        <ele>1801.4580078125</ele>
        <time>2017-02-10T09:05:18Z</time>
      </trkpt>
      <trkpt lat="45.35744" lon="5.89752">
        <ele>1800.4580078125</ele>
        <time>2017-02-10T09:05:28Z</time>
      </trkpt>
      <trkpt lat="45.35742" lon="5.89762">
        <ele>1804.4580078125</ele>
        <time>2017-02-10T09:05:35Z</time>
      </trkpt>
      <trkpt lat="45.35747" lon="5.89771">
        <ele>1805.4580078125</ele>
        <time>2017-02-10T09:05:42Z</time>
      </trkpt>
      <trkpt lat="45.35753" lon="5.89778">
        <ele>1806.4580078125</ele>
        <time>2017-02-10T09:05:49Z</time>
      </trkpt>
      <trkpt lat="45.35759" lon="5.89783">
        <ele>1809.4580078125</ele>
        <time>2017-02-10T09:05:56Z</time>
      </trkpt>
      <trkpt lat="45.35764" lon="5.89791">
        <ele>1811.4580078125</ele>
        <time>2017-02-10T09:06:05Z</time>
      </trkpt>
      <trkpt lat="45.35771" lon="5.89795">
        <ele>1811.4580078125</ele>
        <time>2017-02-10T09:06:13Z</time>
      </trkpt>
      <trkpt lat="45.3578" lon="5.89795">
        <ele>1812.4580078125</ele>
        <time>2017-02-10T09:06:22Z</time>
      </trkpt>
      <trkpt lat="45.35785" lon="5.89785">
        <ele>1808.4580078125</ele>
        <time>2017-02-10T09:06:27Z</time>
      </trkpt>
      <trkpt lat="45.35791" lon="5.89778">
        <ele>1809.4580078125</ele>
        <time>2017-02-10T09:06:33Z</time>
      </trkpt>
      <trkpt lat="45.35795" lon="5.89769">
        <ele>1808.4580078125</ele>
        <time>2017-02-10T09:06:39Z</time>
      </trkpt>
      <trkpt lat="45.35806" lon="5.89751">
        <ele>1804.4580078125</ele>
        <time>2017-02-10T09:06:46Z</time>
      </trkpt>
      <trkpt lat="45.35812" lon="5.89746">
        <ele>1805.4580078125</ele>
        <time>2017-02-10T09:06:51Z</time>
      </trkpt>
      <trkpt lat="45.3582" lon="5.89742">
        <ele>1809.4580078125</ele>
        <time>2017-02-10T09:07:01Z</time>
      </trkpt>
      <trkpt lat="45.35828" lon="5.89743">
        <ele>1809.4580078125</ele>
        <time>2017-02-10T09:07:07Z</time>
      </trkpt>
      <trkpt lat="45.35822" lon="5.89735">
        <ele>1806.4580078125</ele>
        <time>2017-02-10T09:07:29Z</time>
      </trkpt>
      <trkpt lat="45.35815" lon="5.89732">
        <ele>1809.4580078125</ele>
        <time>2017-02-10T09:07:39Z</time>
      </trkpt>
      <trkpt lat="45.35808" lon="5.89736">
        <ele>1815.4580078125</ele>
        <time>2017-02-10T09:07:58Z</time>
      </trkpt>
      <trkpt lat="45.3581" lon="5.89725">
        <ele>1818.4580078125</ele>
        <time>2017-02-10T09:08:34Z</time>
      </trkpt>
      <trkpt lat="45.35811" lon="5.89712">
        <ele>1817.4580078125</ele>
        <time>2017-02-10T09:08:40Z</time>
      </trkpt>
      <trkpt lat="45.35809" lon="5.89702">
        <ele>1820.4580078125</ele>
        <time>2017-02-10T09:08:46Z</time>
      </trkpt>
      <trkpt lat="45.35809" lon="5.89691">
        <ele>1827.4580078125</ele>
        <time>2017-02-10T09:09:27Z</time>
      </trkpt>
      <trkpt lat="45.35808" lon="5.8968">
        <ele>1833.4580078125</ele>
        <time>2017-02-10T09:09:38Z</time>
      </trkpt>
      <trkpt lat="45.35801" lon="5.89674">
        <ele>1838.4580078125</ele>
        <time>2017-02-10T09:09:58Z</time>
      </trkpt>
      <trkpt lat="45.35796" lon="5.89681">
        <ele>1839.4580078125</ele>
        <time>2017-02-10T09:10:43Z</time>
      </trkpt>
      <trkpt lat="45.35789" lon="5.89686">
        <ele>1843.4580078125</ele>
        <time>2017-02-10T09:11:32Z</time>
      </trkpt>
      <trkpt lat="45.35782" lon="5.89688">
        <ele>1847.4580078125</ele>
        <time>2017-02-10T09:12:09Z</time>
      </trkpt>
      <trkpt lat="45.35774" lon="5.89686">
        <ele>1852.4580078125</ele>
        <time>2017-02-10T09:12:46Z</time>
      </trkpt>
      <trkpt lat="45.35767" lon="5.89684">
        <ele>1862.4580078125</ele>
        <time>2017-02-10T09:18:09Z</time>
      </trkpt>
      <trkpt lat="45.35772" lon="5.89675">
        <ele>1860.4580078125</ele>
        <time>2017-02-10T09:18:25Z</time>
      </trkpt>
      <trkpt lat="45.35779" lon="5.89668">
        <ele>1853.4580078125</ele>
        <time>2017-02-10T09:18:33Z</time>
      </trkpt>
      <trkpt lat="45.358" lon="5.89647">
        <ele>1840.4580078125</ele>
        <time>2017-02-10T09:18:39Z</time>
      </trkpt>
      <trkpt lat="45.35829" lon="5.89625">
        <ele>1832.4580078125</ele>
        <time>2017-02-10T09:18:45Z</time>
      </trkpt>
      <trkpt lat="45.35845" lon="5.89589">
        <ele>1817.4580078125</ele>
        <time>2017-02-10T09:18:51Z</time>
      </trkpt>
      <trkpt lat="45.35866" lon="5.89545">
        <ele>1805.4580078125</ele>
        <time>2017-02-10T09:18:57Z</time>
      </trkpt>
      <trkpt lat="45.35873" lon="5.89539">
        <ele>1797.4580078125</ele>
        <time>2017-02-10T09:18:59Z</time>
      </trkpt>
      <trkpt lat="45.35887" lon="5.89524">
        <ele>1775.4580078125</ele>
        <time>2017-02-10T09:19:04Z</time>
      </trkpt>
      <trkpt lat="45.35901" lon="5.8949">
        <ele>1758.4580078125</ele>
        <time>2017-02-10T09:19:11Z</time>
      </trkpt>
      <trkpt lat="45.35899" lon="5.8948">
        <ele>1751.4580078125</ele>
        <time>2017-02-10T09:19:15Z</time>
      </trkpt>
      <trkpt lat="45.35898" lon="5.89469">
        <ele>1744.4580078125</ele>
        <time>2017-02-10T09:20:38Z</time>
      </trkpt>
      <trkpt lat="45.35897" lon="5.89458">
        <ele>1744.4580078125</ele>
        <time>2017-02-10T09:20:51Z</time>
      </trkpt>
      <trkpt lat="45.35893" lon="5.8945">
        <ele>1743.4580078125</ele>
        <time>2017-02-10T09:22:33Z</time>
      </trkpt>
      <trkpt lat="45.35888" lon="5.89443">
        <ele>1743.4580078125</ele>
        <time>2017-02-10T09:25:14Z</time>
      </trkpt>
      <trkpt lat="45.35881" lon="5.89436">
        <ele>1745.4580078125</ele>
        <time>2017-02-10T09:25:22Z</time>
      </trkpt>
      <trkpt lat="45.35874" lon="5.8943">
        <ele>1748.4580078125</ele>
        <time>2017-02-10T09:25:30Z</time>
      </trkpt>
      <trkpt lat="45.35866" lon="5.89427">
        <ele>1750.4580078125</ele>
        <time>2017-02-10T09:25:39Z</time>
      </trkpt>
      <trkpt lat="45.3586" lon="5.89424">
        <ele>1749.4580078125</ele>
        <time>2017-02-10T09:25:48Z</time>
      </trkpt>
      <trkpt lat="45.35852" lon="5.8942">
        <ele>1752.4580078125</ele>
        <time>2017-02-10T09:25:57Z</time>
      </trkpt>
      <trkpt lat="45.35846" lon="5.89413">
        <ele>1751.4580078125</ele>
        <time>2017-02-10T09:26:06Z</time>
      </trkpt>
      <trkpt lat="45.35839" lon="5.89411">
        <ele>1752.4580078125</ele>
        <time>2017-02-10T09:26:16Z</time>
      </trkpt>
      <trkpt lat="45.35832" lon="5.89407">
        <ele>1752.4580078125</ele>
        <time>2017-02-10T09:26:27Z</time>
      </trkpt>
      <trkpt lat="45.35825" lon="5.89402">
        <ele>1750.4580078125</ele>
        <time>2017-02-10T09:26:35Z</time>
      </trkpt>
      <trkpt lat="45.35819" lon="5.89396">
        <ele>1752.4580078125</ele>
        <time>2017-02-10T09:26:48Z</time>
      </trkpt>
      <trkpt lat="45.35811" lon="5.89393">
        <ele>1754.4580078125</ele>
        <time>2017-02-10T09:26:56Z</time>
      </trkpt>
      <trkpt lat="45.35806" lon="5.89386">
        <ele>1752.4580078125</ele>
        <time>2017-02-10T09:27:05Z</time>
      </trkpt>
      <trkpt lat="45.35799" lon="5.8938">
        <ele>1754.4580078125</ele>
        <time>2017-02-10T09:27:14Z</time>
      </trkpt>
      <trkpt lat="45.35792" lon="5.89375">
        <ele>1755.4580078125</ele>
        <time>2017-02-10T09:27:23Z</time>
      </trkpt>
      <trkpt lat="45.35784" lon="5.89371">
        <ele>1756.4580078125</ele>
        <time>2017-02-10T09:27:42Z</time>
      </trkpt>
      <trkpt lat="45.35778" lon="5.89365">
        <ele>1755.4580078125</ele>
        <time>2017-02-10T09:27:50Z</time>
      </trkpt>
      <trkpt lat="45.35774" lon="5.89356">
        <ele>1756.45703125</ele>
        <time>2017-02-10T09:27:58Z</time>
      </trkpt>
      <trkpt lat="45.35766" lon="5.89354">
        <ele>1762.45703125</ele>
        <time>2017-02-10T09:28:10Z</time>
      </trkpt>
      <trkpt lat="45.3576" lon="5.89348">
        <ele>1764.45703125</ele>
        <time>2017-02-10T09:28:24Z</time>
      </trkpt>
      <trkpt lat="45.35754" lon="5.8934">
        <ele>1763.45703125</ele>
        <time>2017-02-10T09:28:41Z</time>
      </trkpt>
      <trkpt lat="45.35749" lon="5.89333">
        <ele>1765.45703125</ele>
        <time>2017-02-10T09:28:48Z</time>
      </trkpt>
      <trkpt lat="45.35741" lon="5.89327">
        <ele>1767.45703125</ele>
        <time>2017-02-10T09:28:56Z</time>
      </trkpt>
      <trkpt lat="45.35734" lon="5.89322">
        <ele>1767.45703125</ele>
        <time>2017-02-10T09:29:12Z</time>
      </trkpt>
      <trkpt lat="45.35728" lon="5.89314">
        <ele>1769.45703125</ele>
        <time>2017-02-10T09:29:20Z</time>
      </trkpt>
      <trkpt lat="45.35723" lon="5.89305">
        <ele>1766.45703125</ele>
        <time>2017-02-10T09:29:26Z</time>
      </trkpt>
      <trkpt lat="45.35717" lon="5.89298">
        <ele>1767.45703125</ele>
        <time>2017-02-10T09:29:32Z</time>
      </trkpt>
      <trkpt lat="45.3571" lon="5.89294">
        <ele>1767.45703125</ele>
        <time>2017-02-10T09:29:41Z</time>
      </trkpt>
      <trkpt lat="45.35703" lon="5.8929">
        <ele>1764.45703125</ele>
        <time>2017-02-10T09:29:48Z</time>
      </trkpt>
      <trkpt lat="45.35697" lon="5.89283">
        <ele>1763.45703125</ele>
        <time>2017-02-10T09:29:57Z</time>
      </trkpt>
      <trkpt lat="45.3569" lon="5.89279">
        <ele>1763.45703125</ele>
        <time>2017-02-10T09:30:06Z</time>
      </trkpt>
      <trkpt lat="45.35684" lon="5.89272">
        <ele>1764.45703125</ele>
        <time>2017-02-10T09:30:14Z</time>
      </trkpt>
      <trkpt lat="45.35678" lon="5.89265">
        <ele>1765.45703125</ele>
        <time>2017-02-10T09:30:23Z</time>
      </trkpt>
      <trkpt lat="45.35671" lon="5.89261">
        <ele>1766.45703125</ele>
        <time>2017-02-10T09:30:31Z</time>
      </trkpt>
      <trkpt lat="45.35664" lon="5.89256">
        <ele>1764.45703125</ele>
        <time>2017-02-10T09:30:38Z</time>
      </trkpt>
      <trkpt lat="45.35658" lon="5.89249">
        <ele>1764.45703125</ele>
        <time>2017-02-10T09:30:45Z</time>
      </trkpt>
      <trkpt lat="45.35652" lon="5.89244">
        <ele>1764.45703125</ele>
        <time>2017-02-10T09:30:51Z</time>
      </trkpt>
      <trkpt lat="45.35646" lon="5.89236">
        <ele>1766.45703125</ele>
        <time>2017-02-10T09:30:57Z</time>
      </trkpt>
      <trkpt lat="45.3564" lon="5.89228">
        <ele>1765.45703125</ele>
        <time>2017-02-10T09:31:04Z</time>
      </trkpt>
      <trkpt lat="45.35634" lon="5.89218">
        <ele>1763.45703125</ele>
        <time>2017-02-10T09:31:10Z</time>
      </trkpt>
      <trkpt lat="45.35629" lon="5.89209">
        <ele>1763.45703125</ele>
        <time>2017-02-10T09:31:15Z</time>
      </trkpt>
      <trkpt lat="45.3562" lon="5.89192">
        <ele>1761.45703125</ele>
        <time>2017-02-10T09:31:25Z</time>
      </trkpt>
      <trkpt lat="45.35615" lon="5.89183">
        <ele>1761.45703125</ele>
        <time>2017-02-10T09:31:32Z</time>
      </trkpt>
      <trkpt lat="45.3561" lon="5.89176">
        <ele>1760.45703125</ele>
        <time>2017-02-10T09:31:38Z</time>
      </trkpt>
      <trkpt lat="45.35604" lon="5.89166">
        <ele>1759.45703125</ele>
        <time>2017-02-10T09:31:47Z</time>
      </trkpt>
      <trkpt lat="45.356" lon="5.89157">
        <ele>1757.45703125</ele>
        <time>2017-02-10T09:31:52Z</time>
      </trkpt>
      <trkpt lat="45.35594" lon="5.89148">
        <ele>1757.45703125</ele>
        <time>2017-02-10T09:32:00Z</time>
      </trkpt>
      <trkpt lat="45.35588" lon="5.89142">
        <ele>1757.45703125</ele>
        <time>2017-02-10T09:32:05Z</time>
      </trkpt>
      <trkpt lat="45.35583" lon="5.89134">
        <ele>1755.45703125</ele>
        <time>2017-02-10T09:32:12Z</time>
      </trkpt>
      <trkpt lat="45.35577" lon="5.89127">
        <ele>1759.45703125</ele>
        <time>2017-02-10T09:32:19Z</time>
      </trkpt>
      <trkpt lat="45.35572" lon="5.89119">
        <ele>1760.45703125</ele>
        <time>2017-02-10T09:32:26Z</time>
      </trkpt>
      <trkpt lat="45.35565" lon="5.89111">
        <ele>1757.45703125</ele>
        <time>2017-02-10T09:32:33Z</time>
      </trkpt>
      <trkpt lat="45.35559" lon="5.89103">
        <ele>1754.45703125</ele>
        <time>2017-02-10T09:32:42Z</time>
      </trkpt>
      <trkpt lat="45.35554" lon="5.89096">
        <ele>1752.45703125</ele>
        <time>2017-02-10T09:32:49Z</time>
      </trkpt>
      <trkpt lat="45.35548" lon="5.89086">
        <ele>1751.45703125</ele>
        <time>2017-02-10T09:32:54Z</time>
      </trkpt>
      <trkpt lat="45.35541" lon="5.89079">
        <ele>1751.45703125</ele>
        <time>2017-02-10T09:33:00Z</time>
      </trkpt>
      <trkpt lat="45.35535" lon="5.89072">
        <ele>1746.45703125</ele>
        <time>2017-02-10T09:33:08Z</time>
      </trkpt>
      <trkpt lat="45.35529" lon="5.89062">
        <ele>1746.45703125</ele>
        <time>2017-02-10T09:33:13Z</time>
      </trkpt>
      <trkpt lat="45.35519" lon="5.89046">
        <ele>1736.45703125</ele>
        <time>2017-02-10T09:33:24Z</time>
      </trkpt>
      <trkpt lat="45.35513" lon="5.89038">
        <ele>1736.45703125</ele>
        <time>2017-02-10T09:33:30Z</time>
      </trkpt>
      <trkpt lat="45.35503" lon="5.89021">
        <ele>1735.4560546875</ele>
        <time>2017-02-10T09:33:37Z</time>
      </trkpt>
      <trkpt lat="45.35498" lon="5.89011">
        <ele>1730.4560546875</ele>
        <time>2017-02-10T09:33:43Z</time>
      </trkpt>
      <trkpt lat="45.35491" lon="5.89003">
        <ele>1729.4560546875</ele>
        <time>2017-02-10T09:33:47Z</time>
      </trkpt>
      <trkpt lat="45.35478" lon="5.88989">
        <ele>1732.4560546875</ele>
        <time>2017-02-10T09:33:56Z</time>
      </trkpt>
      <trkpt lat="45.35472" lon="5.88983">
        <ele>1728.4560546875</ele>
        <time>2017-02-10T09:34:03Z</time>
      </trkpt>
      <trkpt lat="45.35465" lon="5.88979">
        <ele>1723.4560546875</ele>
        <time>2017-02-10T09:34:11Z</time>
      </trkpt>
      <trkpt lat="45.35459" lon="5.88973">
        <ele>1723.4560546875</ele>
        <time>2017-02-10T09:34:18Z</time>
      </trkpt>
      <trkpt lat="45.35451" lon="5.88969">
        <ele>1726.4560546875</ele>
        <time>2017-02-10T09:34:25Z</time>
      </trkpt>
      <trkpt lat="45.35446" lon="5.88962">
        <ele>1729.4560546875</ele>
        <time>2017-02-10T09:34:31Z</time>
      </trkpt>
      <trkpt lat="45.35439" lon="5.88957">
        <ele>1731.4560546875</ele>
        <time>2017-02-10T09:34:36Z</time>
      </trkpt>
      <trkpt lat="45.35432" lon="5.88952">
        <ele>1733.4560546875</ele>
        <time>2017-02-10T09:34:43Z</time>
      </trkpt>
      <trkpt lat="45.3543" lon="5.88942">
        <ele>1731.4560546875</ele>
        <time>2017-02-10T09:35:40Z</time>
      </trkpt>
      <trkpt lat="45.35425" lon="5.88932">
        <ele>1732.4560546875</ele>
        <time>2017-02-10T09:35:48Z</time>
      </trkpt>
      <trkpt lat="45.35419" lon="5.88925">
        <ele>1732.4560546875</ele>
        <time>2017-02-10T09:35:55Z</time>
      </trkpt>
      <trkpt lat="45.35411" lon="5.88918">
        <ele>1731.4560546875</ele>
        <time>2017-02-10T09:36:02Z</time>
      </trkpt>
      <trkpt lat="45.35405" lon="5.88913">
        <ele>1730.4560546875</ele>
        <time>2017-02-10T09:36:08Z</time>
      </trkpt>
      <trkpt lat="45.35399" lon="5.88906">
        <ele>1728.4560546875</ele>
        <time>2017-02-10T09:36:15Z</time>
      </trkpt>
      <trkpt lat="45.35393" lon="5.88899">
        <ele>1728.4560546875</ele>
        <time>2017-02-10T09:36:21Z</time>
      </trkpt>
      <trkpt lat="45.35388" lon="5.88891">
        <ele>1729.4560546875</ele>
        <time>2017-02-10T09:36:26Z</time>
      </trkpt>
      <trkpt lat="45.35381" lon="5.88884">
        <ele>1728.4560546875</ele>
        <time>2017-02-10T09:36:32Z</time>
      </trkpt>
      <trkpt lat="45.35377" lon="5.88875">
        <ele>1734.4560546875</ele>
        <time>2017-02-10T09:36:41Z</time>
      </trkpt>
      <trkpt lat="45.35372" lon="5.88867">
        <ele>1733.4560546875</ele>
        <time>2017-02-10T09:36:47Z</time>
      </trkpt>
      <trkpt lat="45.35367" lon="5.88858">
        <ele>1732.4560546875</ele>
        <time>2017-02-10T09:36:55Z</time>
      </trkpt>
      <trkpt lat="45.35361" lon="5.88853">
        <ele>1729.4560546875</ele>
        <time>2017-02-10T09:37:25Z</time>
      </trkpt>
      <trkpt lat="45.35356" lon="5.88845">
        <ele>1730.4560546875</ele>
        <time>2017-02-10T09:37:33Z</time>
      </trkpt>
      <trkpt lat="45.3535" lon="5.88839">
        <ele>1729.4560546875</ele>
        <time>2017-02-10T09:37:41Z</time>
      </trkpt>
      <trkpt lat="45.35345" lon="5.88829">
        <ele>1729.4560546875</ele>
        <time>2017-02-10T09:37:48Z</time>
      </trkpt>
      <trkpt lat="45.35341" lon="5.8882">
        <ele>1729.4560546875</ele>
        <time>2017-02-10T09:37:53Z</time>
      </trkpt>
      <trkpt lat="45.35336" lon="5.88812">
        <ele>1733.4560546875</ele>
        <time>2017-02-10T09:37:59Z</time>
      </trkpt>
      <trkpt lat="45.35332" lon="5.88803">
        <ele>1731.4560546875</ele>
        <time>2017-02-10T09:38:05Z</time>
      </trkpt>
      <trkpt lat="45.35327" lon="5.88796">
        <ele>1730.4560546875</ele>
        <time>2017-02-10T09:38:12Z</time>
      </trkpt>
      <trkpt lat="45.35321" lon="5.88788">
        <ele>1727.4560546875</ele>
        <time>2017-02-10T09:38:18Z</time>
      </trkpt>
      <trkpt lat="45.35317" lon="5.88779">
        <ele>1727.4560546875</ele>
        <time>2017-02-10T09:38:26Z</time>
      </trkpt>
      <trkpt lat="45.35311" lon="5.88773">
        <ele>1726.4560546875</ele>
        <time>2017-02-10T09:38:35Z</time>
      </trkpt>
      <trkpt lat="45.35305" lon="5.88764">
        <ele>1725.4560546875</ele>
        <time>2017-02-10T09:38:42Z</time>
      </trkpt>
      <trkpt lat="45.35299" lon="5.88756">
        <ele>1728.4560546875</ele>
        <time>2017-02-10T09:38:49Z</time>
      </trkpt>
      <trkpt lat="45.35296" lon="5.88746">
        <ele>1727.4560546875</ele>
        <time>2017-02-10T09:38:55Z</time>
      </trkpt>
      <trkpt lat="45.35291" lon="5.88738">
        <ele>1726.4560546875</ele>
        <time>2017-02-10T09:39:02Z</time>
      </trkpt>
      <trkpt lat="45.35288" lon="5.88726">
        <ele>1726.4560546875</ele>
        <time>2017-02-10T09:39:11Z</time>
      </trkpt>
      <trkpt lat="45.35284" lon="5.88716">
        <ele>1724.4560546875</ele>
        <time>2017-02-10T09:39:18Z</time>
      </trkpt>
      <trkpt lat="45.35282" lon="5.88704">
        <ele>1721.4560546875</ele>
        <time>2017-02-10T09:39:25Z</time>
      </trkpt>
      <trkpt lat="45.35277" lon="5.88695">
        <ele>1720.4560546875</ele>
        <time>2017-02-10T09:39:32Z</time>
      </trkpt>
      <trkpt lat="45.35271" lon="5.88687">
        <ele>1722.4560546875</ele>
        <time>2017-02-10T09:39:41Z</time>
      </trkpt>
      <trkpt lat="45.35264" lon="5.88681">
        <ele>1722.4560546875</ele>
        <time>2017-02-10T09:39:49Z</time>
      </trkpt>
      <trkpt lat="45.35256" lon="5.88676">
        <ele>1726.4560546875</ele>
        <time>2017-02-10T09:39:57Z</time>
      </trkpt>
      <trkpt lat="45.3525" lon="5.8867">
        <ele>1727.4560546875</ele>
        <time>2017-02-10T09:40:20Z</time>
      </trkpt>
      <trkpt lat="45.35243" lon="5.88671">
        <ele>1728.4549560547</ele>
        <time>2017-02-10T09:40:28Z</time>
      </trkpt>
      <trkpt lat="45.35235" lon="5.88667">
        <ele>1728.4549560547</ele>
        <time>2017-02-10T09:40:36Z</time>
      </trkpt>
      <trkpt lat="45.35227" lon="5.88666">
        <ele>1728.4549560547</ele>
        <time>2017-02-10T09:40:46Z</time>
      </trkpt>
      <trkpt lat="45.3522" lon="5.88661">
        <ele>1729.4549560547</ele>
        <time>2017-02-10T09:40:54Z</time>
      </trkpt>
      <trkpt lat="45.35213" lon="5.88658">
        <ele>1728.4549560547</ele>
        <time>2017-02-10T09:41:02Z</time>
      </trkpt>
      <trkpt lat="45.35207" lon="5.88654">
        <ele>1729.4549560547</ele>
        <time>2017-02-10T09:41:09Z</time>
      </trkpt>
      <trkpt lat="45.352" lon="5.88648">
        <ele>1730.4549560547</ele>
        <time>2017-02-10T09:41:18Z</time>
      </trkpt>
      <trkpt lat="45.35194" lon="5.88642">
        <ele>1731.4549560547</ele>
        <time>2017-02-10T09:41:25Z</time>
      </trkpt>
      <trkpt lat="45.35186" lon="5.8864">
        <ele>1729.4549560547</ele>
        <time>2017-02-10T09:41:32Z</time>
      </trkpt>
      <trkpt lat="45.3518" lon="5.88634">
        <ele>1734.4549560547</ele>
        <time>2017-02-10T09:41:41Z</time>
      </trkpt>
      <trkpt lat="45.35172" lon="5.88628">
        <ele>1733.4549560547</ele>
        <time>2017-02-10T09:41:50Z</time>
      </trkpt>
      <trkpt lat="45.35165" lon="5.88624">
        <ele>1734.4549560547</ele>
        <time>2017-02-10T09:41:56Z</time>
      </trkpt>
      <trkpt lat="45.35158" lon="5.88621">
        <ele>1733.4549560547</ele>
        <time>2017-02-10T09:42:04Z</time>
      </trkpt>
      <trkpt lat="45.35152" lon="5.88615">
        <ele>1733.4549560547</ele>
        <time>2017-02-10T09:42:15Z</time>
      </trkpt>
      <trkpt lat="45.35145" lon="5.88611">
        <ele>1734.4549560547</ele>
        <time>2017-02-10T09:42:23Z</time>
      </trkpt>
      <trkpt lat="45.35139" lon="5.88605">
        <ele>1736.4549560547</ele>
        <time>2017-02-10T09:42:29Z</time>
      </trkpt>
      <trkpt lat="45.35132" lon="5.88598">
        <ele>1736.4549560547</ele>
        <time>2017-02-10T09:42:40Z</time>
      </trkpt>
      <trkpt lat="45.35126" lon="5.88591">
        <ele>1735.4549560547</ele>
        <time>2017-02-10T09:42:47Z</time>
      </trkpt>
      <trkpt lat="45.35122" lon="5.88583">
        <ele>1735.4549560547</ele>
        <time>2017-02-10T09:42:52Z</time>
      </trkpt>
      <trkpt lat="45.35117" lon="5.88573">
        <ele>1735.4549560547</ele>
        <time>2017-02-10T09:43:01Z</time>
      </trkpt>
      <trkpt lat="45.35112" lon="5.88564">
        <ele>1732.4549560547</ele>
        <time>2017-02-10T09:43:12Z</time>
      </trkpt>
      <trkpt lat="45.35109" lon="5.88555">
        <ele>1732.4549560547</ele>
        <time>2017-02-10T09:43:27Z</time>
      </trkpt>
      <trkpt lat="45.35106" lon="5.88544">
        <ele>1732.4549560547</ele>
        <time>2017-02-10T09:43:38Z</time>
      </trkpt>
      <trkpt lat="45.35104" lon="5.88535">
        <ele>1733.4549560547</ele>
        <time>2017-02-10T09:43:48Z</time>
      </trkpt>
      <trkpt lat="45.35102" lon="5.88524">
        <ele>1734.4549560547</ele>
        <time>2017-02-10T09:44:02Z</time>
      </trkpt>
      <trkpt lat="45.35101" lon="5.88512">
        <ele>1733.4549560547</ele>
        <time>2017-02-10T09:44:12Z</time>
      </trkpt>
      <trkpt lat="45.35098" lon="5.88501">
        <ele>1735.4549560547</ele>
        <time>2017-02-10T09:44:20Z</time>
      </trkpt>
      <trkpt lat="45.35095" lon="5.88491">
        <ele>1740.4549560547</ele>
        <time>2017-02-10T09:44:27Z</time>
      </trkpt>
      <trkpt lat="45.35091" lon="5.88483">
        <ele>1739.4549560547</ele>
        <time>2017-02-10T09:44:48Z</time>
      </trkpt>
      <trkpt lat="45.35088" lon="5.88472">
        <ele>1741.4549560547</ele>
        <time>2017-02-10T09:46:58Z</time>
      </trkpt>
      <trkpt lat="45.35082" lon="5.88463">
        <ele>1745.4549560547</ele>
        <time>2017-02-10T09:47:23Z</time>
      </trkpt>
      <trkpt lat="45.35069" lon="5.88452">
        <ele>1750.4549560547</ele>
        <time>2017-02-10T09:47:33Z</time>
      </trkpt>
      <trkpt lat="45.35062" lon="5.88445">
        <ele>1751.4549560547</ele>
        <time>2017-02-10T09:47:41Z</time>
      </trkpt>
      <trkpt lat="45.35053" lon="5.88441">
        <ele>1749.4549560547</ele>
        <time>2017-02-10T09:47:47Z</time>
      </trkpt>
      <trkpt lat="45.35046" lon="5.88436">
        <ele>1749.4549560547</ele>
        <time>2017-02-10T09:47:55Z</time>
      </trkpt>
      <trkpt lat="45.35038" lon="5.88434">
        <ele>1745.4549560547</ele>
        <time>2017-02-10T09:48:03Z</time>
      </trkpt>
      <trkpt lat="45.3503" lon="5.88435">
        <ele>1743.4549560547</ele>
        <time>2017-02-10T09:48:10Z</time>
      </trkpt>
      <trkpt lat="45.35023" lon="5.8843">
        <ele>1741.4549560547</ele>
        <time>2017-02-10T09:48:17Z</time>
      </trkpt>
      <trkpt lat="45.35018" lon="5.88422">
        <ele>1740.4549560547</ele>
        <time>2017-02-10T09:48:22Z</time>
      </trkpt>
      <trkpt lat="45.35013" lon="5.88415">
        <ele>1740.4549560547</ele>
        <time>2017-02-10T09:48:32Z</time>
      </trkpt>
      <trkpt lat="45.35006" lon="5.8841">
        <ele>1741.4549560547</ele>
        <time>2017-02-10T09:48:39Z</time>
      </trkpt>
      <trkpt lat="45.35" lon="5.88404">
        <ele>1739.4549560547</ele>
        <time>2017-02-10T09:48:47Z</time>
      </trkpt>
      <trkpt lat="45.34994" lon="5.88396">
        <ele>1743.4549560547</ele>
        <time>2017-02-10T09:49:05Z</time>
      </trkpt>
      <trkpt lat="45.34988" lon="5.88391">
        <ele>1743.4549560547</ele>
        <time>2017-02-10T09:49:14Z</time>
      </trkpt>
      <trkpt lat="45.3498" lon="5.88386">
        <ele>1743.4549560547</ele>
        <time>2017-02-10T09:49:22Z</time>
      </trkpt>
      <trkpt lat="45.34972" lon="5.88383">
        <ele>1741.4549560547</ele>
        <time>2017-02-10T09:49:29Z</time>
      </trkpt>
      <trkpt lat="45.34966" lon="5.88376">
        <ele>1744.4549560547</ele>
        <time>2017-02-10T09:49:36Z</time>
      </trkpt>
      <trkpt lat="45.34958" lon="5.88371">
        <ele>1744.4549560547</ele>
        <time>2017-02-10T09:49:43Z</time>
      </trkpt>
      <trkpt lat="45.34952" lon="5.88363">
        <ele>1740.4539794922</ele>
        <time>2017-02-10T09:49:53Z</time>
      </trkpt>
      <trkpt lat="45.34948" lon="5.88356">
        <ele>1741.4539794922</ele>
        <time>2017-02-10T09:50:01Z</time>
      </trkpt>
      <trkpt lat="45.34943" lon="5.88347">
        <ele>1742.4539794922</ele>
        <time>2017-02-10T09:50:08Z</time>
      </trkpt>
      <trkpt lat="45.34937" lon="5.88339">
        <ele>1744.4539794922</ele>
        <time>2017-02-10T09:50:16Z</time>
      </trkpt>
      <trkpt lat="45.3493" lon="5.88336">
        <ele>1743.4539794922</ele>
        <time>2017-02-10T09:50:25Z</time>
      </trkpt>
      <trkpt lat="45.34923" lon="5.88342">
        <ele>1748.4539794922</ele>
        <time>2017-02-10T09:51:01Z</time>
      </trkpt>
      <trkpt lat="45.34915" lon="5.88345">
        <ele>1748.4539794922</ele>
        <time>2017-02-10T09:51:07Z</time>
      </trkpt>
      <trkpt lat="45.34907" lon="5.88345">
        <ele>1746.4539794922</ele>
        <time>2017-02-10T09:51:12Z</time>
      </trkpt>
      <trkpt lat="45.34899" lon="5.88345">
        <ele>1742.4539794922</ele>
        <time>2017-02-10T09:51:23Z</time>
      </trkpt>
      <trkpt lat="45.34893" lon="5.88338">
        <ele>1739.4539794922</ele>
        <time>2017-02-10T09:51:31Z</time>
      </trkpt>
      <trkpt lat="45.34886" lon="5.88334">
        <ele>1739.4539794922</ele>
        <time>2017-02-10T09:51:41Z</time>
      </trkpt>
      <trkpt lat="45.3488" lon="5.88328">
        <ele>1743.4539794922</ele>
        <time>2017-02-10T09:52:03Z</time>
      </trkpt>
      <trkpt lat="45.34872" lon="5.88326">
        <ele>1743.4539794922</ele>
        <time>2017-02-10T09:52:14Z</time>
      </trkpt>
      <trkpt lat="45.34865" lon="5.88329">
        <ele>1744.4539794922</ele>
        <time>2017-02-10T09:52:21Z</time>
      </trkpt>
      <trkpt lat="45.34858" lon="5.88328">
        <ele>1745.4539794922</ele>
        <time>2017-02-10T09:52:32Z</time>
      </trkpt>
      <trkpt lat="45.3485" lon="5.88325">
        <ele>1745.4539794922</ele>
        <time>2017-02-10T09:52:42Z</time>
      </trkpt>
      <trkpt lat="45.34843" lon="5.8832">
        <ele>1745.4539794922</ele>
        <time>2017-02-10T09:52:51Z</time>
      </trkpt>
      <trkpt lat="45.34835" lon="5.88319">
        <ele>1746.4539794922</ele>
        <time>2017-02-10T09:52:59Z</time>
      </trkpt>
      <trkpt lat="45.34827" lon="5.8832">
        <ele>1745.4539794922</ele>
        <time>2017-02-10T09:53:08Z</time>
      </trkpt>
      <trkpt lat="45.3482" lon="5.88317">
        <ele>1746.4539794922</ele>
        <time>2017-02-10T09:53:18Z</time>
      </trkpt>
      <trkpt lat="45.34813" lon="5.88312">
        <ele>1749.4539794922</ele>
        <time>2017-02-10T09:53:29Z</time>
      </trkpt>
      <trkpt lat="45.34808" lon="5.88304">
        <ele>1750.4539794922</ele>
        <time>2017-02-10T09:53:39Z</time>
      </trkpt>
      <trkpt lat="45.34804" lon="5.88295">
        <ele>1752.4539794922</ele>
        <time>2017-02-10T09:53:50Z</time>
      </trkpt>
      <trkpt lat="45.34803" lon="5.88285">
        <ele>1750.4539794922</ele>
        <time>2017-02-10T09:54:02Z</time>
      </trkpt>
      <trkpt lat="45.34803" lon="5.88274">
        <ele>1753.4539794922</ele>
        <time>2017-02-10T09:54:14Z</time>
      </trkpt>
      <trkpt lat="45.34805" lon="5.88264">
        <ele>1751.4539794922</ele>
        <time>2017-02-10T09:54:24Z</time>
      </trkpt>
      <trkpt lat="45.34808" lon="5.88254">
        <ele>1750.4539794922</ele>
        <time>2017-02-10T09:54:36Z</time>
      </trkpt>
      <trkpt lat="45.34808" lon="5.88244">
        <ele>1752.4539794922</ele>
        <time>2017-02-10T09:54:43Z</time>
      </trkpt>
      <trkpt lat="45.34804" lon="5.88235">
        <ele>1753.4539794922</ele>
        <time>2017-02-10T09:54:51Z</time>
      </trkpt>
      <trkpt lat="45.34799" lon="5.88227">
        <ele>1751.4539794922</ele>
        <time>2017-02-10T09:55:06Z</time>
      </trkpt>
      <trkpt lat="45.34795" lon="5.88218">
        <ele>1748.4539794922</ele>
        <time>2017-02-10T09:55:14Z</time>
      </trkpt>
      <trkpt lat="45.34788" lon="5.88213">
        <ele>1745.4539794922</ele>
        <time>2017-02-10T09:55:24Z</time>
      </trkpt>
      <trkpt lat="45.34782" lon="5.88207">
        <ele>1745.4539794922</ele>
        <time>2017-02-10T09:55:33Z</time>
      </trkpt>
      <trkpt lat="45.34778" lon="5.88196">
        <ele>1743.4539794922</ele>
        <time>2017-02-10T09:55:42Z</time>
      </trkpt>
      <trkpt lat="45.3477" lon="5.8819">
        <ele>1742.4539794922</ele>
        <time>2017-02-10T09:55:49Z</time>
      </trkpt>
      <trkpt lat="45.34765" lon="5.88182">
        <ele>1743.4539794922</ele>
        <time>2017-02-10T09:55:58Z</time>
      </trkpt>
      <trkpt lat="45.34761" lon="5.88173">
        <ele>1744.4539794922</ele>
        <time>2017-02-10T09:56:09Z</time>
      </trkpt>
      <trkpt lat="45.3476" lon="5.88162">
        <ele>1744.4539794922</ele>
        <time>2017-02-10T09:56:19Z</time>
      </trkpt>
      <trkpt lat="45.34756" lon="5.88152">
        <ele>1746.4539794922</ele>
        <time>2017-02-10T09:56:25Z</time>
      </trkpt>
      <trkpt lat="45.34751" lon="5.88145">
        <ele>1741.4539794922</ele>
        <time>2017-02-10T09:56:36Z</time>
      </trkpt>
      <trkpt lat="45.34747" lon="5.88136">
        <ele>1741.4539794922</ele>
        <time>2017-02-10T09:56:44Z</time>
      </trkpt>
      <trkpt lat="45.34746" lon="5.88125">
        <ele>1735.4539794922</ele>
        <time>2017-02-10T09:56:53Z</time>
      </trkpt>
      <trkpt lat="45.34744" lon="5.88115">
        <ele>1736.4539794922</ele>
        <time>2017-02-10T09:56:58Z</time>
      </trkpt>
      <trkpt lat="45.34739" lon="5.88106">
        <ele>1733.4539794922</ele>
        <time>2017-02-10T09:57:03Z</time>
      </trkpt>
      <trkpt lat="45.34732" lon="5.88099">
        <ele>1732.4539794922</ele>
        <time>2017-02-10T09:57:13Z</time>
      </trkpt>
      <trkpt lat="45.34727" lon="5.88089">
        <ele>1733.4539794922</ele>
        <time>2017-02-10T09:57:22Z</time>
      </trkpt>
      <trkpt lat="45.34721" lon="5.88083">
        <ele>1736.4539794922</ele>
        <time>2017-02-10T09:57:30Z</time>
      </trkpt>
      <trkpt lat="45.34715" lon="5.88074">
        <ele>1736.4539794922</ele>
        <time>2017-02-10T09:57:37Z</time>
      </trkpt>
      <trkpt lat="45.3471" lon="5.88066">
        <ele>1738.4539794922</ele>
        <time>2017-02-10T09:57:44Z</time>
      </trkpt>
      <trkpt lat="45.34704" lon="5.88058">
        <ele>1740.4539794922</ele>
        <time>2017-02-10T09:57:55Z</time>
      </trkpt>
      <trkpt lat="45.34698" lon="5.88053">
        <ele>1742.4539794922</ele>
        <time>2017-02-10T09:58:08Z</time>
      </trkpt>
      <trkpt lat="45.34692" lon="5.88047">
        <ele>1743.4539794922</ele>
        <time>2017-02-10T09:58:16Z</time>
      </trkpt>
      <trkpt lat="45.34687" lon="5.8804">
        <ele>1744.4539794922</ele>
        <time>2017-02-10T09:58:25Z</time>
      </trkpt>
      <trkpt lat="45.34683" lon="5.88031">
        <ele>1744.4530029297</ele>
        <time>2017-02-10T09:58:34Z</time>
      </trkpt>
      <trkpt lat="45.34682" lon="5.88021">
        <ele>1741.4530029297</ele>
        <time>2017-02-10T09:58:45Z</time>
      </trkpt>
      <trkpt lat="45.34676" lon="5.88014">
        <ele>1743.4530029297</ele>
        <time>2017-02-10T09:58:57Z</time>
      </trkpt>
      <trkpt lat="45.3467" lon="5.88007">
        <ele>1746.4530029297</ele>
        <time>2017-02-10T09:59:05Z</time>
      </trkpt>
      <trkpt lat="45.34663" lon="5.88002">
        <ele>1751.4530029297</ele>
        <time>2017-02-10T09:59:13Z</time>
      </trkpt>
      <trkpt lat="45.3466" lon="5.87992">
        <ele>1749.4530029297</ele>
        <time>2017-02-10T09:59:21Z</time>
      </trkpt>
      <trkpt lat="45.34656" lon="5.87982">
        <ele>1750.4530029297</ele>
        <time>2017-02-10T09:59:32Z</time>
      </trkpt>
      <trkpt lat="45.34653" lon="5.87972">
        <ele>1750.4530029297</ele>
        <time>2017-02-10T09:59:41Z</time>
      </trkpt>
      <trkpt lat="45.34655" lon="5.87962">
        <ele>1751.4530029297</ele>
        <time>2017-02-10T09:59:50Z</time>
      </trkpt>
      <trkpt lat="45.34653" lon="5.87952">
        <ele>1753.4530029297</ele>
        <time>2017-02-10T09:59:59Z</time>
      </trkpt>
      <trkpt lat="45.3465" lon="5.87942">
        <ele>1755.4530029297</ele>
        <time>2017-02-10T10:00:12Z</time>
      </trkpt>
      <trkpt lat="45.34647" lon="5.87933">
        <ele>1759.4530029297</ele>
        <time>2017-02-10T10:00:26Z</time>
      </trkpt>
      <trkpt lat="45.34645" lon="5.87923">
        <ele>1760.4530029297</ele>
        <time>2017-02-10T10:00:43Z</time>
      </trkpt>
      <trkpt lat="45.34647" lon="5.87913">
        <ele>1768.4530029297</ele>
        <time>2017-02-10T10:01:01Z</time>
      </trkpt>
      <trkpt lat="45.34652" lon="5.87904">
        <ele>1768.4530029297</ele>
        <time>2017-02-10T10:01:11Z</time>
      </trkpt>
      <trkpt lat="45.34654" lon="5.87893">
        <ele>1769.4530029297</ele>
        <time>2017-02-10T10:01:34Z</time>
      </trkpt>
      <trkpt lat="45.34654" lon="5.87882">
        <ele>1771.4530029297</ele>
        <time>2017-02-10T10:01:54Z</time>
      </trkpt>
      <trkpt lat="45.34654" lon="5.87871">
        <ele>1776.4530029297</ele>
        <time>2017-02-10T10:02:07Z</time>
      </trkpt>
      <trkpt lat="45.34652" lon="5.8786">
        <ele>1778.4530029297</ele>
        <time>2017-02-10T10:02:18Z</time>
      </trkpt>
      <trkpt lat="45.34651" lon="5.87848">
        <ele>1779.4530029297</ele>
        <time>2017-02-10T10:02:25Z</time>
      </trkpt>
      <trkpt lat="45.34649" lon="5.87838">
        <ele>1772.4530029297</ele>
        <time>2017-02-10T10:02:40Z</time>
      </trkpt>
      <trkpt lat="45.34649" lon="5.87827">
        <ele>1776.4530029297</ele>
        <time>2017-02-10T10:03:20Z</time>
      </trkpt>
      <trkpt lat="45.34648" lon="5.87817">
        <ele>1779.4530029297</ele>
        <time>2017-02-10T10:03:34Z</time>
      </trkpt>
      <trkpt lat="45.34643" lon="5.87809">
        <ele>1776.4530029297</ele>
        <time>2017-02-10T10:03:43Z</time>
      </trkpt>
      <trkpt lat="45.34649" lon="5.87802">
        <ele>1782.4530029297</ele>
        <time>2017-02-10T10:03:53Z</time>
      </trkpt>
      <trkpt lat="45.34653" lon="5.87794">
        <ele>1792.4530029297</ele>
        <time>2017-02-10T10:04:05Z</time>
      </trkpt>
      <trkpt lat="45.34657" lon="5.87785">
        <ele>1796.4530029297</ele>
        <time>2017-02-10T10:04:29Z</time>
      </trkpt>
      <trkpt lat="45.34661" lon="5.87775">
        <ele>1796.4530029297</ele>
        <time>2017-02-10T10:04:44Z</time>
      </trkpt>
      <trkpt lat="45.34665" lon="5.87766">
        <ele>1799.4530029297</ele>
        <time>2017-02-10T10:05:01Z</time>
      </trkpt>
      <trkpt lat="45.34669" lon="5.87757">
        <ele>1796.4530029297</ele>
        <time>2017-02-10T10:05:19Z</time>
      </trkpt>
      <trkpt lat="45.34673" lon="5.87749">
        <ele>1804.4530029297</ele>
        <time>2017-02-10T10:05:37Z</time>
      </trkpt>
      <trkpt lat="45.34667" lon="5.87742">
        <ele>1808.4530029297</ele>
        <time>2017-02-10T10:06:18Z</time>
      </trkpt>
      <trkpt lat="45.34662" lon="5.87735">
        <ele>1812.4530029297</ele>
        <time>2017-02-10T10:06:36Z</time>
      </trkpt>
      <trkpt lat="45.34656" lon="5.87728">
        <ele>1814.4530029297</ele>
        <time>2017-02-10T10:06:58Z</time>
      </trkpt>
      <trkpt lat="45.34649" lon="5.87723">
        <ele>1820.4530029297</ele>
        <time>2017-02-10T10:07:19Z</time>
      </trkpt>
      <trkpt lat="45.34644" lon="5.87717">
        <ele>1823.4530029297</ele>
        <time>2017-02-10T10:07:34Z</time>
      </trkpt>
      <trkpt lat="45.34637" lon="5.87711">
        <ele>1821.4530029297</ele>
        <time>2017-02-10T10:07:46Z</time>
      </trkpt>
      <trkpt lat="45.34639" lon="5.87701">
        <ele>1828.4530029297</ele>
        <time>2017-02-10T10:08:20Z</time>
      </trkpt>
      <trkpt lat="45.34641" lon="5.87691">
        <ele>1837.4530029297</ele>
        <time>2017-02-10T10:08:45Z</time>
      </trkpt>
      <trkpt lat="45.34637" lon="5.87682">
        <ele>1837.4530029297</ele>
        <time>2017-02-10T10:09:20Z</time>
      </trkpt>
      <trkpt lat="45.3464" lon="5.87673">
        <ele>1841.4530029297</ele>
        <time>2017-02-10T10:09:47Z</time>
      </trkpt>
      <trkpt lat="45.34642" lon="5.87663">
        <ele>1843.4530029297</ele>
        <time>2017-02-10T10:09:59Z</time>
      </trkpt>
      <trkpt lat="45.34637" lon="5.87654">
        <ele>1846.4530029297</ele>
        <time>2017-02-10T10:10:24Z</time>
      </trkpt>
      <trkpt lat="45.3464" lon="5.87644">
        <ele>1852.4530029297</ele>
        <time>2017-02-10T10:11:06Z</time>
      </trkpt>
      <trkpt lat="45.34644" lon="5.87635">
        <ele>1853.4530029297</ele>
        <time>2017-02-10T10:11:35Z</time>
      </trkpt>
      <trkpt lat="45.34642" lon="5.87624">
        <ele>1857.4530029297</ele>
        <time>2017-02-10T10:11:54Z</time>
      </trkpt>
      <trkpt lat="45.34646" lon="5.87616">
        <ele>1863.4530029297</ele>
        <time>2017-02-10T10:12:57Z</time>
      </trkpt>
      <trkpt lat="45.34653" lon="5.8761">
        <ele>1865.4530029297</ele>
        <time>2017-02-10T10:13:39Z</time>
      </trkpt>
      <trkpt lat="45.34661" lon="5.87606">
        <ele>1871.4530029297</ele>
        <time>2017-02-10T10:13:49Z</time>
      </trkpt>
      <trkpt lat="45.34657" lon="5.87597">
        <ele>1872.4530029297</ele>
        <time>2017-02-10T10:14:24Z</time>
      </trkpt>
      <trkpt lat="45.34654" lon="5.87586">
        <ele>1874.4530029297</ele>
        <time>2017-02-10T10:14:41Z</time>
      </trkpt>
      <trkpt lat="45.34654" lon="5.87575">
        <ele>1879.4530029297</ele>
        <time>2017-02-10T10:15:22Z</time>
      </trkpt>
      <trkpt lat="45.34661" lon="5.87569">
        <ele>1883.4530029297</ele>
        <time>2017-02-10T10:15:51Z</time>
      </trkpt>
      <trkpt lat="45.34668" lon="5.87567">
        <ele>1889.4530029297</ele>
        <time>2017-02-10T10:16:05Z</time>
      </trkpt>
      <trkpt lat="45.34674" lon="5.87558">
        <ele>1896.4530029297</ele>
        <time>2017-02-10T10:16:48Z</time>
      </trkpt>
      <trkpt lat="45.34673" lon="5.87548">
        <ele>1899.4530029297</ele>
        <time>2017-02-10T10:17:16Z</time>
      </trkpt>
      <trkpt lat="45.34668" lon="5.87539">
        <ele>1899.4530029297</ele>
        <time>2017-02-10T10:17:29Z</time>
      </trkpt>
      <trkpt lat="45.34672" lon="5.8753">
        <ele>1908.4530029297</ele>
        <time>2017-02-10T10:18:32Z</time>
      </trkpt>
      <trkpt lat="45.34679" lon="5.87528">
        <ele>1911.4530029297</ele>
        <time>2017-02-10T10:18:59Z</time>
      </trkpt>
      <trkpt lat="45.34677" lon="5.87517">
        <ele>1915.4530029297</ele>
        <time>2017-02-10T10:19:26Z</time>
      </trkpt>
      <trkpt lat="45.34669" lon="5.87515">
        <ele>1920.4530029297</ele>
        <time>2017-02-10T10:20:17Z</time>
      </trkpt>
      <trkpt lat="45.34662" lon="5.87522">
        <ele>1915.4530029297</ele>
        <time>2017-02-10T10:23:10Z</time>
      </trkpt>
      <trkpt lat="45.3465" lon="5.87566">
        <ele>1907.4530029297</ele>
        <time>2017-02-10T10:23:16Z</time>
      </trkpt>
      <trkpt lat="45.34644" lon="5.87607">
        <ele>1900.4530029297</ele>
        <time>2017-02-10T10:23:21Z</time>
      </trkpt>
      <trkpt lat="45.34639" lon="5.87629">
        <ele>1893.4530029297</ele>
        <time>2017-02-10T10:23:24Z</time>
      </trkpt>
      <trkpt lat="45.34637" lon="5.87642">
        <ele>1887.4530029297</ele>
        <time>2017-02-10T10:23:26Z</time>
      </trkpt>
      <trkpt lat="45.34635" lon="5.87686">
        <ele>1874.4530029297</ele>
        <time>2017-02-10T10:23:32Z</time>
      </trkpt>
      <trkpt lat="45.34635" lon="5.87713">
        <ele>1859.4530029297</ele>
        <time>2017-02-10T10:23:37Z</time>
      </trkpt>
      <trkpt lat="45.34629" lon="5.87707">
        <ele>1850.4530029297</ele>
        <time>2017-02-10T10:23:45Z</time>
      </trkpt>
      <trkpt lat="45.34628" lon="5.8772">
        <ele>1842.4530029297</ele>
        <time>2017-02-10T10:24:11Z</time>
      </trkpt>
      <trkpt lat="45.34633" lon="5.87758">
        <ele>1833.4530029297</ele>
        <time>2017-02-10T10:24:17Z</time>
      </trkpt>
      <trkpt lat="45.3464" lon="5.87753">
        <ele>1829.4530029297</ele>
        <time>2017-02-10T10:24:26Z</time>
      </trkpt>
      <trkpt lat="45.3465" lon="5.8776">
        <ele>1817.4530029297</ele>
        <time>2017-02-10T10:24:41Z</time>
      </trkpt>
      <trkpt lat="45.34659" lon="5.87798">
        <ele>1805.4530029297</ele>
        <time>2017-02-10T10:24:47Z</time>
      </trkpt>
      <trkpt lat="45.3465" lon="5.87824">
        <ele>1802.4530029297</ele>
        <time>2017-02-10T10:24:51Z</time>
      </trkpt>
      <trkpt lat="45.3465" lon="5.87827">
        <ele>1793.4530029297</ele>
        <time>2017-02-10T10:28:24Z</time>
      </trkpt>
      <trkpt lat="45.34651" lon="5.87816">
        <ele>1792.4530029297</ele>
        <time>2017-02-10T10:28:35Z</time>
      </trkpt>
      <trkpt lat="45.34647" lon="5.87806">
        <ele>1790.4530029297</ele>
        <time>2017-02-10T10:28:43Z</time>
      </trkpt>
      <trkpt lat="45.34651" lon="5.87797">
        <ele>1791.4530029297</ele>
        <time>2017-02-10T10:28:58Z</time>
      </trkpt>
      <trkpt lat="45.34654" lon="5.87787">
        <ele>1793.4530029297</ele>
        <time>2017-02-10T10:29:07Z</time>
      </trkpt>
      <trkpt lat="45.34658" lon="5.87778">
        <ele>1791.4530029297</ele>
        <time>2017-02-10T10:29:19Z</time>
      </trkpt>
      <trkpt lat="45.34664" lon="5.8777">
        <ele>1790.4530029297</ele>
        <time>2017-02-10T10:29:29Z</time>
      </trkpt>
      <trkpt lat="45.34669" lon="5.87762">
        <ele>1789.4530029297</ele>
        <time>2017-02-10T10:29:40Z</time>
      </trkpt>
      <trkpt lat="45.34673" lon="5.87753">
        <ele>1796.4530029297</ele>
        <time>2017-02-10T10:29:53Z</time>
      </trkpt>
      <trkpt lat="45.34673" lon="5.87742">
        <ele>1806.4530029297</ele>
        <time>2017-02-10T10:30:20Z</time>
      </trkpt>
      <trkpt lat="45.34666" lon="5.87737">
        <ele>1808.4530029297</ele>
        <time>2017-02-10T10:30:31Z</time>
      </trkpt>
      <trkpt lat="45.34659" lon="5.87734">
        <ele>1810.4530029297</ele>
        <time>2017-02-10T10:30:44Z</time>
      </trkpt>
      <trkpt lat="45.34651" lon="5.87732">
        <ele>1813.4530029297</ele>
        <time>2017-02-10T10:30:55Z</time>
      </trkpt>
      <trkpt lat="45.34645" lon="5.87725">
        <ele>1814.4530029297</ele>
        <time>2017-02-10T10:31:13Z</time>
      </trkpt>
      <trkpt lat="45.34638" lon="5.87719">
        <ele>1815.4530029297</ele>
        <time>2017-02-10T10:31:27Z</time>
      </trkpt>
      <trkpt lat="45.34633" lon="5.87711">
        <ele>1819.4530029297</ele>
        <time>2017-02-10T10:31:39Z</time>
      </trkpt>
      <trkpt lat="45.34636" lon="5.87702">
        <ele>1821.4530029297</ele>
        <time>2017-02-10T10:31:51Z</time>
      </trkpt>
      <trkpt lat="45.34641" lon="5.87694">
        <ele>1824.4530029297</ele>
        <time>2017-02-10T10:32:03Z</time>
      </trkpt>
      <trkpt lat="45.34638" lon="5.87685">
        <ele>1829.4530029297</ele>
        <time>2017-02-10T10:32:20Z</time>
      </trkpt>
      <trkpt lat="45.3464" lon="5.87674">
        <ele>1838.4530029297</ele>
        <time>2017-02-10T10:32:43Z</time>
      </trkpt>
      <trkpt lat="45.34641" lon="5.87662">
        <ele>1841.4530029297</ele>
        <time>2017-02-10T10:33:00Z</time>
      </trkpt>
      <trkpt lat="45.34638" lon="5.87653">
        <ele>1844.4530029297</ele>
        <time>2017-02-10T10:33:28Z</time>
      </trkpt>
      <trkpt lat="45.34642" lon="5.87643">
        <ele>1848.4530029297</ele>
        <time>2017-02-10T10:33:37Z</time>
      </trkpt>
      <trkpt lat="45.34641" lon="5.87633">
        <ele>1850.4530029297</ele>
        <time>2017-02-10T10:34:18Z</time>
      </trkpt>
      <trkpt lat="45.34643" lon="5.87622">
        <ele>1858.4530029297</ele>
        <time>2017-02-10T10:34:28Z</time>
      </trkpt>
      <trkpt lat="45.34649" lon="5.87615">
        <ele>1860.4530029297</ele>
        <time>2017-02-10T10:34:44Z</time>
      </trkpt>
      <trkpt lat="45.34656" lon="5.87611">
        <ele>1868.4530029297</ele>
        <time>2017-02-10T10:34:59Z</time>
      </trkpt>
      <trkpt lat="45.3466" lon="5.87599">
        <ele>1873.4530029297</ele>
        <time>2017-02-10T10:35:18Z</time>
      </trkpt>
      <trkpt lat="45.34654" lon="5.87592">
        <ele>1874.4530029297</ele>
        <time>2017-02-10T10:35:38Z</time>
      </trkpt>
      <trkpt lat="45.34649" lon="5.87584">
        <ele>1878.4530029297</ele>
        <time>2017-02-10T10:35:55Z</time>
      </trkpt>
      <trkpt lat="45.34655" lon="5.87577">
        <ele>1882.4530029297</ele>
        <time>2017-02-10T10:36:26Z</time>
      </trkpt>
      <trkpt lat="45.34663" lon="5.87572">
        <ele>1886.4530029297</ele>
        <time>2017-02-10T10:36:47Z</time>
      </trkpt>
      <trkpt lat="45.34671" lon="5.87571">
        <ele>1893.4530029297</ele>
        <time>2017-02-10T10:36:56Z</time>
      </trkpt>
      <trkpt lat="45.3467" lon="5.87557">
        <ele>1897.4530029297</ele>
        <time>2017-02-10T10:37:56Z</time>
      </trkpt>
      <trkpt lat="45.34667" lon="5.87546">
        <ele>1899.4530029297</ele>
        <time>2017-02-10T10:38:06Z</time>
      </trkpt>
      <trkpt lat="45.34662" lon="5.87538">
        <ele>1903.4530029297</ele>
        <time>2017-02-10T10:38:16Z</time>
      </trkpt>
      <trkpt lat="45.34667" lon="5.87531">
        <ele>1905.4530029297</ele>
        <time>2017-02-10T10:38:32Z</time>
      </trkpt>
      <trkpt lat="45.34673" lon="5.87525">
        <ele>1908.4530029297</ele>
        <time>2017-02-10T10:39:17Z</time>
      </trkpt>
      <trkpt lat="45.3468" lon="5.87522">
        <ele>1913.4530029297</ele>
        <time>2017-02-10T10:39:26Z</time>
      </trkpt>
      <trkpt lat="45.34676" lon="5.87513">
        <ele>1917.4530029297</ele>
        <time>2017-02-10T10:40:56Z</time>
      </trkpt>
      <trkpt lat="45.34669" lon="5.87511">
        <ele>1921.4530029297</ele>
        <time>2017-02-10T10:41:05Z</time>
      </trkpt>
      <trkpt lat="45.34663" lon="5.87505">
        <ele>1923.4530029297</ele>
        <time>2017-02-10T10:41:38Z</time>
      </trkpt>
      <trkpt lat="45.34665" lon="5.87495">
        <ele>1924.4530029297</ele>
        <time>2017-02-10T10:42:01Z</time>
      </trkpt>
      <trkpt lat="45.34657" lon="5.87501">
        <ele>1927.4530029297</ele>
        <time>2017-02-10T10:45:06Z</time>
      </trkpt>
      <trkpt lat="45.34643" lon="5.87541">
        <ele>1920.4530029297</ele>
        <time>2017-02-10T10:45:11Z</time>
      </trkpt>
      <trkpt lat="45.34631" lon="5.87593">
        <ele>1911.4530029297</ele>
        <time>2017-02-10T10:45:17Z</time>
      </trkpt>
      <trkpt lat="45.34626" lon="5.87609">
        <ele>1908.4530029297</ele>
        <time>2017-02-10T10:45:19Z</time>
      </trkpt>
      <trkpt lat="45.34632" lon="5.87617">
        <ele>1904.4530029297</ele>
        <time>2017-02-10T10:45:20Z</time>
      </trkpt>
      <trkpt lat="45.34625" lon="5.87634">
        <ele>1900.4530029297</ele>
        <time>2017-02-10T10:45:22Z</time>
      </trkpt>
      <trkpt lat="45.34622" lon="5.87672">
        <ele>1888.4530029297</ele>
        <time>2017-02-10T10:45:27Z</time>
      </trkpt>
      <trkpt lat="45.34613" lon="5.87718">
        <ele>1876.4530029297</ele>
        <time>2017-02-10T10:45:33Z</time>
      </trkpt>
      <trkpt lat="45.34602" lon="5.87772">
        <ele>1867.4530029297</ele>
        <time>2017-02-10T10:45:38Z</time>
      </trkpt>
      <trkpt lat="45.34624" lon="5.878">
        <ele>1852.4530029297</ele>
        <time>2017-02-10T10:45:44Z</time>
      </trkpt>
      <trkpt lat="45.3464" lon="5.87809">
        <ele>1845.4530029297</ele>
        <time>2017-02-10T10:45:48Z</time>
      </trkpt>
      <trkpt lat="45.3465" lon="5.87843">
        <ele>1825.4530029297</ele>
        <time>2017-02-10T10:45:54Z</time>
      </trkpt>
      <trkpt lat="45.34647" lon="5.87864">
        <ele>1814.4530029297</ele>
        <time>2017-02-10T10:46:02Z</time>
      </trkpt>
      <trkpt lat="45.34639" lon="5.87871">
        <ele>1794.4530029297</ele>
        <time>2017-02-10T10:47:03Z</time>
      </trkpt>
      <trkpt lat="45.34635" lon="5.87922">
        <ele>1789.4530029297</ele>
        <time>2017-02-10T10:47:08Z</time>
      </trkpt>
      <trkpt lat="45.34645" lon="5.87957">
        <ele>1789.4530029297</ele>
        <time>2017-02-10T10:47:11Z</time>
      </trkpt>
      <trkpt lat="45.34674" lon="5.88015">
        <ele>1781.4530029297</ele>
        <time>2017-02-10T10:47:17Z</time>
      </trkpt>
      <trkpt lat="45.34694" lon="5.88044">
        <ele>1780.4539794922</ele>
        <time>2017-02-10T10:47:23Z</time>
      </trkpt>
      <trkpt lat="45.347" lon="5.88055">
        <ele>1778.4539794922</ele>
        <time>2017-02-10T10:47:25Z</time>
      </trkpt>
      <trkpt lat="45.34719" lon="5.88086">
        <ele>1779.4539794922</ele>
        <time>2017-02-10T10:47:31Z</time>
      </trkpt>
      <trkpt lat="45.3474" lon="5.88126">
        <ele>1772.4539794922</ele>
        <time>2017-02-10T10:47:37Z</time>
      </trkpt>
      <trkpt lat="45.34737" lon="5.88117">
        <ele>1768.4539794922</ele>
        <time>2017-02-10T10:47:43Z</time>
      </trkpt>
      <trkpt lat="45.34741" lon="5.88126">
        <ele>1752.4539794922</ele>
        <time>2017-02-10T10:49:02Z</time>
      </trkpt>
      <trkpt lat="45.34748" lon="5.88137">
        <ele>1750.4539794922</ele>
        <time>2017-02-10T10:49:12Z</time>
      </trkpt>
      <trkpt lat="45.34753" lon="5.88147">
        <ele>1746.4539794922</ele>
        <time>2017-02-10T10:49:18Z</time>
      </trkpt>
      <trkpt lat="45.3476" lon="5.88164">
        <ele>1754.4539794922</ele>
        <time>2017-02-10T10:49:57Z</time>
      </trkpt>
      <trkpt lat="45.34764" lon="5.88173">
        <ele>1760.4539794922</ele>
        <time>2017-02-10T10:50:02Z</time>
      </trkpt>
      <trkpt lat="45.34774" lon="5.88186">
        <ele>1751.4539794922</ele>
        <time>2017-02-10T10:50:22Z</time>
      </trkpt>
      <trkpt lat="45.34779" lon="5.88195">
        <ele>1748.4539794922</ele>
        <time>2017-02-10T10:50:34Z</time>
      </trkpt>
      <trkpt lat="45.34784" lon="5.88204">
        <ele>1749.4539794922</ele>
        <time>2017-02-10T10:50:41Z</time>
      </trkpt>
      <trkpt lat="45.34798" lon="5.88216">
        <ele>1751.4539794922</ele>
        <time>2017-02-10T10:51:02Z</time>
      </trkpt>
      <trkpt lat="45.34805" lon="5.88222">
        <ele>1746.4539794922</ele>
        <time>2017-02-10T10:51:11Z</time>
      </trkpt>
      <trkpt lat="45.34811" lon="5.88229">
        <ele>1749.4539794922</ele>
        <time>2017-02-10T10:51:18Z</time>
      </trkpt>
      <trkpt lat="45.34815" lon="5.88239">
        <ele>1749.4539794922</ele>
        <time>2017-02-10T10:51:32Z</time>
      </trkpt>
      <trkpt lat="45.34811" lon="5.88248">
        <ele>1750.4539794922</ele>
        <time>2017-02-10T10:52:12Z</time>
      </trkpt>
      <trkpt lat="45.34808" lon="5.88258">
        <ele>1748.4539794922</ele>
        <time>2017-02-10T10:52:18Z</time>
      </trkpt>
      <trkpt lat="45.34809" lon="5.88268">
        <ele>1752.4539794922</ele>
        <time>2017-02-10T10:52:25Z</time>
      </trkpt>
      <trkpt lat="45.34806" lon="5.88279">
        <ele>1753.4539794922</ele>
        <time>2017-02-10T10:52:34Z</time>
      </trkpt>
      <trkpt lat="45.34814" lon="5.88301">
        <ele>1752.4539794922</ele>
        <time>2017-02-10T10:52:39Z</time>
      </trkpt>
      <trkpt lat="45.34829" lon="5.88318">
        <ele>1749.4539794922</ele>
        <time>2017-02-10T10:52:45Z</time>
      </trkpt>
      <trkpt lat="45.34837" lon="5.88318">
        <ele>1748.4539794922</ele>
        <time>2017-02-10T10:52:51Z</time>
      </trkpt>
      <trkpt lat="45.34845" lon="5.88319">
        <ele>1745.4539794922</ele>
        <time>2017-02-10T10:53:02Z</time>
      </trkpt>
      <trkpt lat="45.34852" lon="5.88323">
        <ele>1743.4539794922</ele>
        <time>2017-02-10T10:53:10Z</time>
      </trkpt>
      <trkpt lat="45.34859" lon="5.88325">
        <ele>1746.4539794922</ele>
        <time>2017-02-10T10:53:19Z</time>
      </trkpt>
      <trkpt lat="45.34874" lon="5.88324">
        <ele>1743.4539794922</ele>
        <time>2017-02-10T10:53:30Z</time>
      </trkpt>
      <trkpt lat="45.34882" lon="5.88326">
        <ele>1742.4539794922</ele>
        <time>2017-02-10T10:53:38Z</time>
      </trkpt>
      <trkpt lat="45.34889" lon="5.88331">
        <ele>1746.4539794922</ele>
        <time>2017-02-10T10:53:51Z</time>
      </trkpt>
      <trkpt lat="45.34895" lon="5.88338">
        <ele>1744.4539794922</ele>
        <time>2017-02-10T10:53:59Z</time>
      </trkpt>
      <trkpt lat="45.34902" lon="5.88344">
        <ele>1744.4539794922</ele>
        <time>2017-02-10T10:54:08Z</time>
      </trkpt>
      <trkpt lat="45.3491" lon="5.88346">
        <ele>1747.4539794922</ele>
        <time>2017-02-10T10:54:24Z</time>
      </trkpt>
      <trkpt lat="45.34918" lon="5.88347">
        <ele>1747.4539794922</ele>
        <time>2017-02-10T10:54:39Z</time>
      </trkpt>
      <trkpt lat="45.34926" lon="5.8835">
        <ele>1746.4539794922</ele>
        <time>2017-02-10T10:55:01Z</time>
      </trkpt>
      <trkpt lat="45.34934" lon="5.88353">
        <ele>1750.4539794922</ele>
        <time>2017-02-10T10:55:11Z</time>
      </trkpt>
      <trkpt lat="45.34941" lon="5.88356">
        <ele>1751.4539794922</ele>
        <time>2017-02-10T10:55:36Z</time>
      </trkpt>
      <trkpt lat="45.34948" lon="5.8836">
        <ele>1751.4539794922</ele>
        <time>2017-02-10T10:55:43Z</time>
      </trkpt>
      <trkpt lat="45.34954" lon="5.88365">
        <ele>1752.4539794922</ele>
        <time>2017-02-10T10:55:47Z</time>
      </trkpt>
      <trkpt lat="45.34961" lon="5.88371">
        <ele>1748.4549560547</ele>
        <time>2017-02-10T10:55:57Z</time>
      </trkpt>
      <trkpt lat="45.34967" lon="5.88377">
        <ele>1749.4549560547</ele>
        <time>2017-02-10T10:56:05Z</time>
      </trkpt>
      <trkpt lat="45.34974" lon="5.88383">
        <ele>1749.4549560547</ele>
        <time>2017-02-10T10:56:15Z</time>
      </trkpt>
      <trkpt lat="45.3498" lon="5.8839">
        <ele>1750.4549560547</ele>
        <time>2017-02-10T10:56:44Z</time>
      </trkpt>
      <trkpt lat="45.34995" lon="5.88398">
        <ele>1750.4549560547</ele>
        <time>2017-02-10T10:56:53Z</time>
      </trkpt>
      <trkpt lat="45.35003" lon="5.88402">
        <ele>1754.4549560547</ele>
        <time>2017-02-10T10:56:59Z</time>
      </trkpt>
      <trkpt lat="45.3501" lon="5.88409">
        <ele>1754.4549560547</ele>
        <time>2017-02-10T10:57:09Z</time>
      </trkpt>
      <trkpt lat="45.35016" lon="5.88417">
        <ele>1753.4549560547</ele>
        <time>2017-02-10T10:57:21Z</time>
      </trkpt>
      <trkpt lat="45.3502" lon="5.88429">
        <ele>1752.4549560547</ele>
        <time>2017-02-10T10:57:30Z</time>
      </trkpt>
      <trkpt lat="45.35028" lon="5.88437">
        <ele>1737.4549560547</ele>
        <time>2017-02-10T10:59:57Z</time>
      </trkpt>
      <trkpt lat="45.35032" lon="5.88435">
        <ele>1742.4549560547</ele>
        <time>2017-02-10T11:06:35Z</time>
      </trkpt>
      <trkpt lat="45.35037" lon="5.88436">
        <ele>1743.4549560547</ele>
        <time>2017-02-10T11:06:47Z</time>
      </trkpt>
      <trkpt lat="45.35041" lon="5.88434">
        <ele>1751.4549560547</ele>
        <time>2017-02-10T11:07:30Z</time>
      </trkpt>
      <trkpt lat="45.35046" lon="5.88433">
        <ele>1753.4549560547</ele>
        <time>2017-02-10T11:07:37Z</time>
      </trkpt>
      <trkpt lat="45.3505" lon="5.88438">
        <ele>1752.4549560547</ele>
        <time>2017-02-10T11:07:47Z</time>
      </trkpt>
      <trkpt lat="45.35055" lon="5.8844">
        <ele>1752.4549560547</ele>
        <time>2017-02-10T11:08:00Z</time>
      </trkpt>
      <trkpt lat="45.35057" lon="5.88446">
        <ele>1753.4549560547</ele>
        <time>2017-02-10T11:08:10Z</time>
      </trkpt>
      <trkpt lat="45.35062" lon="5.88447">
        <ele>1752.4549560547</ele>
        <time>2017-02-10T11:08:22Z</time>
      </trkpt>
      <trkpt lat="45.35069" lon="5.88447">
        <ele>1750.4549560547</ele>
        <time>2017-02-10T11:08:34Z</time>
      </trkpt>
      <trkpt lat="45.35074" lon="5.88448">
        <ele>1750.4549560547</ele>
        <time>2017-02-10T11:08:37Z</time>
      </trkpt>
      <trkpt lat="45.35078" lon="5.88453">
        <ele>1754.4549560547</ele>
        <time>2017-02-10T11:08:49Z</time>
      </trkpt>
      <trkpt lat="45.35081" lon="5.8846">
        <ele>1753.4549560547</ele>
        <time>2017-02-10T11:08:56Z</time>
      </trkpt>
      <trkpt lat="45.35083" lon="5.88468">
        <ele>1751.4549560547</ele>
        <time>2017-02-10T11:08:59Z</time>
      </trkpt>
      <trkpt lat="45.35083" lon="5.88478">
        <ele>1749.4549560547</ele>
        <time>2017-02-10T11:09:01Z</time>
      </trkpt>
      <trkpt lat="45.35085" lon="5.88489">
        <ele>1749.4549560547</ele>
        <time>2017-02-10T11:09:03Z</time>
      </trkpt>
      <trkpt lat="45.35085" lon="5.88499">
        <ele>1748.4549560547</ele>
        <time>2017-02-10T11:09:05Z</time>
      </trkpt>
      <trkpt lat="45.35088" lon="5.88514">
        <ele>1746.4549560547</ele>
        <time>2017-02-10T11:09:07Z</time>
      </trkpt>
      <trkpt lat="45.351" lon="5.88533">
        <ele>1745.4549560547</ele>
        <time>2017-02-10T11:09:10Z</time>
      </trkpt>
      <trkpt lat="45.3511" lon="5.88543">
        <ele>1742.4549560547</ele>
        <time>2017-02-10T11:09:12Z</time>
      </trkpt>
      <trkpt lat="45.35113" lon="5.8855">
        <ele>1741.4549560547</ele>
        <time>2017-02-10T11:09:13Z</time>
      </trkpt>
      <trkpt lat="45.35116" lon="5.88562">
        <ele>1740.4549560547</ele>
        <time>2017-02-10T11:09:15Z</time>
      </trkpt>
      <trkpt lat="45.35116" lon="5.88569">
        <ele>1739.4549560547</ele>
        <time>2017-02-10T11:09:24Z</time>
      </trkpt>
      <trkpt lat="45.35116" lon="5.88576">
        <ele>1734.4549560547</ele>
        <time>2017-02-10T11:09:34Z</time>
      </trkpt>
      <trkpt lat="45.35117" lon="5.88583">
        <ele>1736.4549560547</ele>
        <time>2017-02-10T11:09:41Z</time>
      </trkpt>
      <trkpt lat="45.35121" lon="5.88587">
        <ele>1735.4549560547</ele>
        <time>2017-02-10T11:09:46Z</time>
      </trkpt>
      <trkpt lat="45.35124" lon="5.88592">
        <ele>1739.4549560547</ele>
        <time>2017-02-10T11:09:52Z</time>
      </trkpt>
      <trkpt lat="45.35128" lon="5.88597">
        <ele>1736.4549560547</ele>
        <time>2017-02-10T11:09:58Z</time>
      </trkpt>
      <trkpt lat="45.35132" lon="5.88601">
        <ele>1736.4549560547</ele>
        <time>2017-02-10T11:10:03Z</time>
      </trkpt>
      <trkpt lat="45.35137" lon="5.88606">
        <ele>1734.4549560547</ele>
        <time>2017-02-10T11:10:08Z</time>
      </trkpt>
      <trkpt lat="45.35142" lon="5.88609">
        <ele>1735.4549560547</ele>
        <time>2017-02-10T11:10:10Z</time>
      </trkpt>
      <trkpt lat="45.35146" lon="5.88613">
        <ele>1735.4549560547</ele>
        <time>2017-02-10T11:10:12Z</time>
      </trkpt>
      <trkpt lat="45.35151" lon="5.88616">
        <ele>1735.4549560547</ele>
        <time>2017-02-10T11:10:14Z</time>
      </trkpt>
      <trkpt lat="45.35156" lon="5.8862">
        <ele>1735.4549560547</ele>
        <time>2017-02-10T11:10:16Z</time>
      </trkpt>
      <trkpt lat="45.35162" lon="5.88622">
        <ele>1734.4549560547</ele>
        <time>2017-02-10T11:10:18Z</time>
      </trkpt>
      <trkpt lat="45.35167" lon="5.88626">
        <ele>1733.4549560547</ele>
        <time>2017-02-10T11:10:20Z</time>
      </trkpt>
      <trkpt lat="45.35172" lon="5.88628">
        <ele>1732.4549560547</ele>
        <time>2017-02-10T11:10:22Z</time>
      </trkpt>
      <trkpt lat="45.35177" lon="5.88632">
        <ele>1732.4549560547</ele>
        <time>2017-02-10T11:10:24Z</time>
      </trkpt>
      <trkpt lat="45.35183" lon="5.88635">
        <ele>1733.4549560547</ele>
        <time>2017-02-10T11:10:27Z</time>
      </trkpt>
      <trkpt lat="45.35187" lon="5.88639">
        <ele>1731.4549560547</ele>
        <time>2017-02-10T11:10:31Z</time>
      </trkpt>
      <trkpt lat="45.35191" lon="5.88644">
        <ele>1730.4549560547</ele>
        <time>2017-02-10T11:10:38Z</time>
      </trkpt>
      <trkpt lat="45.35193" lon="5.8865">
        <ele>1725.4549560547</ele>
        <time>2017-02-10T11:10:43Z</time>
      </trkpt>
      <trkpt lat="45.35198" lon="5.88653">
        <ele>1724.4549560547</ele>
        <time>2017-02-10T11:10:49Z</time>
      </trkpt>
      <trkpt lat="45.35203" lon="5.88655">
        <ele>1723.4549560547</ele>
        <time>2017-02-10T11:10:53Z</time>
      </trkpt>
      <trkpt lat="45.3521" lon="5.88658">
        <ele>1723.4549560547</ele>
        <time>2017-02-10T11:10:57Z</time>
      </trkpt>
      <trkpt lat="45.35214" lon="5.88659">
        <ele>1722.4549560547</ele>
        <time>2017-02-10T11:11:00Z</time>
      </trkpt>
      <trkpt lat="45.35219" lon="5.8866">
        <ele>1723.4549560547</ele>
        <time>2017-02-10T11:11:03Z</time>
      </trkpt>
      <trkpt lat="45.35224" lon="5.88662">
        <ele>1723.4549560547</ele>
        <time>2017-02-10T11:11:05Z</time>
      </trkpt>
      <trkpt lat="45.35229" lon="5.88662">
        <ele>1724.4549560547</ele>
        <time>2017-02-10T11:11:07Z</time>
      </trkpt>
      <trkpt lat="45.35235" lon="5.88666">
        <ele>1724.4549560547</ele>
        <time>2017-02-10T11:11:09Z</time>
      </trkpt>
      <trkpt lat="45.35241" lon="5.88668">
        <ele>1721.4549560547</ele>
        <time>2017-02-10T11:11:11Z</time>
      </trkpt>
      <trkpt lat="45.35246" lon="5.88669">
        <ele>1722.4549560547</ele>
        <time>2017-02-10T11:11:12Z</time>
      </trkpt>
      <trkpt lat="45.35253" lon="5.88669">
        <ele>1723.4560546875</ele>
        <time>2017-02-10T11:11:14Z</time>
      </trkpt>
      <trkpt lat="45.35257" lon="5.88674">
        <ele>1723.4560546875</ele>
        <time>2017-02-10T11:11:21Z</time>
      </trkpt>
      <trkpt lat="45.35259" lon="5.88682">
        <ele>1722.4560546875</ele>
        <time>2017-02-10T11:14:25Z</time>
      </trkpt>
      <trkpt lat="45.35263" lon="5.88686">
        <ele>1722.4560546875</ele>
        <time>2017-02-10T11:14:28Z</time>
      </trkpt>
      <trkpt lat="45.35268" lon="5.8869">
        <ele>1723.4560546875</ele>
        <time>2017-02-10T11:14:43Z</time>
      </trkpt>
      <trkpt lat="45.35272" lon="5.88695">
        <ele>1723.4560546875</ele>
        <time>2017-02-10T11:14:47Z</time>
      </trkpt>
      <trkpt lat="45.35278" lon="5.88699">
        <ele>1724.4560546875</ele>
        <time>2017-02-10T11:14:50Z</time>
      </trkpt>
      <trkpt lat="45.35281" lon="5.88704">
        <ele>1725.4560546875</ele>
        <time>2017-02-10T11:14:55Z</time>
      </trkpt>
      <trkpt lat="45.35281" lon="5.88711">
        <ele>1726.4560546875</ele>
        <time>2017-02-10T11:15:00Z</time>
      </trkpt>
      <trkpt lat="45.35283" lon="5.88718">
        <ele>1725.4560546875</ele>
        <time>2017-02-10T11:15:05Z</time>
      </trkpt>
      <trkpt lat="45.35284" lon="5.88726">
        <ele>1722.4560546875</ele>
        <time>2017-02-10T11:15:11Z</time>
      </trkpt>
      <trkpt lat="45.35286" lon="5.88732">
        <ele>1723.4560546875</ele>
        <time>2017-02-10T11:15:17Z</time>
      </trkpt>
      <trkpt lat="45.35286" lon="5.88739">
        <ele>1724.4560546875</ele>
        <time>2017-02-10T11:15:22Z</time>
      </trkpt>
      <trkpt lat="45.3529" lon="5.88744">
        <ele>1725.4560546875</ele>
        <time>2017-02-10T11:15:25Z</time>
      </trkpt>
      <trkpt lat="45.35291" lon="5.8875">
        <ele>1725.4560546875</ele>
        <time>2017-02-10T11:15:30Z</time>
      </trkpt>
      <trkpt lat="45.35296" lon="5.88754">
        <ele>1725.4560546875</ele>
        <time>2017-02-10T11:15:33Z</time>
      </trkpt>
      <trkpt lat="45.35299" lon="5.8876">
        <ele>1726.4560546875</ele>
        <time>2017-02-10T11:15:39Z</time>
      </trkpt>
      <trkpt lat="45.35302" lon="5.88765">
        <ele>1725.4560546875</ele>
        <time>2017-02-10T11:15:44Z</time>
      </trkpt>
      <trkpt lat="45.35306" lon="5.88768">
        <ele>1724.4560546875</ele>
        <time>2017-02-10T11:15:47Z</time>
      </trkpt>
      <trkpt lat="45.35309" lon="5.88774">
        <ele>1725.4560546875</ele>
        <time>2017-02-10T11:15:52Z</time>
      </trkpt>
      <trkpt lat="45.35312" lon="5.88779">
        <ele>1726.4560546875</ele>
        <time>2017-02-10T11:15:57Z</time>
      </trkpt>
      <trkpt lat="45.35315" lon="5.88784">
        <ele>1726.4560546875</ele>
        <time>2017-02-10T11:16:01Z</time>
      </trkpt>
      <trkpt lat="45.35318" lon="5.88791">
        <ele>1727.4560546875</ele>
        <time>2017-02-10T11:16:06Z</time>
      </trkpt>
      <trkpt lat="45.35321" lon="5.88796">
        <ele>1727.4560546875</ele>
        <time>2017-02-10T11:16:11Z</time>
      </trkpt>
      <trkpt lat="45.35325" lon="5.88802">
        <ele>1727.4560546875</ele>
        <time>2017-02-10T11:16:15Z</time>
      </trkpt>
      <trkpt lat="45.35328" lon="5.88807">
        <ele>1727.4560546875</ele>
        <time>2017-02-10T11:16:19Z</time>
      </trkpt>
      <trkpt lat="45.35333" lon="5.88812">
        <ele>1727.4560546875</ele>
        <time>2017-02-10T11:16:23Z</time>
      </trkpt>
      <trkpt lat="45.35338" lon="5.88816">
        <ele>1727.4560546875</ele>
        <time>2017-02-10T11:16:26Z</time>
      </trkpt>
      <trkpt lat="45.35342" lon="5.88821">
        <ele>1728.4560546875</ele>
        <time>2017-02-10T11:16:29Z</time>
      </trkpt>
      <trkpt lat="45.35346" lon="5.88826">
        <ele>1729.4560546875</ele>
        <time>2017-02-10T11:16:34Z</time>
      </trkpt>
      <trkpt lat="45.35348" lon="5.88832">
        <ele>1730.4560546875</ele>
        <time>2017-02-10T11:16:40Z</time>
      </trkpt>
      <trkpt lat="45.35353" lon="5.88838">
        <ele>1730.4560546875</ele>
        <time>2017-02-10T11:16:46Z</time>
      </trkpt>
      <trkpt lat="45.35358" lon="5.88841">
        <ele>1731.4560546875</ele>
        <time>2017-02-10T11:16:49Z</time>
      </trkpt>
      <trkpt lat="45.35359" lon="5.88848">
        <ele>1733.4560546875</ele>
        <time>2017-02-10T11:16:56Z</time>
      </trkpt>
      <trkpt lat="45.35363" lon="5.88852">
        <ele>1732.4560546875</ele>
        <time>2017-02-10T11:17:00Z</time>
      </trkpt>
      <trkpt lat="45.35368" lon="5.88859">
        <ele>1734.4560546875</ele>
        <time>2017-02-10T11:17:06Z</time>
      </trkpt>
      <trkpt lat="45.35373" lon="5.88864">
        <ele>1733.4560546875</ele>
        <time>2017-02-10T11:17:10Z</time>
      </trkpt>
      <trkpt lat="45.35374" lon="5.88871">
        <ele>1733.4560546875</ele>
        <time>2017-02-10T11:17:17Z</time>
      </trkpt>
      <trkpt lat="45.35376" lon="5.88878">
        <ele>1730.4560546875</ele>
        <time>2017-02-10T11:17:22Z</time>
      </trkpt>
      <trkpt lat="45.35379" lon="5.88884">
        <ele>1729.4560546875</ele>
        <time>2017-02-10T11:17:27Z</time>
      </trkpt>
      <trkpt lat="45.35384" lon="5.88888">
        <ele>1729.4560546875</ele>
        <time>2017-02-10T11:17:31Z</time>
      </trkpt>
      <trkpt lat="45.35387" lon="5.88894">
        <ele>1730.4560546875</ele>
        <time>2017-02-10T11:17:35Z</time>
      </trkpt>
      <trkpt lat="45.35391" lon="5.88898">
        <ele>1728.4560546875</ele>
        <time>2017-02-10T11:17:39Z</time>
      </trkpt>
      <trkpt lat="45.35394" lon="5.88903">
        <ele>1727.4560546875</ele>
        <time>2017-02-10T11:17:44Z</time>
      </trkpt>
      <trkpt lat="45.35399" lon="5.88909">
        <ele>1729.4560546875</ele>
        <time>2017-02-10T11:17:51Z</time>
      </trkpt>
      <trkpt lat="45.35403" lon="5.88913">
        <ele>1732.4560546875</ele>
        <time>2017-02-10T11:17:56Z</time>
      </trkpt>
      <trkpt lat="45.35407" lon="5.88917">
        <ele>1731.4560546875</ele>
        <time>2017-02-10T11:18:01Z</time>
      </trkpt>
      <trkpt lat="45.35412" lon="5.88922">
        <ele>1730.4560546875</ele>
        <time>2017-02-10T11:18:07Z</time>
      </trkpt>
      <trkpt lat="45.35417" lon="5.88926">
        <ele>1730.4560546875</ele>
        <time>2017-02-10T11:18:12Z</time>
      </trkpt>
      <trkpt lat="45.35421" lon="5.88928">
        <ele>1729.4560546875</ele>
        <time>2017-02-10T11:18:15Z</time>
      </trkpt>
      <trkpt lat="45.35426" lon="5.88932">
        <ele>1729.4560546875</ele>
        <time>2017-02-10T11:18:19Z</time>
      </trkpt>
      <trkpt lat="45.35429" lon="5.88937">
        <ele>1728.4560546875</ele>
        <time>2017-02-10T11:18:23Z</time>
      </trkpt>
      <trkpt lat="45.3543" lon="5.88944">
        <ele>1728.4560546875</ele>
        <time>2017-02-10T11:18:27Z</time>
      </trkpt>
      <trkpt lat="45.3543" lon="5.8895">
        <ele>1727.4560546875</ele>
        <time>2017-02-10T11:18:29Z</time>
      </trkpt>
      <trkpt lat="45.35434" lon="5.88958">
        <ele>1727.4560546875</ele>
        <time>2017-02-10T11:18:32Z</time>
      </trkpt>
      <trkpt lat="45.35437" lon="5.88963">
        <ele>1725.4560546875</ele>
        <time>2017-02-10T11:18:37Z</time>
      </trkpt>
      <trkpt lat="45.35441" lon="5.88966">
        <ele>1726.4560546875</ele>
        <time>2017-02-10T11:18:40Z</time>
      </trkpt>
      <trkpt lat="45.35446" lon="5.88969">
        <ele>1727.4560546875</ele>
        <time>2017-02-10T11:18:45Z</time>
      </trkpt>
      <trkpt lat="45.3545" lon="5.88972">
        <ele>1727.4560546875</ele>
        <time>2017-02-10T11:18:50Z</time>
      </trkpt>
      <trkpt lat="45.35454" lon="5.88977">
        <ele>1725.4560546875</ele>
        <time>2017-02-10T11:18:55Z</time>
      </trkpt>
      <trkpt lat="45.35458" lon="5.88979">
        <ele>1726.4560546875</ele>
        <time>2017-02-10T11:18:58Z</time>
      </trkpt>
      <trkpt lat="45.35463" lon="5.88981">
        <ele>1726.4560546875</ele>
        <time>2017-02-10T11:19:01Z</time>
      </trkpt>
      <trkpt lat="45.35468" lon="5.88983">
        <ele>1727.4560546875</ele>
        <time>2017-02-10T11:19:05Z</time>
      </trkpt>
      <trkpt lat="45.35473" lon="5.88985">
        <ele>1728.4560546875</ele>
        <time>2017-02-10T11:19:08Z</time>
      </trkpt>
      <trkpt lat="45.35478" lon="5.88988">
        <ele>1728.4560546875</ele>
        <time>2017-02-10T11:19:12Z</time>
      </trkpt>
      <trkpt lat="45.35482" lon="5.8899">
        <ele>1727.4560546875</ele>
        <time>2017-02-10T11:19:52Z</time>
      </trkpt>
      <trkpt lat="45.35486" lon="5.88994">
        <ele>1730.4560546875</ele>
        <time>2017-02-10T11:19:59Z</time>
      </trkpt>
      <trkpt lat="45.3549" lon="5.88999">
        <ele>1730.4560546875</ele>
        <time>2017-02-10T11:20:05Z</time>
      </trkpt>
      <trkpt lat="45.35494" lon="5.89004">
        <ele>1730.4560546875</ele>
        <time>2017-02-10T11:20:13Z</time>
      </trkpt>
      <trkpt lat="45.35497" lon="5.89009">
        <ele>1731.4560546875</ele>
        <time>2017-02-10T11:20:20Z</time>
      </trkpt>
      <trkpt lat="45.355" lon="5.89014">
        <ele>1732.4560546875</ele>
        <time>2017-02-10T11:20:26Z</time>
      </trkpt>
      <trkpt lat="45.35503" lon="5.8902">
        <ele>1734.4560546875</ele>
        <time>2017-02-10T11:20:34Z</time>
      </trkpt>
      <trkpt lat="45.35507" lon="5.89024">
        <ele>1736.4560546875</ele>
        <time>2017-02-10T11:20:40Z</time>
      </trkpt>
      <trkpt lat="45.35511" lon="5.89027">
        <ele>1735.45703125</ele>
        <time>2017-02-10T11:20:46Z</time>
      </trkpt>
      <trkpt lat="45.35514" lon="5.89032">
        <ele>1738.45703125</ele>
        <time>2017-02-10T11:20:53Z</time>
      </trkpt>
      <trkpt lat="45.35516" lon="5.89039">
        <ele>1739.45703125</ele>
        <time>2017-02-10T11:20:59Z</time>
      </trkpt>
      <trkpt lat="45.3552" lon="5.89044">
        <ele>1738.45703125</ele>
        <time>2017-02-10T11:21:04Z</time>
      </trkpt>
      <trkpt lat="45.35523" lon="5.89048">
        <ele>1738.45703125</ele>
        <time>2017-02-10T11:21:09Z</time>
      </trkpt>
      <trkpt lat="45.35526" lon="5.89055">
        <ele>1740.45703125</ele>
        <time>2017-02-10T11:21:19Z</time>
      </trkpt>
      <trkpt lat="45.35529" lon="5.8906">
        <ele>1742.45703125</ele>
        <time>2017-02-10T11:21:25Z</time>
      </trkpt>
      <trkpt lat="45.35532" lon="5.89065">
        <ele>1741.45703125</ele>
        <time>2017-02-10T11:21:31Z</time>
      </trkpt>
      <trkpt lat="45.35538" lon="5.89068">
        <ele>1741.45703125</ele>
        <time>2017-02-10T11:21:37Z</time>
      </trkpt>
      <trkpt lat="45.35539" lon="5.89075">
        <ele>1741.45703125</ele>
        <time>2017-02-10T11:21:45Z</time>
      </trkpt>
      <trkpt lat="45.35542" lon="5.8908">
        <ele>1742.45703125</ele>
        <time>2017-02-10T11:21:51Z</time>
      </trkpt>
      <trkpt lat="45.35545" lon="5.89085">
        <ele>1743.45703125</ele>
        <time>2017-02-10T11:21:58Z</time>
      </trkpt>
      <trkpt lat="45.35549" lon="5.8909">
        <ele>1744.45703125</ele>
        <time>2017-02-10T11:22:05Z</time>
      </trkpt>
      <trkpt lat="45.35553" lon="5.89094">
        <ele>1745.45703125</ele>
        <time>2017-02-10T11:22:12Z</time>
      </trkpt>
      <trkpt lat="45.35557" lon="5.89098">
        <ele>1746.45703125</ele>
        <time>2017-02-10T11:22:22Z</time>
      </trkpt>
      <trkpt lat="45.35564" lon="5.89104">
        <ele>1748.45703125</ele>
        <time>2017-02-10T11:22:41Z</time>
      </trkpt>
      <trkpt lat="45.35566" lon="5.89109">
        <ele>1751.45703125</ele>
        <time>2017-02-10T11:22:46Z</time>
      </trkpt>
      <trkpt lat="45.35571" lon="5.89113">
        <ele>1754.45703125</ele>
        <time>2017-02-10T11:22:52Z</time>
      </trkpt>
      <trkpt lat="45.35574" lon="5.89119">
        <ele>1757.45703125</ele>
        <time>2017-02-10T11:23:01Z</time>
      </trkpt>
      <trkpt lat="45.35578" lon="5.89123">
        <ele>1756.45703125</ele>
        <time>2017-02-10T11:23:05Z</time>
      </trkpt>
      <trkpt lat="45.35582" lon="5.89128">
        <ele>1754.45703125</ele>
        <time>2017-02-10T11:23:10Z</time>
      </trkpt>
      <trkpt lat="45.35585" lon="5.89132">
        <ele>1754.45703125</ele>
        <time>2017-02-10T11:23:15Z</time>
      </trkpt>
      <trkpt lat="45.35589" lon="5.89138">
        <ele>1757.45703125</ele>
        <time>2017-02-10T11:23:22Z</time>
      </trkpt>
      <trkpt lat="45.35591" lon="5.89144">
        <ele>1758.45703125</ele>
        <time>2017-02-10T11:23:29Z</time>
      </trkpt>
      <trkpt lat="45.35594" lon="5.89152">
        <ele>1760.45703125</ele>
        <time>2017-02-10T11:23:36Z</time>
      </trkpt>
      <trkpt lat="45.35597" lon="5.89158">
        <ele>1760.45703125</ele>
        <time>2017-02-10T11:23:43Z</time>
      </trkpt>
      <trkpt lat="45.35601" lon="5.89162">
        <ele>1760.45703125</ele>
        <time>2017-02-10T11:23:47Z</time>
      </trkpt>
      <trkpt lat="45.35604" lon="5.89167">
        <ele>1759.45703125</ele>
        <time>2017-02-10T11:23:52Z</time>
      </trkpt>
      <trkpt lat="45.35606" lon="5.89174">
        <ele>1760.45703125</ele>
        <time>2017-02-10T11:23:58Z</time>
      </trkpt>
      <trkpt lat="45.3561" lon="5.89179">
        <ele>1759.45703125</ele>
        <time>2017-02-10T11:24:02Z</time>
      </trkpt>
      <trkpt lat="45.35613" lon="5.89183">
        <ele>1759.45703125</ele>
        <time>2017-02-10T11:24:08Z</time>
      </trkpt>
      <trkpt lat="45.35616" lon="5.89189">
        <ele>1760.45703125</ele>
        <time>2017-02-10T11:24:14Z</time>
      </trkpt>
      <trkpt lat="45.35619" lon="5.89195">
        <ele>1761.45703125</ele>
        <time>2017-02-10T11:24:20Z</time>
      </trkpt>
      <trkpt lat="45.35622" lon="5.89201">
        <ele>1762.45703125</ele>
        <time>2017-02-10T11:24:26Z</time>
      </trkpt>
      <trkpt lat="45.35625" lon="5.89207">
        <ele>1765.45703125</ele>
        <time>2017-02-10T11:24:33Z</time>
      </trkpt>
      <trkpt lat="45.35626" lon="5.89213">
        <ele>1765.45703125</ele>
        <time>2017-02-10T11:24:40Z</time>
      </trkpt>
      <trkpt lat="45.3563" lon="5.89218">
        <ele>1766.45703125</ele>
        <time>2017-02-10T11:24:47Z</time>
      </trkpt>
      <trkpt lat="45.35631" lon="5.89225">
        <ele>1765.45703125</ele>
        <time>2017-02-10T11:24:56Z</time>
      </trkpt>
      <trkpt lat="45.35634" lon="5.89232">
        <ele>1767.45703125</ele>
        <time>2017-02-10T11:25:03Z</time>
      </trkpt>
      <trkpt lat="45.35637" lon="5.89237">
        <ele>1767.45703125</ele>
        <time>2017-02-10T11:25:10Z</time>
      </trkpt>
      <trkpt lat="45.35636" lon="5.89243">
        <ele>1770.45703125</ele>
        <time>2017-02-10T11:25:18Z</time>
      </trkpt>
      <trkpt lat="45.35639" lon="5.89248">
        <ele>1771.45703125</ele>
        <time>2017-02-10T11:25:40Z</time>
      </trkpt>
      <trkpt lat="45.35643" lon="5.89253">
        <ele>1772.45703125</ele>
        <time>2017-02-10T11:25:44Z</time>
      </trkpt>
      <trkpt lat="45.35646" lon="5.89258">
        <ele>1771.45703125</ele>
        <time>2017-02-10T11:25:50Z</time>
      </trkpt>
      <trkpt lat="45.35649" lon="5.89263">
        <ele>1771.45703125</ele>
        <time>2017-02-10T11:25:56Z</time>
      </trkpt>
      <trkpt lat="45.35652" lon="5.89268">
        <ele>1774.45703125</ele>
        <time>2017-02-10T11:26:03Z</time>
      </trkpt>
      <trkpt lat="45.35655" lon="5.89274">
        <ele>1776.45703125</ele>
        <time>2017-02-10T11:26:11Z</time>
      </trkpt>
      <trkpt lat="45.35659" lon="5.8928">
        <ele>1776.45703125</ele>
        <time>2017-02-10T11:26:18Z</time>
      </trkpt>
      <trkpt lat="45.35662" lon="5.89285">
        <ele>1776.45703125</ele>
        <time>2017-02-10T11:26:23Z</time>
      </trkpt>
      <trkpt lat="45.35666" lon="5.8929">
        <ele>1778.45703125</ele>
        <time>2017-02-10T11:26:28Z</time>
      </trkpt>
      <trkpt lat="45.35669" lon="5.89295">
        <ele>1779.45703125</ele>
        <time>2017-02-10T11:26:33Z</time>
      </trkpt>
      <trkpt lat="45.35671" lon="5.89301">
        <ele>1780.45703125</ele>
        <time>2017-02-10T11:26:40Z</time>
      </trkpt>
      <trkpt lat="45.35671" lon="5.89308">
        <ele>1781.45703125</ele>
        <time>2017-02-10T11:26:48Z</time>
      </trkpt>
      <trkpt lat="45.35673" lon="5.89314">
        <ele>1783.45703125</ele>
        <time>2017-02-10T11:26:56Z</time>
      </trkpt>
      <trkpt lat="45.35676" lon="5.89319">
        <ele>1783.45703125</ele>
        <time>2017-02-10T11:27:05Z</time>
      </trkpt>
      <trkpt lat="45.3568" lon="5.89324">
        <ele>1783.45703125</ele>
        <time>2017-02-10T11:27:11Z</time>
      </trkpt>
      <trkpt lat="45.35682" lon="5.8933">
        <ele>1785.45703125</ele>
        <time>2017-02-10T11:27:24Z</time>
      </trkpt>
      <trkpt lat="45.35685" lon="5.89337">
        <ele>1787.45703125</ele>
        <time>2017-02-10T11:27:32Z</time>
      </trkpt>
      <trkpt lat="45.3569" lon="5.89341">
        <ele>1788.45703125</ele>
        <time>2017-02-10T11:27:37Z</time>
      </trkpt>
      <trkpt lat="45.35692" lon="5.89347">
        <ele>1789.45703125</ele>
        <time>2017-02-10T11:27:49Z</time>
      </trkpt>
      <trkpt lat="45.35695" lon="5.89352">
        <ele>1789.45703125</ele>
        <time>2017-02-10T11:27:56Z</time>
      </trkpt>
      <trkpt lat="45.35697" lon="5.89359">
        <ele>1789.45703125</ele>
        <time>2017-02-10T11:28:02Z</time>
      </trkpt>
      <trkpt lat="45.35697" lon="5.89366">
        <ele>1793.45703125</ele>
        <time>2017-02-10T11:28:11Z</time>
      </trkpt>
      <trkpt lat="45.35698" lon="5.89372">
        <ele>1794.45703125</ele>
        <time>2017-02-10T11:28:19Z</time>
      </trkpt>
      <trkpt lat="45.35698" lon="5.89379">
        <ele>1795.45703125</ele>
        <time>2017-02-10T11:28:41Z</time>
      </trkpt>
      <trkpt lat="45.35701" lon="5.89385">
        <ele>1793.45703125</ele>
        <time>2017-02-10T11:28:47Z</time>
      </trkpt>
      <trkpt lat="45.35701" lon="5.89392">
        <ele>1794.45703125</ele>
        <time>2017-02-10T11:28:55Z</time>
      </trkpt>
      <trkpt lat="45.35703" lon="5.89398">
        <ele>1797.45703125</ele>
        <time>2017-02-10T11:29:03Z</time>
      </trkpt>
      <trkpt lat="45.35705" lon="5.89405">
        <ele>1797.45703125</ele>
        <time>2017-02-10T11:29:10Z</time>
      </trkpt>
      <trkpt lat="45.35707" lon="5.89412">
        <ele>1799.45703125</ele>
        <time>2017-02-10T11:29:17Z</time>
      </trkpt>
      <trkpt lat="45.35708" lon="5.89418">
        <ele>1799.45703125</ele>
        <time>2017-02-10T11:29:25Z</time>
      </trkpt>
      <trkpt lat="45.35712" lon="5.89425">
        <ele>1801.45703125</ele>
        <time>2017-02-10T11:29:35Z</time>
      </trkpt>
      <trkpt lat="45.35714" lon="5.89431">
        <ele>1801.45703125</ele>
        <time>2017-02-10T11:29:40Z</time>
      </trkpt>
      <trkpt lat="45.35717" lon="5.89437">
        <ele>1805.45703125</ele>
        <time>2017-02-10T11:29:49Z</time>
      </trkpt>
      <trkpt lat="45.35719" lon="5.89444">
        <ele>1807.45703125</ele>
        <time>2017-02-10T11:29:56Z</time>
      </trkpt>
      <trkpt lat="45.35722" lon="5.89451">
        <ele>1807.4580078125</ele>
        <time>2017-02-10T11:30:04Z</time>
      </trkpt>
      <trkpt lat="45.35724" lon="5.89456">
        <ele>1807.4580078125</ele>
        <time>2017-02-10T11:30:37Z</time>
      </trkpt>
      <trkpt lat="45.35727" lon="5.89462">
        <ele>1809.4580078125</ele>
        <time>2017-02-10T11:30:42Z</time>
      </trkpt>
      <trkpt lat="45.3573" lon="5.89469">
        <ele>1808.4580078125</ele>
        <time>2017-02-10T11:30:49Z</time>
      </trkpt>
      <trkpt lat="45.35731" lon="5.89476">
        <ele>1810.4580078125</ele>
        <time>2017-02-10T11:30:57Z</time>
      </trkpt>
      <trkpt lat="45.35733" lon="5.89482">
        <ele>1811.4580078125</ele>
        <time>2017-02-10T11:31:05Z</time>
      </trkpt>
      <trkpt lat="45.35736" lon="5.89487">
        <ele>1809.4580078125</ele>
        <time>2017-02-10T11:31:11Z</time>
      </trkpt>
      <trkpt lat="45.35739" lon="5.89493">
        <ele>1810.4580078125</ele>
        <time>2017-02-10T11:31:21Z</time>
      </trkpt>
      <trkpt lat="45.35739" lon="5.895">
        <ele>1810.4580078125</ele>
        <time>2017-02-10T11:31:52Z</time>
      </trkpt>
      <trkpt lat="45.35742" lon="5.89505">
        <ele>1814.4580078125</ele>
        <time>2017-02-10T11:34:34Z</time>
      </trkpt>
      <trkpt lat="45.35743" lon="5.89512">
        <ele>1815.4580078125</ele>
        <time>2017-02-10T11:34:51Z</time>
      </trkpt>
      <trkpt lat="45.35743" lon="5.89519">
        <ele>1817.4580078125</ele>
        <time>2017-02-10T11:35:01Z</time>
      </trkpt>
      <trkpt lat="45.35746" lon="5.89524">
        <ele>1816.4580078125</ele>
        <time>2017-02-10T11:35:08Z</time>
      </trkpt>
      <trkpt lat="45.35749" lon="5.89529">
        <ele>1817.4580078125</ele>
        <time>2017-02-10T11:35:16Z</time>
      </trkpt>
      <trkpt lat="45.35751" lon="5.89535">
        <ele>1819.4580078125</ele>
        <time>2017-02-10T11:35:25Z</time>
      </trkpt>
      <trkpt lat="45.35755" lon="5.89539">
        <ele>1819.4580078125</ele>
        <time>2017-02-10T11:35:42Z</time>
      </trkpt>
      <trkpt lat="45.35754" lon="5.89546">
        <ele>1817.4580078125</ele>
        <time>2017-02-10T11:35:48Z</time>
      </trkpt>
      <trkpt lat="45.35755" lon="5.89555">
        <ele>1818.4580078125</ele>
        <time>2017-02-10T11:36:03Z</time>
      </trkpt>
      <trkpt lat="45.35758" lon="5.8956">
        <ele>1816.4580078125</ele>
        <time>2017-02-10T11:36:09Z</time>
      </trkpt>
      <trkpt lat="45.35763" lon="5.89563">
        <ele>1818.4580078125</ele>
        <time>2017-02-10T11:36:16Z</time>
      </trkpt>
      <trkpt lat="45.35764" lon="5.89569">
        <ele>1819.4580078125</ele>
        <time>2017-02-10T11:36:24Z</time>
      </trkpt>
      <trkpt lat="45.35767" lon="5.89575">
        <ele>1819.4580078125</ele>
        <time>2017-02-10T11:36:31Z</time>
      </trkpt>
      <trkpt lat="45.3577" lon="5.89579">
        <ele>1824.4580078125</ele>
        <time>2017-02-10T11:36:41Z</time>
      </trkpt>
      <trkpt lat="45.35772" lon="5.89586">
        <ele>1823.4580078125</ele>
        <time>2017-02-10T11:37:02Z</time>
      </trkpt>
      <trkpt lat="45.35773" lon="5.89593">
        <ele>1825.4580078125</ele>
        <time>2017-02-10T11:37:13Z</time>
      </trkpt>
      <trkpt lat="45.35772" lon="5.896">
        <ele>1825.4580078125</ele>
        <time>2017-02-10T11:37:22Z</time>
      </trkpt>
      <trkpt lat="45.35773" lon="5.89607">
        <ele>1826.4580078125</ele>
        <time>2017-02-10T11:37:40Z</time>
      </trkpt>
      <trkpt lat="45.35776" lon="5.89614">
        <ele>1828.4580078125</ele>
        <time>2017-02-10T11:37:46Z</time>
      </trkpt>
      <trkpt lat="45.35781" lon="5.89615">
        <ele>1829.4580078125</ele>
        <time>2017-02-10T11:37:51Z</time>
      </trkpt>
      <trkpt lat="45.35784" lon="5.89621">
        <ele>1831.4580078125</ele>
        <time>2017-02-10T11:38:04Z</time>
      </trkpt>
      <trkpt lat="45.35787" lon="5.89624">
        <ele>1830.4580078125</ele>
        <time>2017-02-10T11:38:17Z</time>
      </trkpt>
      <trkpt lat="45.35792" lon="5.8963">
        <ele>1833.4580078125</ele>
        <time>2017-02-10T11:38:30Z</time>
      </trkpt>
      <trkpt lat="45.35791" lon="5.89637">
        <ele>1837.4580078125</ele>
        <time>2017-02-10T11:38:37Z</time>
      </trkpt>
      <trkpt lat="45.35795" lon="5.89641">
        <ele>1836.4580078125</ele>
        <time>2017-02-10T11:38:41Z</time>
      </trkpt>
      <trkpt lat="45.35796" lon="5.89648">
        <ele>1839.4580078125</ele>
        <time>2017-02-10T11:38:58Z</time>
      </trkpt>
      <trkpt lat="45.35797" lon="5.89654">
        <ele>1840.4580078125</ele>
        <time>2017-02-10T11:39:05Z</time>
      </trkpt>
      <trkpt lat="45.35802" lon="5.89658">
        <ele>1841.4580078125</ele>
        <time>2017-02-10T11:39:10Z</time>
      </trkpt>
      <trkpt lat="45.35801" lon="5.89665">
        <ele>1840.4580078125</ele>
        <time>2017-02-10T11:39:17Z</time>
      </trkpt>
      <trkpt lat="45.35806" lon="5.89669">
        <ele>1840.4580078125</ele>
        <time>2017-02-10T11:39:23Z</time>
      </trkpt>
      <trkpt lat="45.35809" lon="5.89676">
        <ele>1841.4580078125</ele>
        <time>2017-02-10T11:39:41Z</time>
      </trkpt>
      <trkpt lat="45.35807" lon="5.89682">
        <ele>1837.4580078125</ele>
        <time>2017-02-10T11:39:43Z</time>
      </trkpt>
      <trkpt lat="45.35812" lon="5.89687">
        <ele>1837.4580078125</ele>
        <time>2017-02-10T11:40:08Z</time>
      </trkpt>
      <trkpt lat="45.35816" lon="5.89693">
        <ele>1837.4580078125</ele>
        <time>2017-02-10T11:40:14Z</time>
      </trkpt>
      <trkpt lat="45.3582" lon="5.89699">
        <ele>1838.4580078125</ele>
        <time>2017-02-10T11:40:19Z</time>
      </trkpt>
      <trkpt lat="45.3582" lon="5.89706">
        <ele>1837.4580078125</ele>
        <time>2017-02-10T11:40:25Z</time>
      </trkpt>
      <trkpt lat="45.35823" lon="5.89711">
        <ele>1838.4580078125</ele>
        <time>2017-02-10T11:40:30Z</time>
      </trkpt>
      <trkpt lat="45.35829" lon="5.89714">
        <ele>1839.4580078125</ele>
        <time>2017-02-10T11:40:35Z</time>
      </trkpt>
      <trkpt lat="45.35834" lon="5.89715">
        <ele>1841.4580078125</ele>
        <time>2017-02-10T11:40:39Z</time>
      </trkpt>
      <trkpt lat="45.35837" lon="5.89721">
        <ele>1840.4580078125</ele>
        <time>2017-02-10T11:40:49Z</time>
      </trkpt>
      <trkpt lat="45.35841" lon="5.89726">
        <ele>1840.4580078125</ele>
        <time>2017-02-10T11:40:54Z</time>
      </trkpt>
      <trkpt lat="45.35839" lon="5.89732">
        <ele>1841.4580078125</ele>
        <time>2017-02-10T11:41:01Z</time>
      </trkpt>
      <trkpt lat="45.35837" lon="5.89725">
        <ele>1839.4580078125</ele>
        <time>2017-02-10T11:45:58Z</time>
      </trkpt>
      <trkpt lat="45.35832" lon="5.8972">
        <ele>1838.4580078125</ele>
        <time>2017-02-10T11:46:00Z</time>
      </trkpt>
      <trkpt lat="45.35828" lon="5.89714">
        <ele>1837.4580078125</ele>
        <time>2017-02-10T11:46:02Z</time>
      </trkpt>
      <trkpt lat="45.35823" lon="5.89709">
        <ele>1836.4580078125</ele>
        <time>2017-02-10T11:46:04Z</time>
      </trkpt>
      <trkpt lat="45.35819" lon="5.89704">
        <ele>1836.4580078125</ele>
        <time>2017-02-10T11:46:07Z</time>
      </trkpt>
      <trkpt lat="45.35817" lon="5.89698">
        <ele>1835.4580078125</ele>
        <time>2017-02-10T11:46:10Z</time>
      </trkpt>
      <trkpt lat="45.35814" lon="5.89692">
        <ele>1836.4580078125</ele>
        <time>2017-02-10T11:46:13Z</time>
      </trkpt>
      <trkpt lat="45.35813" lon="5.89701">
        <ele>1834.4580078125</ele>
        <time>2017-02-10T11:46:17Z</time>
      </trkpt>
      <trkpt lat="45.35813" lon="5.89709">
        <ele>1833.4580078125</ele>
        <time>2017-02-10T11:46:19Z</time>
      </trkpt>
      <trkpt lat="45.35813" lon="5.89717">
        <ele>1833.4580078125</ele>
        <time>2017-02-10T11:46:22Z</time>
      </trkpt>
      <trkpt lat="45.35812" lon="5.89723">
        <ele>1832.4580078125</ele>
        <time>2017-02-10T11:46:24Z</time>
      </trkpt>
      <trkpt lat="45.35808" lon="5.8973">
        <ele>1830.4580078125</ele>
        <time>2017-02-10T11:46:27Z</time>
      </trkpt>
      <trkpt lat="45.35808" lon="5.89738">
        <ele>1828.4580078125</ele>
        <time>2017-02-10T11:46:31Z</time>
      </trkpt>
      <trkpt lat="45.35814" lon="5.89737">
        <ele>1825.4580078125</ele>
        <time>2017-02-10T11:46:38Z</time>
      </trkpt>
      <trkpt lat="45.35814" lon="5.89744">
        <ele>1823.4580078125</ele>
        <time>2017-02-10T11:46:44Z</time>
      </trkpt>
      <trkpt lat="45.35811" lon="5.8975">
        <ele>1818.4580078125</ele>
        <time>2017-02-10T11:46:53Z</time>
      </trkpt>
      <trkpt lat="45.35813" lon="5.89756">
        <ele>1817.4580078125</ele>
        <time>2017-02-10T11:47:21Z</time>
      </trkpt>
      <trkpt lat="45.35816" lon="5.89763">
        <ele>1817.4580078125</ele>
        <time>2017-02-10T11:47:25Z</time>
      </trkpt>
      <trkpt lat="45.3582" lon="5.89772">
        <ele>1813.4580078125</ele>
        <time>2017-02-10T11:47:29Z</time>
      </trkpt>
      <trkpt lat="45.35824" lon="5.89778">
        <ele>1811.4580078125</ele>
        <time>2017-02-10T11:47:31Z</time>
      </trkpt>
      <trkpt lat="45.3582" lon="5.89783">
        <ele>1808.4580078125</ele>
        <time>2017-02-10T11:47:39Z</time>
      </trkpt>
      <trkpt lat="45.35823" lon="5.89788">
        <ele>1805.4580078125</ele>
        <time>2017-02-10T11:47:42Z</time>
      </trkpt>
      <trkpt lat="45.35827" lon="5.89791">
        <ele>1797.4580078125</ele>
        <time>2017-02-10T11:47:48Z</time>
      </trkpt>
      <trkpt lat="45.35822" lon="5.89793">
        <ele>1781.4580078125</ele>
        <time>2017-02-10T11:48:16Z</time>
      </trkpt>
      <trkpt lat="45.35822" lon="5.89802">
        <ele>1779.4580078125</ele>
        <time>2017-02-10T11:48:24Z</time>
      </trkpt>
      <trkpt lat="45.35817" lon="5.89808">
        <ele>1777.4580078125</ele>
        <time>2017-02-10T11:48:55Z</time>
      </trkpt>
      <trkpt lat="45.35812" lon="5.89821">
        <ele>1774.4580078125</ele>
        <time>2017-02-10T11:48:57Z</time>
      </trkpt>
      <trkpt lat="45.35809" lon="5.89833">
        <ele>1767.4580078125</ele>
        <time>2017-02-10T11:49:06Z</time>
      </trkpt>
      <trkpt lat="45.3581" lon="5.89845">
        <ele>1768.4580078125</ele>
        <time>2017-02-10T11:49:12Z</time>
      </trkpt>
      <trkpt lat="45.35813" lon="5.89858">
        <ele>1769.4580078125</ele>
        <time>2017-02-10T11:49:14Z</time>
      </trkpt>
      <trkpt lat="45.35816" lon="5.8987">
        <ele>1767.4580078125</ele>
        <time>2017-02-10T11:49:16Z</time>
      </trkpt>
      <trkpt lat="45.3582" lon="5.89879">
        <ele>1765.4580078125</ele>
        <time>2017-02-10T11:49:18Z</time>
      </trkpt>
      <trkpt lat="45.35826" lon="5.8988">
        <ele>1760.4580078125</ele>
        <time>2017-02-10T11:49:20Z</time>
      </trkpt>
      <trkpt lat="45.35833" lon="5.89884">
        <ele>1754.4580078125</ele>
        <time>2017-02-10T11:49:24Z</time>
      </trkpt>
      <trkpt lat="45.35837" lon="5.89886">
        <ele>1752.4580078125</ele>
        <time>2017-02-10T11:49:26Z</time>
      </trkpt>
      <trkpt lat="45.35841" lon="5.8989">
        <ele>1748.4580078125</ele>
        <time>2017-02-10T11:49:29Z</time>
      </trkpt>
      <trkpt lat="45.35837" lon="5.89899">
        <ele>1746.4580078125</ele>
        <time>2017-02-10T11:49:31Z</time>
      </trkpt>
      <trkpt lat="45.35835" lon="5.89915">
        <ele>1745.4580078125</ele>
        <time>2017-02-10T11:49:33Z</time>
      </trkpt>
      <trkpt lat="45.35829" lon="5.89919">
        <ele>1740.4580078125</ele>
        <time>2017-02-10T11:49:35Z</time>
      </trkpt>
      <trkpt lat="45.35823" lon="5.89923">
        <ele>1740.4580078125</ele>
        <time>2017-02-10T11:49:37Z</time>
      </trkpt>
      <trkpt lat="45.35819" lon="5.89927">
        <ele>1738.4580078125</ele>
        <time>2017-02-10T11:49:46Z</time>
      </trkpt>
      <trkpt lat="45.35819" lon="5.89935">
        <ele>1736.4580078125</ele>
        <time>2017-02-10T11:49:50Z</time>
      </trkpt>
      <trkpt lat="45.35823" lon="5.89938">
        <ele>1732.4580078125</ele>
        <time>2017-02-10T11:49:52Z</time>
      </trkpt>
      <trkpt lat="45.35821" lon="5.89947">
        <ele>1732.4580078125</ele>
        <time>2017-02-10T11:49:54Z</time>
      </trkpt>
      <trkpt lat="45.35825" lon="5.89947">
        <ele>1728.4580078125</ele>
        <time>2017-02-10T11:49:56Z</time>
      </trkpt>
      <trkpt lat="45.35832" lon="5.89947">
        <ele>1726.4580078125</ele>
        <time>2017-02-10T11:49:58Z</time>
      </trkpt>
      <trkpt lat="45.35837" lon="5.89948">
        <ele>1719.4580078125</ele>
        <time>2017-02-10T11:50:07Z</time>
      </trkpt>
      <trkpt lat="45.35841" lon="5.8995">
        <ele>1704.4580078125</ele>
        <time>2017-02-10T11:50:18Z</time>
      </trkpt>
      <trkpt lat="45.35841" lon="5.89956">
        <ele>1698.4580078125</ele>
        <time>2017-02-10T11:50:35Z</time>
      </trkpt>
      <trkpt lat="45.35834" lon="5.89967">
        <ele>1696.4580078125</ele>
        <time>2017-02-10T11:50:37Z</time>
      </trkpt>
      <trkpt lat="45.35829" lon="5.89973">
        <ele>1696.4580078125</ele>
        <time>2017-02-10T11:50:41Z</time>
      </trkpt>
      <trkpt lat="45.35827" lon="5.8998">
        <ele>1696.4580078125</ele>
        <time>2017-02-10T11:50:46Z</time>
      </trkpt>
      <trkpt lat="45.35832" lon="5.89993">
        <ele>1694.4580078125</ele>
        <time>2017-02-10T11:50:49Z</time>
      </trkpt>
      <trkpt lat="45.35837" lon="5.90006">
        <ele>1692.4580078125</ele>
        <time>2017-02-10T11:50:51Z</time>
      </trkpt>
      <trkpt lat="45.35841" lon="5.90002">
        <ele>1684.4580078125</ele>
        <time>2017-02-10T11:51:02Z</time>
      </trkpt>
      <trkpt lat="45.35836" lon="5.90001">
        <ele>1677.4580078125</ele>
        <time>2017-02-10T11:51:16Z</time>
      </trkpt>
      <trkpt lat="45.35833" lon="5.90007">
        <ele>1676.4580078125</ele>
        <time>2017-02-10T11:51:20Z</time>
      </trkpt>
      <trkpt lat="45.35831" lon="5.90013">
        <ele>1669.4580078125</ele>
        <time>2017-02-10T11:51:28Z</time>
      </trkpt>
      <trkpt lat="45.35832" lon="5.90019">
        <ele>1667.4580078125</ele>
        <time>2017-02-10T11:51:34Z</time>
      </trkpt>
      <trkpt lat="45.35832" lon="5.90026">
        <ele>1669.4580078125</ele>
        <time>2017-02-10T11:51:38Z</time>
      </trkpt>
      <trkpt lat="45.35832" lon="5.90033">
        <ele>1669.458984375</ele>
        <time>2017-02-10T11:51:41Z</time>
      </trkpt>
      <trkpt lat="45.35831" lon="5.90043">
        <ele>1668.458984375</ele>
        <time>2017-02-10T11:51:43Z</time>
      </trkpt>
      <trkpt lat="45.35827" lon="5.90049">
        <ele>1665.458984375</ele>
        <time>2017-02-10T11:51:45Z</time>
      </trkpt>
      <trkpt lat="45.35822" lon="5.90049">
        <ele>1657.458984375</ele>
        <time>2017-02-10T11:51:56Z</time>
      </trkpt>
      <trkpt lat="45.35818" lon="5.90044">
        <ele>1647.4580078125</ele>
        <time>2017-02-10T11:52:10Z</time>
      </trkpt>
      <trkpt lat="45.35809" lon="5.90042">
        <ele>1640.4580078125</ele>
        <time>2017-02-10T11:52:17Z</time>
      </trkpt>
      <trkpt lat="45.35803" lon="5.90046">
        <ele>1631.4580078125</ele>
        <time>2017-02-10T11:52:36Z</time>
      </trkpt>
      <trkpt lat="45.35798" lon="5.90046">
        <ele>1626.4580078125</ele>
        <time>2017-02-10T11:52:42Z</time>
      </trkpt>
      <trkpt lat="45.35795" lon="5.90051">
        <ele>1626.4580078125</ele>
        <time>2017-02-10T11:52:53Z</time>
      </trkpt>
      <trkpt lat="45.35787" lon="5.90048">
        <ele>1623.4580078125</ele>
        <time>2017-02-10T11:53:00Z</time>
      </trkpt>
      <trkpt lat="45.35779" lon="5.90045">
        <ele>1619.4580078125</ele>
        <time>2017-02-10T11:53:03Z</time>
      </trkpt>
      <trkpt lat="45.35773" lon="5.90042">
        <ele>1618.4580078125</ele>
        <time>2017-02-10T11:53:06Z</time>
      </trkpt>
      <trkpt lat="45.35766" lon="5.90043">
        <ele>1618.4580078125</ele>
        <time>2017-02-10T11:53:09Z</time>
      </trkpt>
      <trkpt lat="45.35763" lon="5.90047">
        <ele>1619.4580078125</ele>
        <time>2017-02-10T11:53:12Z</time>
      </trkpt>
      <trkpt lat="45.35758" lon="5.90045">
        <ele>1615.4580078125</ele>
        <time>2017-02-10T11:53:16Z</time>
      </trkpt>
      <trkpt lat="45.35756" lon="5.90051">
        <ele>1613.4580078125</ele>
        <time>2017-02-10T11:53:24Z</time>
      </trkpt>
      <trkpt lat="45.35754" lon="5.9006">
        <ele>1611.4580078125</ele>
        <time>2017-02-10T11:53:28Z</time>
      </trkpt>
      <trkpt lat="45.35751" lon="5.90075">
        <ele>1612.4580078125</ele>
        <time>2017-02-10T11:53:30Z</time>
      </trkpt>
      <trkpt lat="45.35745" lon="5.90092">
        <ele>1613.4580078125</ele>
        <time>2017-02-10T11:53:32Z</time>
      </trkpt>
      <trkpt lat="45.35741" lon="5.90096">
        <ele>1612.4580078125</ele>
        <time>2017-02-10T11:53:37Z</time>
      </trkpt>
      <trkpt lat="45.35737" lon="5.90102">
        <ele>1609.4580078125</ele>
        <time>2017-02-10T11:53:40Z</time>
      </trkpt>
      <trkpt lat="45.35733" lon="5.90106">
        <ele>1608.4580078125</ele>
        <time>2017-02-10T11:53:42Z</time>
      </trkpt>
      <trkpt lat="45.35726" lon="5.90111">
        <ele>1606.4580078125</ele>
        <time>2017-02-10T11:53:44Z</time>
      </trkpt>
      <trkpt lat="45.35717" lon="5.90113">
        <ele>1595.4580078125</ele>
        <time>2017-02-10T11:53:50Z</time>
      </trkpt>
      <trkpt lat="45.35714" lon="5.90118">
        <ele>1592.4580078125</ele>
        <time>2017-02-10T11:53:56Z</time>
      </trkpt>
      <trkpt lat="45.3571" lon="5.90125">
        <ele>1590.4580078125</ele>
        <time>2017-02-10T11:54:24Z</time>
      </trkpt>
      <trkpt lat="45.35706" lon="5.90128">
        <ele>1590.4580078125</ele>
        <time>2017-02-10T11:54:26Z</time>
      </trkpt>
      <trkpt lat="45.357" lon="5.90128">
        <ele>1588.4580078125</ele>
        <time>2017-02-10T11:54:29Z</time>
      </trkpt>
      <trkpt lat="45.35696" lon="5.90131">
        <ele>1585.4580078125</ele>
        <time>2017-02-10T11:54:34Z</time>
      </trkpt>
      <trkpt lat="45.35692" lon="5.90127">
        <ele>1579.4580078125</ele>
        <time>2017-02-10T11:54:39Z</time>
      </trkpt>
      <trkpt lat="45.35687" lon="5.90126">
        <ele>1572.4580078125</ele>
        <time>2017-02-10T11:54:47Z</time>
      </trkpt>
      <trkpt lat="45.35682" lon="5.90126">
        <ele>1569.4580078125</ele>
        <time>2017-02-10T11:54:54Z</time>
      </trkpt>
      <trkpt lat="45.35679" lon="5.90131">
        <ele>1570.4580078125</ele>
        <time>2017-02-10T11:54:57Z</time>
      </trkpt>
      <trkpt lat="45.3568" lon="5.90142">
        <ele>1563.4580078125</ele>
        <time>2017-02-10T11:55:12Z</time>
      </trkpt>
      <trkpt lat="45.35676" lon="5.90148">
        <ele>1561.4580078125</ele>
        <time>2017-02-10T11:55:15Z</time>
      </trkpt>
      <trkpt lat="45.35672" lon="5.90152">
        <ele>1557.4580078125</ele>
        <time>2017-02-10T11:55:28Z</time>
      </trkpt>
      <trkpt lat="45.35667" lon="5.90156">
        <ele>1553.4580078125</ele>
        <time>2017-02-10T11:55:38Z</time>
      </trkpt>
      <trkpt lat="45.35666" lon="5.90164">
        <ele>1549.4580078125</ele>
        <time>2017-02-10T11:55:42Z</time>
      </trkpt>
      <trkpt lat="45.35657" lon="5.90171">
        <ele>1546.4580078125</ele>
        <time>2017-02-10T11:55:45Z</time>
      </trkpt>
      <trkpt lat="45.3565" lon="5.90185">
        <ele>1541.4580078125</ele>
        <time>2017-02-10T11:55:48Z</time>
      </trkpt>
      <trkpt lat="45.35645" lon="5.90198">
        <ele>1540.4580078125</ele>
        <time>2017-02-10T11:55:50Z</time>
      </trkpt>
      <trkpt lat="45.3564" lon="5.90197">
        <ele>1540.4580078125</ele>
        <time>2017-02-10T11:55:51Z</time>
      </trkpt>
      <trkpt lat="45.35637" lon="5.90205">
        <ele>1537.4580078125</ele>
        <time>2017-02-10T11:55:54Z</time>
      </trkpt>
      <trkpt lat="45.35636" lon="5.90212">
        <ele>1536.4580078125</ele>
        <time>2017-02-10T11:55:57Z</time>
      </trkpt>
      <trkpt lat="45.35634" lon="5.90219">
        <ele>1534.4580078125</ele>
        <time>2017-02-10T11:56:00Z</time>
      </trkpt>
      <trkpt lat="45.35631" lon="5.90226">
        <ele>1529.4580078125</ele>
        <time>2017-02-10T11:56:05Z</time>
      </trkpt>
      <trkpt lat="45.35629" lon="5.90231">
        <ele>1524.4580078125</ele>
        <time>2017-02-10T11:56:13Z</time>
      </trkpt>
      <trkpt lat="45.35629" lon="5.90241">
        <ele>1522.4580078125</ele>
        <time>2017-02-10T11:56:18Z</time>
      </trkpt>
      <trkpt lat="45.35629" lon="5.90261">
        <ele>1519.4580078125</ele>
        <time>2017-02-10T11:56:21Z</time>
      </trkpt>
      <trkpt lat="45.35629" lon="5.90278">
        <ele>1518.4580078125</ele>
        <time>2017-02-10T11:56:23Z</time>
      </trkpt>
      <trkpt lat="45.35629" lon="5.903">
        <ele>1519.4580078125</ele>
        <time>2017-02-10T11:56:25Z</time>
      </trkpt>
      <trkpt lat="45.35628" lon="5.90308">
        <ele>1522.4580078125</ele>
        <time>2017-02-10T11:56:29Z</time>
      </trkpt>
      <trkpt lat="45.35624" lon="5.90312">
        <ele>1516.4580078125</ele>
        <time>2017-02-10T11:56:33Z</time>
      </trkpt>
      <trkpt lat="45.3562" lon="5.90318">
        <ele>1516.4580078125</ele>
        <time>2017-02-10T11:56:37Z</time>
      </trkpt>
      <trkpt lat="45.35616" lon="5.90321">
        <ele>1511.4580078125</ele>
        <time>2017-02-10T11:56:49Z</time>
      </trkpt>
      <trkpt lat="45.35613" lon="5.90331">
        <ele>1513.4580078125</ele>
        <time>2017-02-10T11:56:51Z</time>
      </trkpt>
      <trkpt lat="45.35609" lon="5.90335">
        <ele>1514.4580078125</ele>
        <time>2017-02-10T11:56:53Z</time>
      </trkpt>
      <trkpt lat="45.35608" lon="5.90341">
        <ele>1508.4580078125</ele>
        <time>2017-02-10T11:56:58Z</time>
      </trkpt>
      <trkpt lat="45.35604" lon="5.90344">
        <ele>1500.4580078125</ele>
        <time>2017-02-10T11:57:06Z</time>
      </trkpt>
      <trkpt lat="45.35608" lon="5.90352">
        <ele>1498.4580078125</ele>
        <time>2017-02-10T11:57:09Z</time>
      </trkpt>
      <trkpt lat="45.35612" lon="5.90359">
        <ele>1496.4580078125</ele>
        <time>2017-02-10T11:57:11Z</time>
      </trkpt>
      <trkpt lat="45.35615" lon="5.90365">
        <ele>1495.4580078125</ele>
        <time>2017-02-10T11:57:13Z</time>
      </trkpt>
      <trkpt lat="45.35614" lon="5.90372">
        <ele>1494.458984375</ele>
        <time>2017-02-10T11:57:16Z</time>
      </trkpt>
      <trkpt lat="45.35614" lon="5.90379">
        <ele>1487.458984375</ele>
        <time>2017-02-10T11:57:22Z</time>
      </trkpt>
      <trkpt lat="45.35609" lon="5.90377">
        <ele>1461.4580078125</ele>
        <time>2017-02-10T11:58:04Z</time>
      </trkpt>
      <trkpt lat="45.35604" lon="5.90378">
        <ele>1460.4580078125</ele>
        <time>2017-02-10T11:58:09Z</time>
      </trkpt>
      <trkpt lat="45.35595" lon="5.90386">
        <ele>1463.4580078125</ele>
        <time>2017-02-10T11:58:13Z</time>
      </trkpt>
      <trkpt lat="45.35589" lon="5.90387">
        <ele>1460.4580078125</ele>
        <time>2017-02-10T11:58:16Z</time>
      </trkpt>
      <trkpt lat="45.35585" lon="5.90395">
        <ele>1458.4580078125</ele>
        <time>2017-02-10T11:58:21Z</time>
      </trkpt>
      <trkpt lat="45.35589" lon="5.90401">
        <ele>1454.4580078125</ele>
        <time>2017-02-10T11:58:23Z</time>
      </trkpt>
      <trkpt lat="45.35594" lon="5.90404">
        <ele>1452.458984375</ele>
        <time>2017-02-10T11:58:25Z</time>
      </trkpt>
      <trkpt lat="45.35602" lon="5.90407">
        <ele>1447.458984375</ele>
        <time>2017-02-10T11:58:27Z</time>
      </trkpt>
      <trkpt lat="45.35607" lon="5.90414">
        <ele>1445.458984375</ele>
        <time>2017-02-10T11:58:30Z</time>
      </trkpt>
      <trkpt lat="45.35611" lon="5.90426">
        <ele>1446.458984375</ele>
        <time>2017-02-10T11:58:32Z</time>
      </trkpt>
      <trkpt lat="45.35616" lon="5.90424">
        <ele>1440.458984375</ele>
        <time>2017-02-10T11:58:34Z</time>
      </trkpt>
      <trkpt lat="45.35618" lon="5.90434">
        <ele>1437.458984375</ele>
        <time>2017-02-10T11:58:36Z</time>
      </trkpt>
      <trkpt lat="45.35621" lon="5.9044">
        <ele>1436.458984375</ele>
        <time>2017-02-10T11:58:38Z</time>
      </trkpt>
      <trkpt lat="45.35628" lon="5.90444">
        <ele>1434.458984375</ele>
        <time>2017-02-10T11:58:40Z</time>
      </trkpt>
      <trkpt lat="45.35629" lon="5.90452">
        <ele>1430.458984375</ele>
        <time>2017-02-10T11:58:49Z</time>
      </trkpt>
      <trkpt lat="45.35634" lon="5.90465">
        <ele>1430.458984375</ele>
        <time>2017-02-10T11:58:58Z</time>
      </trkpt>
      <trkpt lat="45.35637" lon="5.90472">
        <ele>1428.458984375</ele>
        <time>2017-02-10T11:59:00Z</time>
      </trkpt>
      <trkpt lat="45.35639" lon="5.90481">
        <ele>1424.458984375</ele>
        <time>2017-02-10T11:59:03Z</time>
      </trkpt>
      <trkpt lat="45.35641" lon="5.90488">
        <ele>1421.458984375</ele>
        <time>2017-02-10T11:59:05Z</time>
      </trkpt>
      <trkpt lat="45.35646" lon="5.90496">
        <ele>1417.458984375</ele>
        <time>2017-02-10T11:59:07Z</time>
      </trkpt>
      <trkpt lat="45.35649" lon="5.90506">
        <ele>1417.458984375</ele>
        <time>2017-02-10T11:59:10Z</time>
      </trkpt>
      <trkpt lat="45.35651" lon="5.90514">
        <ele>1414.458984375</ele>
        <time>2017-02-10T11:59:12Z</time>
      </trkpt>
      <trkpt lat="45.35654" lon="5.9052">
        <ele>1411.458984375</ele>
        <time>2017-02-10T11:59:14Z</time>
      </trkpt>
      <trkpt lat="45.35661" lon="5.90521">
        <ele>1407.458984375</ele>
        <time>2017-02-10T11:59:16Z</time>
      </trkpt>
      <trkpt lat="45.35669" lon="5.90528">
        <ele>1402.458984375</ele>
        <time>2017-02-10T11:59:20Z</time>
      </trkpt>
      <trkpt lat="45.35673" lon="5.90532">
        <ele>1399.458984375</ele>
        <time>2017-02-10T11:59:22Z</time>
      </trkpt>
      <trkpt lat="45.35673" lon="5.9054">
        <ele>1400.458984375</ele>
        <time>2017-02-10T11:59:26Z</time>
      </trkpt>
      <trkpt lat="45.35676" lon="5.90546">
        <ele>1399.458984375</ele>
        <time>2017-02-10T11:59:29Z</time>
      </trkpt>
      <trkpt lat="45.35679" lon="5.90552">
        <ele>1396.458984375</ele>
        <time>2017-02-10T11:59:32Z</time>
      </trkpt>
      <trkpt lat="45.35681" lon="5.90558">
        <ele>1395.458984375</ele>
        <time>2017-02-10T11:59:44Z</time>
      </trkpt>
      <trkpt lat="45.35682" lon="5.90565">
        <ele>1394.458984375</ele>
        <time>2017-02-10T11:59:46Z</time>
      </trkpt>
      <trkpt lat="45.3569" lon="5.90562">
        <ele>1389.458984375</ele>
        <time>2017-02-10T11:59:48Z</time>
      </trkpt>
      <trkpt lat="45.35693" lon="5.90577">
        <ele>1386.458984375</ele>
        <time>2017-02-10T11:59:52Z</time>
      </trkpt>
      <trkpt lat="45.35698" lon="5.90582">
        <ele>1382.458984375</ele>
        <time>2017-02-10T11:59:54Z</time>
      </trkpt>
      <trkpt lat="45.357" lon="5.90591">
        <ele>1378.458984375</ele>
        <time>2017-02-10T11:59:57Z</time>
      </trkpt>
      <trkpt lat="45.35705" lon="5.90607">
        <ele>1377.458984375</ele>
        <time>2017-02-10T12:00:01Z</time>
      </trkpt>
      <trkpt lat="45.3571" lon="5.90607">
        <ele>1373.458984375</ele>
        <time>2017-02-10T12:00:05Z</time>
      </trkpt>
      <trkpt lat="45.35709" lon="5.90616">
        <ele>1371.458984375</ele>
        <time>2017-02-10T12:00:07Z</time>
      </trkpt>
      <trkpt lat="45.35713" lon="5.90621">
        <ele>1370.458984375</ele>
        <time>2017-02-10T12:00:08Z</time>
      </trkpt>
      <trkpt lat="45.35719" lon="5.90621">
        <ele>1366.458984375</ele>
        <time>2017-02-10T12:00:10Z</time>
      </trkpt>
      <trkpt lat="45.35727" lon="5.90623">
        <ele>1363.458984375</ele>
        <time>2017-02-10T12:00:12Z</time>
      </trkpt>
      <trkpt lat="45.35738" lon="5.90628">
        <ele>1359.458984375</ele>
        <time>2017-02-10T12:00:15Z</time>
      </trkpt>
      <trkpt lat="45.35742" lon="5.90635">
        <ele>1357.458984375</ele>
        <time>2017-02-10T12:00:17Z</time>
      </trkpt>
      <trkpt lat="45.35744" lon="5.90642">
        <ele>1356.458984375</ele>
        <time>2017-02-10T12:00:19Z</time>
      </trkpt>
      <trkpt lat="45.35743" lon="5.90648">
        <ele>1355.458984375</ele>
        <time>2017-02-10T12:00:20Z</time>
      </trkpt>
      <trkpt lat="45.35742" lon="5.90663">
        <ele>1354.458984375</ele>
        <time>2017-02-10T12:00:22Z</time>
      </trkpt>
      <trkpt lat="45.35743" lon="5.90677">
        <ele>1355.458984375</ele>
        <time>2017-02-10T12:00:24Z</time>
      </trkpt>
      <trkpt lat="45.35746" lon="5.90689">
        <ele>1354.458984375</ele>
        <time>2017-02-10T12:00:26Z</time>
      </trkpt>
      <trkpt lat="45.35747" lon="5.90698">
        <ele>1354.458984375</ele>
        <time>2017-02-10T12:00:27Z</time>
      </trkpt>
      <trkpt lat="45.3575" lon="5.9071">
        <ele>1355.458984375</ele>
        <time>2017-02-10T12:00:28Z</time>
      </trkpt>
      <trkpt lat="45.35752" lon="5.90721">
        <ele>1355.458984375</ele>
        <time>2017-02-10T12:00:29Z</time>
      </trkpt>
      <trkpt lat="45.35755" lon="5.90738">
        <ele>1356.458984375</ele>
        <time>2017-02-10T12:00:30Z</time>
      </trkpt>
      <trkpt lat="45.35757" lon="5.90749">
        <ele>1356.458984375</ele>
        <time>2017-02-10T12:00:31Z</time>
      </trkpt>
      <trkpt lat="45.35761" lon="5.90757">
        <ele>1357.458984375</ele>
        <time>2017-02-10T12:00:32Z</time>
      </trkpt>
      <trkpt lat="45.35804" lon="5.90836">
        <ele>1327.4599609375</ele>
        <time>2017-02-10T12:00:35Z</time>
      </trkpt>
      <trkpt lat="45.35804" lon="5.90847">
        <ele>1324.4599609375</ele>
        <time>2017-02-10T12:00:37Z</time>
      </trkpt>
      <trkpt lat="45.35807" lon="5.90855">
        <ele>1322.4599609375</ele>
        <time>2017-02-10T12:00:39Z</time>
      </trkpt>
      <trkpt lat="45.35808" lon="5.90864">
        <ele>1321.4599609375</ele>
        <time>2017-02-10T12:00:41Z</time>
      </trkpt>
      <trkpt lat="45.35809" lon="5.90873">
        <ele>1320.4599609375</ele>
        <time>2017-02-10T12:00:43Z</time>
      </trkpt>
      <trkpt lat="45.3581" lon="5.90884">
        <ele>1318.4599609375</ele>
        <time>2017-02-10T12:00:45Z</time>
      </trkpt>
      <trkpt lat="45.35804" lon="5.90902">
        <ele>1319.4599609375</ele>
        <time>2017-02-10T12:00:47Z</time>
      </trkpt>
      <trkpt lat="45.35802" lon="5.90896">
        <ele>1319.4599609375</ele>
        <time>2017-02-10T12:00:48Z</time>
      </trkpt>
      <trkpt lat="45.35794" lon="5.90891">
        <ele>1318.4599609375</ele>
        <time>2017-02-10T12:00:50Z</time>
      </trkpt>
      <trkpt lat="45.35788" lon="5.90889">
        <ele>1314.4599609375</ele>
        <time>2017-02-10T12:00:52Z</time>
      </trkpt>
      <trkpt lat="45.35783" lon="5.90884">
        <ele>1310.4599609375</ele>
        <time>2017-02-10T12:00:54Z</time>
      </trkpt>
      <trkpt lat="45.35771" lon="5.90882">
        <ele>1311.458984375</ele>
        <time>2017-02-10T12:00:57Z</time>
      </trkpt>
      <trkpt lat="45.35765" lon="5.90881">
        <ele>1311.458984375</ele>
        <time>2017-02-10T12:01:00Z</time>
      </trkpt>
      <trkpt lat="45.3576" lon="5.90879">
        <ele>1308.458984375</ele>
        <time>2017-02-10T12:01:03Z</time>
      </trkpt>
      <trkpt lat="45.35753" lon="5.90878">
        <ele>1308.458984375</ele>
        <time>2017-02-10T12:01:07Z</time>
      </trkpt>
      <trkpt lat="45.35745" lon="5.90877">
        <ele>1307.458984375</ele>
        <time>2017-02-10T12:01:09Z</time>
      </trkpt>
      <trkpt lat="45.35736" lon="5.90876">
        <ele>1305.458984375</ele>
        <time>2017-02-10T12:01:11Z</time>
      </trkpt>
      <trkpt lat="45.35713" lon="5.9088">
        <ele>1302.458984375</ele>
        <time>2017-02-10T12:01:13Z</time>
      </trkpt>
      <trkpt lat="45.35698" lon="5.90893">
        <ele>1299.458984375</ele>
        <time>2017-02-10T12:01:15Z</time>
      </trkpt>
      <trkpt lat="45.35691" lon="5.90913">
        <ele>1297.458984375</ele>
        <time>2017-02-10T12:01:17Z</time>
      </trkpt>
      <trkpt lat="45.35689" lon="5.90926">
        <ele>1294.458984375</ele>
        <time>2017-02-10T12:01:18Z</time>
      </trkpt>
      <trkpt lat="45.35688" lon="5.90965">
        <ele>1289.458984375</ele>
        <time>2017-02-10T12:01:21Z</time>
      </trkpt>
      <trkpt lat="45.35693" lon="5.90998">
        <ele>1286.458984375</ele>
        <time>2017-02-10T12:01:23Z</time>
      </trkpt>
      <trkpt lat="45.35692" lon="5.91017">
        <ele>1286.4599609375</ele>
        <time>2017-02-10T12:01:24Z</time>
      </trkpt>
      <trkpt lat="45.35696" lon="5.91055">
        <ele>1282.4599609375</ele>
        <time>2017-02-10T12:01:26Z</time>
      </trkpt>
      <trkpt lat="45.35703" lon="5.91093">
        <ele>1278.4599609375</ele>
        <time>2017-02-10T12:01:28Z</time>
      </trkpt>
      <trkpt lat="45.35714" lon="5.91117">
        <ele>1273.4599609375</ele>
        <time>2017-02-10T12:01:30Z</time>
      </trkpt>
      <trkpt lat="45.35717" lon="5.9114">
        <ele>1273.4599609375</ele>
        <time>2017-02-10T12:01:31Z</time>
      </trkpt>
      <trkpt lat="45.35725" lon="5.91176">
        <ele>1265.4599609375</ele>
        <time>2017-02-10T12:01:34Z</time>
      </trkpt>
      <trkpt lat="45.35731" lon="5.91198">
        <ele>1260.4599609375</ele>
        <time>2017-02-10T12:01:36Z</time>
      </trkpt>
      <trkpt lat="45.35722" lon="5.91204">
        <ele>1253.4599609375</ele>
        <time>2017-02-10T12:01:37Z</time>
      </trkpt>
      <trkpt lat="45.35719" lon="5.91223">
        <ele>1246.4599609375</ele>
        <time>2017-02-10T12:01:39Z</time>
      </trkpt>
      <trkpt lat="45.35723" lon="5.91242">
        <ele>1238.4599609375</ele>
        <time>2017-02-10T12:01:41Z</time>
      </trkpt>
      <trkpt lat="45.3572" lon="5.91268">
        <ele>1234.4599609375</ele>
        <time>2017-02-10T12:01:43Z</time>
      </trkpt>
      <trkpt lat="45.35724" lon="5.91278">
        <ele>1231.4599609375</ele>
        <time>2017-02-10T12:01:44Z</time>
      </trkpt>
      <trkpt lat="45.35725" lon="5.91301">
        <ele>1226.4599609375</ele>
        <time>2017-02-10T12:01:46Z</time>
      </trkpt>
      <trkpt lat="45.35733" lon="5.91315">
        <ele>1220.4599609375</ele>
        <time>2017-02-10T12:01:48Z</time>
      </trkpt>
      <trkpt lat="45.35728" lon="5.91343">
        <ele>1216.4599609375</ele>
        <time>2017-02-10T12:01:50Z</time>
      </trkpt>
      <trkpt lat="45.35721" lon="5.91356">
        <ele>1213.4599609375</ele>
        <time>2017-02-10T12:01:51Z</time>
      </trkpt>
      <trkpt lat="45.35711" lon="5.91377">
        <ele>1208.4599609375</ele>
        <time>2017-02-10T12:01:53Z</time>
      </trkpt>
      <trkpt lat="45.35708" lon="5.91398">
        <ele>1206.4599609375</ele>
        <time>2017-02-10T12:01:55Z</time>
      </trkpt>
      <trkpt lat="45.35713" lon="5.91427">
        <ele>1202.4599609375</ele>
        <time>2017-02-10T12:01:57Z</time>
      </trkpt>
      <trkpt lat="45.35717" lon="5.91432">
        <ele>1196.4599609375</ele>
        <time>2017-02-10T12:01:58Z</time>
      </trkpt>
      <trkpt lat="45.35714" lon="5.91462">
        <ele>1191.4599609375</ele>
        <time>2017-02-10T12:02:00Z</time>
      </trkpt>
      <trkpt lat="45.35706" lon="5.91472">
        <ele>1189.4599609375</ele>
        <time>2017-02-10T12:02:01Z</time>
      </trkpt>
      <trkpt lat="45.357" lon="5.91492">
        <ele>1183.4599609375</ele>
        <time>2017-02-10T12:02:03Z</time>
      </trkpt>
      <trkpt lat="45.35693" lon="5.91503">
        <ele>1174.4599609375</ele>
        <time>2017-02-10T12:02:05Z</time>
      </trkpt>
      <trkpt lat="45.35682" lon="5.91518">
        <ele>1170.4599609375</ele>
        <time>2017-02-10T12:02:07Z</time>
      </trkpt>
      <trkpt lat="45.35681" lon="5.91539">
        <ele>1164.4599609375</ele>
        <time>2017-02-10T12:02:09Z</time>
      </trkpt>
      <trkpt lat="45.35676" lon="5.91561">
        <ele>1157.4599609375</ele>
        <time>2017-02-10T12:02:11Z</time>
      </trkpt>
      <trkpt lat="45.3567" lon="5.91583">
        <ele>1156.4599609375</ele>
        <time>2017-02-10T12:02:13Z</time>
      </trkpt>
      <trkpt lat="45.35667" lon="5.91575">
        <ele>1150.4599609375</ele>
        <time>2017-02-10T12:02:16Z</time>
      </trkpt>
      <trkpt lat="45.35663" lon="5.91572">
        <ele>1147.4599609375</ele>
        <time>2017-02-10T12:02:21Z</time>
      </trkpt>
      <trkpt lat="45.35656" lon="5.91579">
        <ele>1141.4599609375</ele>
        <time>2017-02-10T12:02:43Z</time>
      </trkpt>
      <trkpt lat="45.35651" lon="5.91593">
        <ele>1137.4599609375</ele>
        <time>2017-02-10T12:02:45Z</time>
      </trkpt>
      <trkpt lat="45.35657" lon="5.91599">
        <ele>1122.4599609375</ele>
        <time>2017-02-10T12:02:53Z</time>
      </trkpt>
      <trkpt lat="45.35656" lon="5.91612">
        <ele>1117.4599609375</ele>
        <time>2017-02-10T12:02:55Z</time>
      </trkpt>
      <trkpt lat="45.35651" lon="5.91619">
        <ele>1118.4599609375</ele>
        <time>2017-02-10T12:02:57Z</time>
      </trkpt>
      <trkpt lat="45.35643" lon="5.91629">
        <ele>1117.4599609375</ele>
        <time>2017-02-10T12:02:59Z</time>
      </trkpt>
      <trkpt lat="45.35633" lon="5.91638">
        <ele>1112.4599609375</ele>
        <time>2017-02-10T12:03:02Z</time>
      </trkpt>
      <trkpt lat="45.35623" lon="5.91648">
        <ele>1112.4599609375</ele>
        <time>2017-02-10T12:03:05Z</time>
      </trkpt>
      <trkpt lat="45.35621" lon="5.91655">
        <ele>1112.4599609375</ele>
        <time>2017-02-10T12:03:07Z</time>
      </trkpt>
      <trkpt lat="45.35626" lon="5.91662">
        <ele>1110.4599609375</ele>
        <time>2017-02-10T12:03:09Z</time>
      </trkpt>
      <trkpt lat="45.35625" lon="5.91669">
        <ele>1108.4599609375</ele>
        <time>2017-02-10T12:03:11Z</time>
      </trkpt>
      <trkpt lat="45.35622" lon="5.91681">
        <ele>1107.4599609375</ele>
        <time>2017-02-10T12:03:13Z</time>
      </trkpt>
      <trkpt lat="45.35613" lon="5.91688">
        <ele>1106.4599609375</ele>
        <time>2017-02-10T12:03:15Z</time>
      </trkpt>
      <trkpt lat="45.35601" lon="5.91706">
        <ele>1105.4599609375</ele>
        <time>2017-02-10T12:03:18Z</time>
      </trkpt>
      <trkpt lat="45.35591" lon="5.91726">
        <ele>1103.4599609375</ele>
        <time>2017-02-10T12:03:20Z</time>
      </trkpt>
      <trkpt lat="45.3559" lon="5.91743">
        <ele>1103.4599609375</ele>
        <time>2017-02-10T12:03:22Z</time>
      </trkpt>
      <trkpt lat="45.35618" lon="5.91756">
        <ele>1102.4599609375</ele>
        <time>2017-02-10T12:03:24Z</time>
      </trkpt>
      <trkpt lat="45.35638" lon="5.91768">
        <ele>1097.4599609375</ele>
        <time>2017-02-10T12:03:26Z</time>
      </trkpt>
      <trkpt lat="45.35644" lon="5.91778">
        <ele>1090.4599609375</ele>
        <time>2017-02-10T12:03:27Z</time>
      </trkpt>
      <trkpt lat="45.35644" lon="5.91808">
        <ele>1089.4599609375</ele>
        <time>2017-02-10T12:03:29Z</time>
      </trkpt>
      <trkpt lat="45.35638" lon="5.9183">
        <ele>1087.4599609375</ele>
        <time>2017-02-10T12:03:31Z</time>
      </trkpt>
      <trkpt lat="45.35628" lon="5.91848">
        <ele>1080.4599609375</ele>
        <time>2017-02-10T12:03:34Z</time>
      </trkpt>
      <trkpt lat="45.3562" lon="5.91859">
        <ele>1080.4599609375</ele>
        <time>2017-02-10T12:03:37Z</time>
      </trkpt>
      <trkpt lat="45.35613" lon="5.91862">
        <ele>1079.4599609375</ele>
        <time>2017-02-10T12:03:39Z</time>
      </trkpt>
      <trkpt lat="45.35608" lon="5.91865">
        <ele>1077.4599609375</ele>
        <time>2017-02-10T12:03:41Z</time>
      </trkpt>
      <trkpt lat="45.35602" lon="5.91869">
        <ele>1076.4599609375</ele>
        <time>2017-02-10T12:03:43Z</time>
      </trkpt>
      <trkpt lat="45.35591" lon="5.91881">
        <ele>1077.4599609375</ele>
        <time>2017-02-10T12:03:47Z</time>
      </trkpt>
      <trkpt lat="45.35594" lon="5.91889">
        <ele>1069.4599609375</ele>
        <time>2017-02-10T12:04:35Z</time>
      </trkpt>
      <trkpt lat="45.35597" lon="5.91896">
        <ele>1069.4599609375</ele>
        <time>2017-02-10T12:04:41Z</time>
      </trkpt>
      <trkpt lat="45.35601" lon="5.919">
        <ele>1071.4599609375</ele>
        <time>2017-02-10T12:04:45Z</time>
      </trkpt>
      <trkpt lat="45.35605" lon="5.91906">
        <ele>1069.4610595703</ele>
        <time>2017-02-10T12:04:50Z</time>
      </trkpt>
      <trkpt lat="45.35609" lon="5.91909">
        <ele>1068.4610595703</ele>
        <time>2017-02-10T12:04:54Z</time>
      </trkpt>
      <trkpt lat="45.35614" lon="5.91911">
        <ele>1068.4610595703</ele>
        <time>2017-02-10T12:05:06Z</time>
      </trkpt>
    </trkseg>
  </trk>
</gpx>